[[{"header":{"parameterUnit":"m.s-1","parameterCategory":1,"la1":30.6,"la2":29.2853,"lo1":-89.7004,"lo2":-87.6739,"dy":0.0162,"dx":0.0183,"nx":112,"ny":82,"refTime":"2024-08-05T18:00:00:Z","depth":0,"parameterNumber":2,"parameterNumberName":"U-component_of_WINDS"},"data":[0.0,0.0,0.0,0.0,0.0,0.0,0.0,0.0,0.0,0.0,0.0,0.0,0.0,0.0,0.0,0.0,0.0,0.0,0.0,0.0,0.0,0.0,0.0,0.0,0.0,0.0,0.0,0.0,0.0,0.0,0.0,0.0,0.0,0.0,0.0,0.0,0.0,0.0,0.0,0.0,0.0,0.0,0.0,0.0,0.0,0.0,0.0,0.0,0.0,0.0,0.0,0.0,0.0,0.0,0.0,0.0,0.0,0.0,0.0,0.0,0.0,0.0,0.0,0.0,0.0,0.0,0.0,0.0,0.0,0.0,0.0,0.0,0.0,0.0,0.0,0.0,0.0,0.0,0.0,0.0,0.0,0.0,0.0,0.0,0.0,0.0,0.0,0.0,0.0,0.0,3.5244,3.7527,3.9357,3.9665,3.7778,3.7527,3.5954,3.2408,0.0,0.0,0.0,0.0,0.0,0.0,0.0,0.0,0.0,0.0,0.0,0.0,0.0,0.0,0.0,0.0,0.0,0.0,0.0,0.0,0.0,0.0,0.0,0.0,0.0,0.0,0.0,0.0,0.0,0.0,0.0,0.0,0.0,0.0,0.0,0.0,0.0,0.0,0.0,0.0,0.0,0.0,0.0,0.0,0.0,0.0,0.0,0.0,0.0,0.0,0.0,0.0,0.0,0.0,0.0,0.0,0.0,0.0,0.0,0.0,0.0,0.0,0.0,0.0,0.0,0.0,0.0,0.0,0.0,0.0,0.0,0.0,0.0,0.0,0.0,0.0,0.0,0.0,0.0,0.0,0.0,0.0,0.0,0.0,0.0,0.0,0.0,0.0,0.0,0.0,0.0,0.0,0.0,0.0,0.0,0.0,0.0,0.0,0.0,0.0,0.0,0.0,0.0,0.0,3.5052,3.822,3.8371,3.7829,3.6812,3.6298,3.4513,3.0862,0.0,0.0,0.0,0.0,0.0,0.0,0.0,0.0,0.0,0.0,0.0,0.0,0.0,0.0,0.0,0.0,0.0,0.0,0.0,0.0,0.0,0.0,0.0,0.0,0.0,0.0,0.0,0.0,0.0,0.0,0.0,0.0,0.0,0.0,0.0,0.0,0.0,0.0,0.0,0.0,0.0,0.0,0.0,0.0,0.0,0.0,0.0,0.0,0.0,0.0,0.0,0.0,0.0,0.0,0.0,0.0,0.0,0.0,0.0,0.0,0.0,0.0,0.0,0.0,0.0,0.0,0.0,0.0,0.0,0.0,0.0,0.0,0.0,0.0,0.0,0.0,0.0,0.0,0.0,0.0,0.0,0.0,0.0,0.0,0.0,0.0,0.0,0.0,0.0,0.0,0.0,0.0,0.0,0.0,0.0,0.0,0.0,0.0,0.0,0.0,0.0,0.0,0.0,3.3043,3.4715,3.7363,3.7057,3.6346,3.5454,3.4798,3.2912,2.9401,2.8824,0.0,0.0,0.0,0.0,0.0,0.0,0.0,0.0,0.0,0.0,0.0,0.0,0.0,0.0,0.0,0.0,0.0,0.0,0.0,0.0,0.0,0.0,0.0,0.0,0.0,0.0,0.0,0.0,0.0,0.0,0.0,0.0,0.0,0.0,0.0,0.0,0.0,0.0,0.0,0.0,0.0,0.0,0.0,0.0,0.0,0.0,0.0,0.0,0.0,0.0,0.0,0.0,0.0,0.0,0.0,0.0,0.0,0.0,0.0,0.0,0.0,0.0,0.0,0.0,0.0,0.0,0.0,0.0,0.0,0.0,0.0,0.0,0.0,0.0,0.0,0.0,0.0,0.0,0.0,0.0,0.0,0.0,0.0,0.0,0.0,0.0,0.0,0.0,0.0,0.0,0.0,0.0,0.0,0.0,0.0,0.0,0.0,0.0,0.0,0.0,0.0,0.0,3.3313,3.4265,3.5751,3.5522,3.4715,3.3426,3.2628,3.0924,2.7789,2.6699,0.0,0.0,0.0,0.0,0.0,0.0,0.0,0.0,0.0,0.0,0.0,0.0,0.0,0.0,0.0,0.0,0.0,0.0,0.0,0.0,0.0,0.0,0.0,0.0,0.0,0.0,0.0,0.0,0.0,0.0,0.0,0.0,0.0,0.0,0.0,0.0,0.0,0.0,0.0,0.0,0.0,0.0,0.0,0.0,0.0,0.0,0.0,0.0,0.0,0.0,0.0,0.0,0.0,0.0,0.0,0.0,0.0,0.0,0.0,0.0,0.0,0.0,0.0,0.0,0.0,0.0,0.0,0.0,0.0,0.0,0.0,0.0,0.0,0.0,0.0,0.0,0.0,0.0,0.0,0.0,0.0,0.0,0.0,0.0,0.0,0.0,0.0,0.0,0.0,0.0,0.0,0.0,0.0,0.0,0.0,0.0,0.0,0.0,0.0,0.0,0.0,0.0,3.2347,3.3547,3.3692,3.3696,3.2699,3.0293,2.9316,2.7997,2.6033,2.4043,0.0,0.0,0.0,0.0,0.0,0.0,0.0,0.0,0.0,0.0,0.0,0.0,0.0,0.0,0.0,0.0,0.0,0.0,0.0,0.0,0.0,0.0,0.0,0.0,0.0,0.0,0.0,0.0,0.0,0.0,0.0,0.0,0.0,0.0,0.0,0.0,0.0,0.0,0.0,0.0,0.0,0.0,0.0,0.0,0.0,0.0,0.0,0.0,0.0,0.0,0.0,0.0,0.0,0.0,0.0,0.0,0.0,0.0,0.0,0.0,0.0,0.0,0.0,0.0,0.0,0.0,0.0,0.0,0.0,0.0,0.0,0.0,0.0,0.0,0.0,0.0,0.0,0.0,0.0,0.0,0.0,0.0,0.0,0.0,0.0,0.0,0.0,0.0,0.0,0.0,0.0,0.0,0.0,0.0,0.0,0.0,0.0,0.0,0.0,0.0,0.0,0.0,3.1165,3.2113,3.3373,3.1509,2.9489,2.7875,2.5739,2.3879,2.2474,0.0,0.0,0.0,0.0,0.0,0.0,0.0,0.0,0.0,0.0,0.0,0.0,0.0,0.0,0.0,0.0,0.0,0.0,0.0,0.0,0.0,0.0,0.0,0.0,0.0,0.0,0.0,0.0,0.0,0.0,0.0,0.0,0.0,0.0,0.0,0.0,0.0,0.0,0.0,0.0,0.0,0.0,0.0,0.0,0.0,0.0,0.0,0.0,0.0,0.0,0.0,0.0,0.0,0.0,0.0,0.0,0.0,0.0,0.0,0.0,0.0,0.0,0.0,0.0,0.0,0.0,0.0,0.0,0.0,0.0,0.0,0.0,0.0,0.0,0.0,0.0,0.0,0.0,0.0,0.0,0.0,0.0,0.0,0.0,0.0,0.0,0.0,0.0,0.0,0.0,0.0,0.0,0.0,0.0,0.0,0.0,0.0,0.0,0.0,0.0,0.0,0.0,2.9924,3.0567,3.1174,3.2076,2.9724,2.7257,2.5229,2.271,2.0753,1.9673,0.0,0.0,0.0,0.0,0.0,0.0,0.0,0.0,0.0,0.0,0.0,0.0,0.0,0.0,0.0,0.0,0.0,0.0,0.0,0.0,0.0,0.0,0.0,0.0,0.0,0.0,0.0,0.0,0.0,0.0,0.0,0.0,0.0,0.0,0.0,0.0,0.0,0.0,0.0,0.0,0.0,0.0,0.0,0.0,0.0,0.0,0.0,0.0,0.0,0.0,0.0,0.0,0.0,0.0,0.0,0.0,0.0,0.0,0.0,0.0,0.0,0.0,0.0,0.0,0.0,0.0,0.0,0.0,0.0,0.0,0.0,0.0,0.0,0.0,0.0,0.0,0.0,0.0,0.0,0.0,0.0,0.0,0.0,0.0,0.0,0.0,0.0,0.0,0.0,0.0,0.0,0.0,0.0,0.0,0.0,0.0,0.0,0.0,0.0,0.0,0.0,0.0,2.94,3.0702,3.0952,2.9537,2.8587,2.6357,2.2216,2.0238,1.8851,0.0,0.0,0.0,0.0,0.0,0.0,0.0,0.0,0.0,0.0,0.0,0.0,0.0,0.0,0.0,0.0,0.0,0.0,0.0,0.0,0.0,0.0,0.0,0.0,0.0,0.0,0.0,0.0,0.0,0.0,0.0,0.0,0.0,0.0,0.0,0.0,0.0,0.0,0.0,0.0,0.0,0.0,0.0,0.0,0.0,0.0,0.0,0.0,0.0,0.0,0.0,0.0,0.0,0.0,0.0,0.0,0.0,0.0,0.0,0.0,0.0,0.0,0.0,0.0,0.0,0.0,0.0,0.0,0.0,0.0,0.0,0.0,0.0,0.0,0.0,0.0,0.0,0.0,0.0,0.0,0.0,0.0,0.0,0.0,0.0,0.0,0.0,0.0,0.0,0.0,0.0,0.0,0.0,0.0,0.0,0.0,0.0,0.0,0.0,0.0,0.0,0.0,0.0,2.8771,2.9525,2.9638,2.8601,2.5985,2.3007,1.9781,1.7617,1.602,1.508,0.0,0.0,0.0,0.0,0.0,0.0,0.0,0.0,0.0,0.0,0.0,0.0,0.0,0.0,0.0,0.0,0.0,0.0,0.0,0.0,0.0,0.0,0.0,0.0,0.0,0.0,0.0,0.0,0.0,0.0,0.0,0.0,0.0,0.0,0.0,0.0,0.0,0.0,0.0,0.0,0.0,0.0,0.0,0.0,0.0,0.0,0.0,0.0,0.0,0.0,0.0,0.0,0.0,0.0,0.0,0.0,0.0,0.0,0.0,0.0,0.0,0.0,0.0,0.0,0.0,0.0,0.0,0.0,0.0,0.0,0.0,0.0,0.0,0.0,0.0,0.0,0.0,0.0,0.0,0.0,0.0,0.0,0.0,0.0,0.0,0.0,0.0,0.0,0.0,0.0,0.0,0.0,0.0,0.0,0.0,0.0,0.0,0.0,0.0,0.0,0.0,0.0,2.7195,2.7385,2.7072,2.6038,2.3362,2.0556,1.7901,1.6167,1.4689,1.3624,0.0,0.0,0.0,0.0,0.0,0.0,0.0,0.0,0.0,0.0,0.0,0.0,0.0,0.0,0.0,0.0,0.0,0.0,0.0,0.0,0.0,0.0,0.0,0.0,0.0,0.0,0.0,0.0,0.0,0.0,0.0,0.0,0.0,0.0,0.0,0.0,0.0,0.0,0.0,0.0,0.0,0.0,0.0,0.0,0.0,0.0,0.0,0.0,0.0,0.0,0.0,0.0,0.0,0.0,0.0,0.0,0.0,0.0,0.0,0.0,0.0,0.0,0.0,0.0,0.0,0.0,0.0,0.0,0.0,0.0,0.0,0.0,0.0,0.0,0.0,0.0,0.0,0.0,0.0,0.0,0.0,0.0,0.0,0.0,0.0,0.0,0.0,0.0,0.0,0.0,0.0,0.0,0.0,0.0,0.0,0.0,0.0,0.0,0.0,0.0,0.0,0.0,2.4586,2.4352,2.3577,2.1911,2.0588,1.8778,1.6251,1.5396,1.445,1.2931,0.0,0.0,0.0,0.0,0.0,0.0,0.0,0.0,0.0,0.0,0.0,0.0,0.0,0.0,0.0,0.0,0.0,0.0,0.0,0.0,0.0,0.0,0.0,0.0,0.0,0.0,0.0,0.0,0.0,0.0,0.0,0.0,0.0,0.0,0.0,0.0,0.0,0.0,0.0,0.0,0.0,0.0,0.0,0.0,0.0,0.0,0.0,0.0,0.0,0.0,0.0,0.0,0.0,0.0,0.0,0.0,0.0,0.0,0.0,0.0,1.2889,1.5531,0.0,0.0,0.0,0.0,0.0,0.0,0.0,0.0,0.0,0.0,0.0,0.0,0.0,0.0,0.0,0.0,0.0,0.0,0.0,0.0,0.0,0.0,0.0,0.0,0.0,0.0,0.0,0.0,0.0,0.0,0.0,0.0,0.0,0.0,0.0,0.0,0.0,0.0,0.0,0.0,1.9762,2.052,1.9531,1.5069,1.6775,1.6872,1.3375,1.3628,1.3158,1.1066,1.2403,0.0,0.0,0.0,0.0,0.0,0.0,0.0,0.0,0.0,0.0,0.0,0.0,0.0,0.0,0.0,0.0,0.0,0.0,0.0,0.0,0.0,0.0,0.0,0.0,0.0,0.0,0.0,0.0,0.0,0.0,0.0,0.0,0.0,0.0,0.0,0.0,0.0,0.0,0.0,0.0,0.0,0.0,0.0,0.0,0.0,0.0,0.0,0.0,0.0,0.0,0.0,0.0,0.0,0.0,0.0,0.0,0.0,0.0,0.0,0.6052,0.8619,0.0,0.0,0.0,0.0,0.0,0.0,0.0,0.0,0.0,0.0,0.0,0.0,0.0,0.0,0.0,0.0,0.0,0.0,0.0,0.0,0.0,0.0,0.0,0.0,0.0,0.0,0.0,0.0,0.0,0.0,0.0,0.0,0.0,0.0,0.0,0.0,0.0,0.0,0.0,0.0,1.3996,1.2986,1.1753,0.9547,1.1598,1.2868,1.2224,1.2686,1.2098,1.0013,1.0605,0.0,0.0,0.0,0.0,0.0,0.0,0.0,0.0,0.0,0.0,0.0,0.0,0.0,0.0,0.0,0.0,0.0,0.0,0.0,0.0,0.0,0.0,0.0,0.0,0.0,0.0,0.0,0.0,0.0,0.0,0.0,0.0,0.0,0.0,0.0,0.0,0.0,0.0,0.0,0.0,0.0,0.0,0.0,0.0,0.0,0.0,0.0,0.0,0.0,0.0,0.0,0.0,0.0,0.8103,0.6136,0.4247,0.1847,-0.1713,-0.5922,-0.2919,-0.169,-0.1799,-0.0669,0.0,0.0,0.0,0.0,0.0,0.0,0.0,0.0,0.0,0.0,0.0,0.0,0.0,0.0,0.0,0.0,0.0,0.0,0.0,0.0,0.0,0.0,0.0,0.0,2.1411,1.9891,1.8322,0.0,0.0,0.0,0.0,0.0,0.0,0.0,0.0,0.0,0.0,0.0,0.759,0.4153,0.2516,0.3732,0.5552,0.775,1.0565,1.1216,1.0842,0.9231,0.8966,0.9139,0.0,0.0,0.0,0.0,0.0,0.0,0.0,0.0,0.0,0.0,0.0,0.0,0.0,0.0,0.0,0.0,0.0,0.0,0.0,0.0,0.0,0.0,0.0,0.0,0.0,0.0,0.0,0.0,0.0,0.0,0.0,0.0,1.8115,1.9497,0.0,0.0,0.0,0.0,0.0,0.0,0.0,0.0,0.0,0.0,0.0,0.0,0.0,1.1706,1.1069,0.8138,0.5936,0.4488,0.2133,-0.0289,-0.2759,-0.5929,-1.1071,-1.7482,-1.6673,0.0,-1.7189,-1.1744,0.0,0.0,0.0,0.0,0.0,0.0,0.0,0.0,0.0,0.0,0.0,0.0,0.0,0.0,0.0,0.0,0.0,0.0,0.0,0.0,0.0,0.0,2.1624,1.8708,1.5474,1.2343,0.0,1.2807,1.5785,1.5939,1.6065,1.6435,0.0,0.0,0.0,0.0,0.0,0.0,0.0277,-0.3916,-0.5912,-0.4643,-0.1206,0.2209,0.4925,0.7407,0.8685,0.843,0.8908,0.8874,0.8116,0.901,0.0,0.0,0.0,0.0,0.0,0.0,0.0,0.0,0.0,0.0,0.0,0.0,0.0,0.0,0.0,0.0,0.0,0.0,0.0,0.0,0.0,0.0,0.0,0.0,0.0,0.0,0.0,0.0,0.0,1.6238,1.4216,1.3058,1.0362,0.8833,0.0,0.0,0.0,0.0,0.0,0.0,0.0,0.0,0.0,1.1432,0.791,0.5467,0.428,0.2054,-0.0359,-0.2815,-0.5549,-0.7772,-0.9451,-1.1979,-1.5411,-1.9452,-2.0662,-2.1506,-2.175,-1.7225,-1.4018,-1.1721,0.0,0.0,0.0,0.0,-0.0075,0.1062,0.236,0.2318,0.2193,0.5059,0.0,0.0,0.0,0.0,0.0,0.0,0.0,1.9649,0.0,0.0,1.582,1.1074,0.7587,0.4566,0.2037,0.3525,0.697,1.1994,1.316,1.3226,1.3204,1.4653,0.0,0.0,0.0,-0.0,-0.5188,-0.852,-1.041,-1.0619,-0.6396,-0.2686,-0.0691,0.2003,0.3949,0.4743,0.6542,0.7415,0.6957,0.7953,0.8918,0.0,0.0,0.0,0.0,0.0,0.0,0.0,0.0,0.0,0.0,0.0,0.0,0.0,0.0,0.0,0.0,0.0,0.0,0.0,0.0,0.0,0.0,0.0,0.0,0.0,0.0,0.0,0.0,1.4019,0.994,0.6604,0.3936,0.2348,0.0,0.0,0.0,0.0,0.0,0.0,0.7626,0.6676,0.5235,0.3136,0.0923,-0.1158,-0.3172,-0.439,-0.6441,-0.9191,-1.1765,-1.3455,-1.4419,-1.6309,-1.8022,-1.9662,-2.1993,-2.3212,-2.3245,-2.0493,-1.8358,-1.6452,-1.3767,-1.1516,-0.9711,-0.7977,-0.677,-0.571,-0.4703,-0.4939,-0.5521,-0.4101,-0.2294,0.0321,0.4815,0.0,0.0,0.0,0.0,1.4128,1.3338,1.1424,0.8516,0.349,0.0371,-0.2052,-0.4021,-0.3919,-0.1188,0.6254,0.8496,0.9172,0.8897,1.0581,0.0,0.6155,0.0853,-0.4431,-0.9219,-1.1433,-1.2837,-1.36,-1.0157,-0.6973,-0.4868,-0.2245,-0.0078,0.1477,0.4215,0.5957,0.6278,0.7145,0.778,0.797,0.0,0.0,0.0,0.0,0.0,0.0,0.0,0.0,0.0,0.0,0.0,0.0,0.0,0.0,0.0,0.0,0.0,0.0,0.0,0.0,0.0,0.0,0.0,0.0,0.0,0.0,0.0,0.0,0.0,0.2843,-0.2288,0.0,0.0,0.0,0.0,0.074,0.1077,0.1225,0.1255,0.0281,-0.0719,-0.1717,-0.5238,-0.8546,-1.1564,-1.2549,-1.3078,-1.3309,-1.4474,-1.5517,-1.648,-1.8225,-1.9576,-2.0677,-2.2955,-2.3954,-2.3879,-2.2409,-2.1005,-1.9623,-1.8099,-1.5723,-1.3106,-1.3059,-1.2455,-1.1549,-1.0489,-1.0909,-1.1792,-1.1343,-0.7425,-0.2266,0.0758,0.2602,0.0,0.0,0.3158,0.2616,0.298,0.1853,-0.0,-0.259,-0.5025,-0.6758,-0.685,-0.685,-0.5866,0.0,0.0913,0.3424,0.4282,0.0,0.2432,0.063,-0.3172,-0.735,-1.1547,-1.2968,-1.3288,-1.2378,-1.2149,-1.043,-0.6517,-0.4173,-0.2012,-0.0,0.2727,0.4924,0.6278,0.6623,0.7186,0.797,0.8317,0.0,0.0,0.0,0.0,0.0,0.0,0.0,0.0,0.0,0.0,0.0,0.0,0.0,0.0,0.0,0.0,0.0,0.0,0.0,0.0,0.0,0.0,0.0,0.0,0.0,0.0,0.0,0.0,-0.6033,-0.9616,0.0,-1.2964,-1.0547,-0.8628,-0.7887,-0.7794,-0.7385,-0.6419,-0.6674,-0.7372,-0.8532,-0.9849,-1.1707,-1.4122,-1.4434,-1.4901,-1.5528,-1.5922,-1.6895,-1.8412,-1.9564,-2.061,-2.1502,-2.2837,-2.3319,-2.3071,-2.1964,-2.1541,-2.1459,-1.8597,-1.6858,-1.5733,-1.4413,-1.3651,-1.3342,-1.3008,-1.3124,-1.33,-1.2375,-0.9198,-0.5478,-0.4437,-0.3836,-0.3495,-0.3495,-0.3698,-0.3905,-0.3818,-0.4184,-0.4718,-0.5449,-0.6318,-0.6917,-0.6813,-0.6875,-0.6537,-0.536,-0.4335,-0.2842,-0.0508,-0.0668,-0.1555,-0.281,-0.6957,-1.0586,-1.1991,-1.3063,-1.3593,-1.3208,-1.2083,-1.0524,-0.8443,-0.6353,-0.4192,-0.2104,0.148,0.43,0.6207,0.6461,0.6735,0.7182,0.7217,0.8279,0.0,0.0,0.0,0.0,0.0,0.0,0.0,0.0,0.0,0.0,0.0,0.0,0.0,0.0,0.0,0.0,0.0,0.0,0.0,0.0,0.0,0.0,0.0,0.0,0.0,-0.0851,-0.7707,-1.3836,-1.5568,-1.6458,-1.7076,-1.4943,-1.3449,-1.3329,-1.331,-1.2742,-1.1534,-1.1745,-1.2157,-1.2684,-1.3317,-1.4331,-1.5649,-1.6018,-1.6437,-1.707,-1.707,-1.7881,-1.9299,-2.0204,-2.1112,-2.1939,-2.2763,-2.2936,-2.2586,-2.1638,-2.1517,-2.1722,-1.8784,-1.7317,-1.674,-1.5107,-1.4261,-1.3948,-1.4055,-1.4088,-1.3906,-1.2674,-1.0494,-0.8233,-0.78,-0.7401,-0.7084,-0.7084,-0.7436,-0.7701,-0.7701,-0.7921,-0.8103,-0.7979,-0.782,-0.7659,-0.7296,-0.7191,-0.7109,-0.6781,-0.6881,-0.6353,-0.4206,-0.4076,-0.4742,-0.6291,-0.9241,-1.1353,-1.1656,-1.2331,-1.2558,-1.2258,-1.1075,-0.9895,-0.8841,-0.7868,-0.6106,-0.3317,0.0946,0.4214,0.6364,0.6515,0.662,0.6773,0.7158,0.8046,0.9447,0.0,0.0,0.0,0.0,0.0,0.0,0.0,0.0,0.0,0.0,0.0,0.0,0.0,0.0,0.0,0.0,0.0,0.0,0.0,0.0,0.0,0.0,0.0,0.0286,-0.6416,-1.3631,-1.9873,-1.9834,-1.8806,-1.7386,-1.6889,-1.6271,-1.5305,-1.5234,-1.4736,-1.3738,-1.4593,-1.4665,-1.3818,-1.5579,-1.6567,-1.6636,-1.7569,-1.8008,-1.8008,-1.8008,-1.8462,-1.9365,-2.0204,-2.1101,-2.2002,-2.2763,-2.2923,-2.2562,-2.1549,-2.0967,-2.0542,-1.8854,-1.7397,-1.6117,-1.5472,-1.4574,-1.3674,-1.3968,-1.4068,-1.3886,-1.276,-1.1547,-1.0346,-0.9318,-0.8101,-0.7139,-0.7139,-0.8017,-0.889,-0.8969,-0.9596,-1.0198,-1.0183,-0.9935,-0.9452,-0.8393,-0.8147,-0.7906,-0.685,-0.6705,-0.6805,-0.6812,-0.6518,-0.7217,-0.9853,-0.9704,0.0,-1.064,-1.0783,-1.0415,-0.9372,-0.9296,-0.8922,-0.7859,-0.8702,-0.7524,-0.3394,0.105,0.4426,0.6659,0.6722,0.678,0.6939,0.8111,0.8806,0.8894,0.0,0.0,0.0,0.0,0.0,0.0,0.0,0.0,0.0,0.0,0.0,0.0,0.0,0.0,0.0,0.0,0.0,0.0,0.0,0.0,0.0,-0.1911,-0.6678,-0.6947,-1.1862,-1.6787,-2.047,-2.0234,-1.9536,-1.9059,-1.7871,-1.6899,-1.6262,-1.5587,-1.4736,-1.3738,-1.331,-1.3593,-1.4736,-1.5305,-1.6219,-1.7579,-1.7872,-1.8008,-1.8008,-1.8008,-1.8787,-2.0268,-2.0462,-2.1416,-2.2763,-2.3005,-2.2395,-2.1179,-2.0857,-1.9951,-1.8616,-1.7261,-1.6539,-1.6008,-1.4366,-1.3559,-1.3367,-1.3661,-1.3627,-1.3439,-1.36,-1.2132,-1.0319,-1.0134,-0.8707,-0.7316,-0.8189,-0.8627,-0.903,-0.9653,-0.9991,-1.0118,-0.9792,-0.9592,-0.9271,-0.8117,-0.7935,-0.7622,-0.6616,-0.6386,-0.6503,-0.6529,-0.6508,-0.6918,-0.828,-0.8966,0.0,-0.9669,-1.034,-1.0415,-0.9372,-0.9296,-0.8922,-0.7859,-0.8282,-0.7025,-0.3311,-0.0565,0.2779,0.6833,0.701,0.7087,0.7244,0.8263,0.8845,0.0,0.0,0.0,0.0,0.0,0.0,0.0,0.0,0.0,0.0,0.0,0.0,0.0,0.0,0.0,0.0,0.0,0.0,0.0,0.0,0.0,0.0,-0.7223,-1.1849,-1.3126,-1.653,-1.9378,-2.0618,-2.0021,-1.9415,-1.9047,-1.7838,-1.7002,-1.6683,-1.5952,-1.5005,-1.3964,-1.3525,-1.361,-1.4242,-1.5127,-1.6038,-1.6911,-1.7513,-1.7656,-1.748,-1.7656,-1.8633,-2.0288,-2.0501,-2.1479,-2.3078,-2.3078,-2.2175,-2.059,-2.059,-1.9344,0.0,0.0,0.0,0.0,0.0,-1.3019,-1.306,-1.336,-1.3353,-1.3267,-1.3607,-1.2087,-1.0098,-1.0319,-0.9189,-0.7906,-0.8513,-0.937,-1.0254,-1.0616,-1.1055,-1.1227,-1.093,-1.0781,-1.0362,-0.9316,-0.9059,-0.8761,-0.7783,-0.7553,0.0,-0.7684,-0.7317,-0.7512,-0.8851,-0.9216,-0.9296,-0.9296,-0.9442,-0.9135,-0.8161,-0.8012,-0.7812,-0.727,-0.7458,0.0,0.0,0.0,0.2101,0.6936,0.7228,0.0,0.0,0.0,0.0,0.0,0.0,0.0,0.0,1.5542,1.7717,0.0,0.0,0.0,0.0,0.0,0.0,0.0,0.0,0.0,0.0,0.0,0.0,0.0,0.0,0.0,0.0,-1.1681,-1.5283,-1.7599,-1.9726,-2.0785,-2.0258,-1.9446,-1.8676,-1.7973,-1.7141,-1.6617,-1.6592,-1.6048,-1.5216,-1.404,-1.4185,0.0,0.0,0.0,-1.5662,-1.5523,-1.6626,-1.7045,-1.6738,-1.7119,-1.8171,-1.9834,-2.0277,-2.146,-2.2977,-2.2977,-2.2115,-2.0579,-2.0534,-1.893,-1.6385,-1.5655,-1.5154,-1.4705,-1.3262,-1.2768,-1.2815,-1.3053,0.0,0.0,-1.3028,-1.1552,-0.9862,-1.0093,-0.941,-0.8657,-0.8746,-1.0242,-1.1846,-1.1668,-1.2226,-1.2815,-1.2782,-1.2492,-1.1996,-1.1013,-1.0783,-1.049,-0.9518,-0.9296,-0.9372,-0.9448,-0.8613,-0.8613,-1.0484,-0.997,-0.9296,-0.9296,-0.8389,-0.7403,-0.6412,0.0,0.0,-0.6461,-0.6572,-0.6555,-0.634,-0.2341,0.193,0.6152,0.6845,0.6988,0.6724,0.704,0.7359,0.7578,0.7518,0.7694,0.81,1.1701,1.4136,0.0,0.0,0.0,0.0,0.0,0.0,0.0,0.0,0.0,0.0,0.0,0.0,0.0,0.0,0.0,-0.9227,-1.2811,-1.5706,-1.742,-1.7807,-1.8135,-1.8783,-1.817,-1.7653,-1.7378,-1.6668,-1.6071,-1.5762,-1.4937,-1.409,-1.3176,-1.2419,-1.2291,-1.2848,-1.3297,-1.4156,-1.5514,-1.5735,-1.6139,-1.6665,-1.6816,0.0,-1.9269,-1.9823,-2.092,-2.2472,-2.2472,-2.1728,-2.0557,-2.008,-1.8152,-1.5384,-1.4449,-1.3579,-1.2813,-1.2513,-1.2385,-1.2432,-1.2732,-1.2679,-1.2401,-1.2085,-1.0869,-0.9637,-0.9857,-0.9196,0.0,-1.0421,-1.1231,-1.1742,-1.235,-1.2632,-1.2761,-1.2445,-1.2345,-1.1996,-1.1013,-1.0783,-1.049,-0.9518,-0.9296,-0.9593,-1.034,-0.9669,-0.9442,-1.0634,-0.997,-0.9296,-0.9296,-0.8389,-0.7403,-0.6412,-0.6338,-0.6318,-0.6461,-0.6474,-0.6538,-0.6608,-0.2466,0.0452,0.1314,0.3312,0.4434,0.4571,0.469,0.4706,0.4824,0.4816,0.5924,0.8072,1.1038,1.2699,0.0,0.0,0.0,0.0,0.0,0.0,0.0,0.0,0.0,0.0,0.0,-0.2156,-0.5009,0.0,-0.9623,-1.1352,-1.3696,-1.5531,-1.6092,-1.6364,-1.6656,-1.7147,-1.6652,-1.6032,-1.5477,-1.505,-1.4685,-1.4266,-1.3574,-1.2887,-1.2409,-1.1647,-1.1342,-1.1717,-1.2313,-1.3154,-1.4238,-1.4872,-1.5508,-1.6074,-1.6289,-1.7043,-1.8294,-1.9137,-2.0203,-2.1354,-2.1354,-2.0784,-1.9716,-1.7873,-1.6117,-1.4522,-1.3395,-1.2732,-1.2305,-1.2305,-1.2305,-1.2251,-1.1934,-1.1658,-1.144,-1.0716,-0.9627,-0.8796,-0.9473,-0.9383,-0.9308,-1.0813,-1.1691,-1.2182,-1.2447,-1.2525,-1.2485,-1.2338,-1.2305,-1.1996,-1.1013,-1.0783,-1.049,-0.9518,-0.9669,-1.019,-1.0708,-1.0795,-1.0795,-1.0789,-0.997,-0.9145,-0.8618,-0.7706,-0.6872,-0.6338,-0.6338,-0.6349,-0.6569,-0.6736,-0.6294,-0.5195,-0.1887,-0.0,-0.0,0.1152,0.1858,0.2012,0.2013,0.2013,0.2013,0.332,0.5343,0.8009,0.8066,0.9017,0.0,0.0,0.0,0.0,0.0,0.0,0.0,-0.2692,-0.3099,-0.4243,-0.5246,-0.6801,-0.9936,-1.1419,-1.224,-1.2679,-1.3918,-1.4687,-1.4421,-1.4755,-1.506,-1.506,-1.4879,-1.437,-1.3426,-1.3354,-1.3174,-1.2696,-1.2351,-1.1985,-1.1608,-1.1155,-1.0802,-1.0631,-1.1667,-1.2491,-1.3009,-1.4162,-1.4963,-1.542,-1.5762,-1.6397,-1.7281,-1.8272,-1.9202,-2.0038,-1.9971,-1.941,-1.8321,-1.5581,-1.4212,-1.3757,-1.2642,-1.2218,-1.2225,-1.2278,-1.215,-1.1922,-1.1087,-1.0634,-1.034,-0.9367,-0.8466,-0.8038,-0.9111,-0.9554,-0.987,-1.0947,-1.1961,-1.2605,-1.2365,-1.2305,-1.2305,-1.2305,-1.215,-1.1774,-1.0932,-1.0634,-1.0265,-0.9448,-0.9965,-1.049,-1.049,-1.1168,-1.1471,-1.0864,-0.997,-0.8922,-0.7936,-0.6945,-0.6338,-0.6338,-0.6285,-0.6424,-0.6719,-0.693,-0.6097,-0.3749,-0.1368,-0.0,-0.0,-0.0,-0.0,-0.0,-0.0,-0.0,-0.0,0.2219,0.4342,0.6385,0.4726,0.5331,-0.0,-0.0,-0.0743,-0.3766,-0.467,-0.4863,0.0,-0.5788,-0.6617,-0.7021,-0.7986,-0.9109,-0.9991,-1.1074,-1.1873,-1.1888,-1.2489,-1.2864,-1.283,-1.2338,-1.2007,-1.2007,-1.2771,-1.3041,-1.2321,-1.2512,-1.2364,-1.1562,-1.1699,-1.1505,-1.0744,-1.0651,-1.0658,-1.0624,-1.1442,-1.2243,-1.3009,-1.383,-1.4675,-1.541,-1.5459,-1.5886,-1.6633,-1.726,-1.7999,-1.8679,-1.8409,-1.753,-1.6236,-1.4745,-1.3733,-1.2946,-1.2206,-1.1917,-1.1951,-1.2204,-1.1694,-1.0938,-1.0858,-1.019,-0.9296,-0.8313,-0.7859,-0.8016,-0.9022,-0.9332,-0.9711,-1.1596,-1.2271,-1.2345,-1.2311,-1.2305,-1.2305,-1.2305,-1.162,-1.0932,-1.0783,-1.0115,-0.9448,-0.9296,-0.9372,-0.9448,-0.9448,-0.9599,-0.9895,-1.0708,-0.997,-0.8922,-0.7936,-0.6945,-0.6338,-0.6338,-0.6373,-0.6573,-0.6878,-0.6984,-0.6088,-0.3749,-0.1367,-0.0,-0.0,-0.0,-0.0,-0.0,-0.0,-0.0,-0.0,0.0303,0.0606,0.0909,0.2988,0.4189,0.1273,0.0655,-0.0358,-0.1898,-0.3722,-0.5102,-0.5122,-0.6174,-0.7395,-0.7985,-0.886,-0.9586,-0.9827,-0.988,-1.0246,-1.1137,-1.112,-1.1184,-1.1853,-1.1664,-1.1117,-1.0001,-1.0378,-1.0637,-1.0424,-1.09,-1.0925,-1.0053,-1.0347,-1.0606,-1.0604,-1.0401,-1.0381,-1.0618,-1.1406,-1.2205,-1.3009,-1.3786,-1.4628,-1.541,-1.541,-1.5584,-1.5874,-1.6566,-1.7052,-1.7291,-1.6698,-1.589,-1.487,-1.3531,-1.2672,-1.2265,-1.1957,-1.1397,-1.0872,-1.1906,-1.1694,-1.0714,-1.0115,-0.9291,-0.8237,-0.7253,-0.6945,-0.7249,-0.8846,-0.9296,-0.975,-1.17,-1.2305,-1.2305,-1.2305,-1.2305,-1.2305,-1.2305,-1.1539,-1.0634,-1.004,-0.914,-0.8237,-0.7633,-0.8012,-0.8466,-0.8466,-0.8917,-0.9221,-0.9059,-0.8689,-0.8084,-0.7022,-0.6567,-0.6291,-0.6376,-0.6515,-0.6695,-0.6909,-0.6991,-0.6723,-0.5733,-0.2096,-0.0,-0.0,-0.0,0.1485,0.4549,0.1615,0.0807,0.2314,0.0807,-0.0,-0.0,0.112,0.166,0.2834,0.2075,0.1022,0.0121,-0.2162,-0.4287,-0.4744,-0.5949,-0.7171,-0.7833,-0.8551,-0.9091,-0.9091,-0.8669,-0.8657,-0.9799,-0.9431,-0.9356,-1.0191,-1.0187,-0.9642,-0.8331,-0.8568,-0.8664,-0.8333,-0.9026,-0.9289,-0.8819,-0.9223,-0.98,-1.0414,-1.0314,-1.0458,-1.0919,-1.1717,-1.2512,-1.3312,-1.4154,-1.4815,-1.541,-1.541,-1.541,-1.541,-1.5921,-1.6083,-1.5843,-1.5226,-1.4455,-1.3433,-1.2523,-1.1728,-1.1094,-1.1268,-1.0571,-0.9616,-1.0851,-1.0745,-0.9884,-0.9145,-0.8237,-0.7249,-0.6567,-0.6338,-0.6641,-0.8389,-0.8917,-0.9221,-1.095,-1.17,-1.1848,-1.1545,-1.1848,-1.215,-1.1626,-1.0944,-1.0115,-0.9069,-0.8084,-0.7176,-0.6412,-0.6868,-0.7403,-0.7403,-0.8012,-0.8237,-0.748,-0.7403,-0.7099,-0.6416,-0.6295,-0.6376,-0.6519,-0.6671,-0.6824,-0.6973,-0.7007,-0.7101,-0.7158,-0.331,-0.0657,-0.0,-0.0,0.2489,0.7918,0.4144,0.2821,0.4016,0.2819,0.1813,0.1105,0.1107,0.1131,0.4426,0.4394,0.3578,0.0407,-0.1349,-0.2726,-0.4412,-0.5521,-0.622,-0.628,-0.6942,-0.7542,-0.7542,-0.7542,-0.7537,-0.7596,-0.7354,-0.7208,-0.7254,-0.6949,-0.6778,-0.6925,-0.77,-0.7687,-0.6263,-0.6868,-0.7608,-0.8208,-0.8705,-0.9364,-1.0066,-1.0394,-1.0982,-1.1772,-1.2512,-1.3364,-1.4154,-1.4932,-1.5352,-1.541,-1.541,-1.541,-1.541,-1.541,-1.4991,-1.4264,-1.4264,-1.3356,-1.1896,-1.1841,-1.0843,-0.9426,-0.9634,-0.9259,-0.8461,-0.8762,-0.8481,-0.7855,-0.7859,-0.7173,-0.6338,-0.6338,-0.6338,-0.649,-0.7557,-0.7859,-0.8084,-0.9069,-1.0115,-1.0634,-0.9674,-1.0875,-1.1774,-0.9825,-0.9372,-0.9069,-0.8084,-0.7022,-0.6338,-0.6338,-0.6338,-0.6338,-0.6338,-0.6338,-0.6416,-0.6338,-0.6338,-0.6338,-0.6338,-0.638,-0.6525,-0.6678,-0.6831,-0.698,-0.7122,-0.7139,-0.7214,-0.7387,-0.4975,-0.2487,-0.0098,-0.0,0.2522,0.7922,0.7818,0.6472,0.4016,0.6553,0.645,0.3915,0.3915,0.4099,0.5318,0.4858,0.3986,0.1867,0.0293,-0.1412,-0.3997,-0.4857,-0.5208,-0.5672,-0.6651,-0.7404,-0.7404,-0.714,-0.692,-0.6885,-0.6068,-0.5567,-0.6229,-0.646,-0.6723,-0.7002,-0.7386,-0.7448,-0.7057,-0.7518,-0.7871,-0.7865,-0.8217,-0.9073,-1.0381,-1.0847,-1.1148,-1.1322,-1.2696,-1.3535,-1.3825,-1.4582,-1.5137,-1.541,-1.541,-1.541,-1.5352,-1.4874,-1.4451,-1.4145,-1.3053,-1.232,-1.1703,-1.0584,-0.9837,-0.9297,-0.8942,-0.8223,-0.7432,-0.7701,-0.722,-0.6552,-0.7327,-0.6999,-0.6338,-0.6338,-0.6338,-0.649,-0.748,-0.7783,-0.8008,-0.8998,-0.9523,-0.9895,-1.019,-1.0789,-1.1168,-1.049,-0.982,-0.8993,-0.8008,-0.7022,-0.6338,-0.6338,-0.6338,-0.6338,-0.6338,-0.6338,-0.6291,-0.6386,-0.6403,-0.6403,-0.6403,-0.6532,-0.6681,-0.6834,-0.6898,-0.6987,-0.7129,-0.7139,-0.7217,-0.7394,-0.6695,-0.4413,-0.0195,-0.0,0.1714,0.5238,0.7089,0.7588,0.6628,0.7566,0.7575,0.6648,0.6842,0.7082,0.5651,0.5023,0.414,0.259,0.1093,-0.0634,-0.312,-0.4082,-0.4618,-0.5062,-0.5791,-0.6014,-0.4976,-0.4491,-0.4336,-0.471,-0.4039,-0.3871,-0.5206,-0.5932,-0.6428,-0.6769,-0.7384,-0.7719,-0.7705,-0.8173,-0.8358,-0.8039,-0.8333,-0.9191,-1.0787,-1.0863,-1.1219,-1.198,-1.239,-1.2893,-1.342,-1.4073,-1.464,-1.4991,-1.4991,-1.4815,-1.451,-1.4034,-1.3606,-1.3295,-1.2258,-1.1648,-1.1288,-0.9901,-0.9139,-0.8765,-0.8047,-0.7239,-0.6388,-0.6563,-0.6231,-0.5816,-0.6611,-0.6563,-0.6179,-0.6179,-0.6217,-0.6416,-0.7099,-0.7249,-0.7403,-0.8008,-0.8466,-0.8841,-0.9135,-0.9734,-1.0115,-0.9357,-0.8988,-0.8466,-0.748,-0.6718,-0.6338,-0.6338,-0.6338,-0.6338,-0.6338,-0.6302,-0.6386,-0.6532,-0.66,-0.6617,-0.6559,-0.6688,-0.682,-0.6919,-0.6973,-0.7041,-0.7132,-0.7108,-0.7212,-0.7376,-0.7452,-0.6034,-0.2965,-0.1002,0.131,0.3915,0.6667,0.7989,0.8038,0.7962,0.7969,0.7965,0.8333,0.8491,0.5542,0.5066,0.4193,0.2679,0.1169,-0.039,-0.1783,-0.3357,-0.4494,-0.4425,-0.4317,-0.3411,-0.0555,0.0111,-0.0056,-0.1057,-0.1393,-0.2178,-0.416,-0.5266,-0.6005,-0.6254,-0.7661,-0.8451,-0.8174,-0.872,-0.8974,-0.8729,-0.8866,-0.9663,-1.1175,-1.053,-1.1167,-1.3371,-1.1793,-1.1599,-1.2996,-1.3458,-1.3856,-1.4118,-1.4118,-1.3708,-1.3009,-1.2948,-1.2512,-1.1834,-1.1772,-1.1288,-1.0498,-0.9594,-0.8742,-0.7832,-0.6981,-0.6141,-0.5428,-0.5428,-0.5454,-0.5599,-0.5742,-0.5895,-0.603,-0.603,-0.6135,-0.6338,-0.6338,-0.6338,-0.6338,-0.6338,-0.7022,-0.748,-0.6644,-0.7783,-0.877,-0.6795,-0.7099,-0.7553,-0.649,-0.6338,-0.6338,-0.6338,-0.6345,-0.6274,-0.6281,-0.6403,-0.6546,-0.6692,-0.6844,-0.6885,-0.6732,-0.6848,-0.6943,-0.6943,-0.7061,-0.7143,-0.7143,-0.7118,-0.7089,-0.7221,-0.7112,-0.7372,-0.8019,-0.2827,0.1209,0.3715,0.6553,0.7972,0.8041,0.8038,0.8038,0.8041,0.8208,0.8353,0.6475,0.5946,0.5305,0.4203,0.1953,-0.0112,-0.0502,-0.2631,-0.4163,-0.3016,-0.1895,-0.089,-0.0167,0.1991,0.3485,0.302,0.0471,-0.1913,-0.3,-0.4687,-0.6187,-0.7176,-0.8061,-0.8939,-0.9857,-1.0103,-1.0158,-1.0086,-0.9383,-0.9513,-1.0733,-1.0945,-1.1108,-1.1435,-1.1367,-1.1552,-1.1882,-1.2321,-1.2706,-1.3024,-1.3024,-1.2991,-1.3009,-1.2389,-1.202,-1.1772,-1.117,-1.0421,-0.9594,-0.8678,-0.7827,-0.6915,-0.6075,-0.5624,-0.5428,-0.5428,-0.5452,-0.544,-0.5593,-0.5813,-0.603,-0.603,-0.6135,-0.6338,-0.6338,-0.6338,-0.6338,-0.6338,-0.649,-0.6795,-0.7326,-0.7783,-0.8084,-0.7557,-0.7629,-0.7553,-0.649,-0.6338,-0.6338,-0.6338,-0.6346,-0.6454,-0.6569,-0.6712,-0.6824,-0.6865,-0.6993,-0.695,-0.6813,-0.6927,-0.7027,-0.7034,-0.7068,-0.7088,-0.7088,-0.7138,-0.6343,-0.4647,-0.6131,-0.7372,-0.8019,-0.2827,0.0303,0.1005,0.5641,0.7982,0.7965,0.8048,0.8038,0.8045,0.8306,0.8445,0.6308,0.5719,0.5136,0.4657,0.274,0.0781,0.0167,-0.1286,-0.2298,-0.1394,0.0501,0.1953,0.1949,0.3561,0.4841,0.4786,0.2165,-0.0428,-0.1962,-0.4159,-0.6002,-0.7026,-0.8066,-0.9059,-0.9939,-1.0253,-1.0367,-1.0367,-0.9949,-1.0118,-1.1101,-1.0799,-1.0813,-1.1182,-1.0655,-1.0576,-1.1046,-1.1309,-1.1535,-1.1888,-1.1974,-1.1921,-1.1692,-1.141,-1.1288,-1.1226,-1.0421,-0.9722,-0.9204,-0.7962,-0.7111,-0.6588,-0.5752,-0.5428,-0.5428,-0.5428,-0.5428,-0.5439,-0.546,-0.5684,-0.5939,-0.601,-0.6135,-0.6338,-0.6338,-0.6338,-0.6338,-0.6338,-0.6338,-0.6416,-0.7022,-0.7176,-0.7176,-0.7176,-0.7176,-0.7022,-0.6416,-0.6338,-0.6278,-0.6342,-0.6471,-0.662,-0.6773,-0.6871,-0.6953,-0.6937,-0.7017,-0.7044,-0.6987,-0.7041,-0.6723,-0.5644,-0.5552,-0.5573,-0.5536,-0.6498,-0.6541,-0.5209,-0.443,-0.41,-0.4446,-0.1615,-0.0,-0.0,0.2917,0.5639,0.7972,0.7959,0.8048,0.8045,0.8343,0.8482,0.5814,0.5113,0.4522,0.449,0.3357,0.1896,0.0837,0.0615,0.056,0.0334,0.2516,0.4504,0.4484,0.4716,0.4951,0.5097,0.3575,0.1541,-0.0927,-0.3513,-0.5417,-0.6207,-0.7638,-0.8765,-0.9064,-0.9513,-0.9784,-0.9879,-1.017,-1.0677,-1.1461,-1.0321,-1.0215,-1.1423,-0.9746,-0.9291,-1.024,-1.0247,-1.0404,-1.0676,-1.0894,-1.0671,-1.0127,-1.0381,-1.0584,-1.0555,-0.9658,-0.921,-0.9011,-0.7372,-0.6654,-0.6461,-0.5686,-0.5428,-0.5428,-0.5428,-0.5428,-0.5432,-0.5452,-0.5572,-0.5823,-0.5956,-0.6118,-0.6338,-0.6338,-0.6338,-0.6338,-0.6338,-0.6338,-0.6338,-0.6338,-0.6338,-0.6338,-0.6338,-0.6338,-0.6338,-0.6338,-0.6352,-0.6335,-0.6502,-0.6641,-0.678,-0.6929,-0.6956,-0.7007,-0.7064,-0.7084,-0.7098,-0.7131,-0.7111,-0.61,-0.3406,-0.3138,-0.3165,-0.3139,-0.502,-0.6198,-0.6206,-0.2299,-0.0,-0.0,-0.0,-0.0,-0.0,-0.0,0.2512,0.7459,0.7869,0.7962,0.8045,0.8343,0.8482,0.6421,0.5496,0.4522,0.449,0.3357,0.2458,0.3482,0.3713,0.337,0.2065,0.3241,0.4484,0.448,0.5099,0.549,0.5182,0.41,0.2475,0.0065,-0.2303,-0.4264,-0.5462,-0.684,-0.7762,-0.7985,-0.8078,-0.8343,-0.8812,-0.8901,-0.9282,-1.0003,-0.9556,-0.9309,-0.9326,-0.9017,-0.8884,-0.9083,-0.9083,-0.9241,-0.9479,-0.9527,-0.9755,-1.0114,-1.0167,-1.0327,-1.0555,-0.9658,0.0,-0.8156,-0.7111,-0.6268,-0.5624,-0.5425,-0.5428,-0.5428,-0.5428,-0.5428,-0.5446,-0.5504,-0.5661,-0.5803,-0.5833,-0.603,-0.6338,-0.6338,-0.6338,-0.6338,-0.6338,-0.6338,-0.6338,-0.6338,-0.6338,-0.6338,-0.6338,-0.6338,-0.6338,-0.6338,-0.6352,-0.6519,-0.6797,-0.6871,-0.6936,-0.7078,-0.7102,-0.7031,-0.7078,-0.7084,-0.7098,-0.7131,-0.7131,-0.543,-0.1101,-0.0643,-0.0649,-0.0662,-0.0965,-0.1272,-0.1276,-0.05,-0.0,-0.0,-0.0,-0.0,-0.0,-0.0,0.1507,0.472,0.6951,0.7962,0.8045,0.8343,0.8482,0.6231,0.5411,0.4831,0.4591,0.3544,0.2732,0.3181,0.3931,0.4271,0.3522,0.3968,0.4477,0.4525,0.5204,0.5748,0.5498,0.483,0.3781,0.2173,-0.0259,-0.2263,-0.3246,-0.5166,-0.6404,-0.6362,-0.7012,-0.76,-0.7786,-0.8,-0.8614,-0.9666,-0.9406,-0.905,-0.8818,-0.8804,-0.8804,-0.8804,-0.8804,-0.8878,-0.9018,-0.911,-0.9329,-0.9673,-0.998,-0.9942,-0.9631,-0.8942,-0.8156,-0.7242,-0.64,-0.5749,-0.5428,-0.5428,-0.5428,-0.5428,-0.5428,-0.5413,-0.5491,-0.5562,-0.5735,-0.5922,-0.5922,-0.6074,-0.6338,-0.6338,-0.6338,-0.6338,-0.6338,-0.6338,-0.6338,-0.6338,-0.6338,-0.6338,-0.6338,-0.6318,-0.6393,-0.6471,-0.661,-0.6676,-0.6823,-0.692,-0.6997,-0.7068,-0.7078,-0.7084,-0.7108,-0.7111,-0.7121,-0.7058,-0.7125,-0.5238,-0.0554,-0.0,-0.0,-0.0,-0.0,-0.0,-0.0,-0.0,-0.0,-0.0,-0.0,-0.0,-0.0,-0.0,0.1308,0.4016,0.6651,0.8009,0.8167,0.8381,0.8523,0.6556,0.5897,0.5593,0.4669,0.3862,0.3235,0.2773,0.3638,0.4546,0.4695,0.4691,0.4746,0.4901,0.5617,0.6176,0.605,0.5914,0.5528,0.4721,0.2287,0.0396,-0.0207,-0.285,-0.4492,-0.4373,-0.5803,-0.6714,-0.6572,-0.7122,-0.8063,-0.9416,-0.9105,-0.8767,-0.8593,-0.8586,-0.8586,-0.8586,-0.8586,-0.8586,-0.8593,-0.893,-0.8984,-0.8827,-0.9446,-0.9339,-0.8578,-0.8009,-0.7307,-0.6654,-0.5752,-0.5428,-0.5428,-0.5428,-0.5428,-0.5428,-0.5428,-0.5457,-0.5589,-0.5589,-0.5783,-0.603,-0.603,-0.6135,-0.6338,-0.6338,-0.6338,-0.6338,-0.6338,-0.6338,-0.6338,-0.6338,-0.6338,-0.6345,-0.6298,-0.6393,-0.6529,-0.6712,-0.677,-0.6608,-0.6195,-0.6204,-0.637,-0.637,-0.637,-0.656,-0.7042,-0.7135,-0.6697,-0.5729,-0.5552,-0.4116,-0.0375,-0.0,-0.0,-0.0,-0.0,0.0497,0.1614,0.1716,0.1413,0.0908,0.0806,0.0806,0.0806,0.0806,0.2214,0.4822,0.6959,0.815,0.8275,0.8418,0.8564,0.8586,0.7893,0.6876,0.4779,0.43,0.4368,0.4298,0.4421,0.4695,0.5277,0.5382,0.5601,0.6258,0.7036,0.7389,0.6874,0.7549,0.7859,0.7164,0.5186,0.3762,0.358,0.0344,-0.1878,-0.1856,-0.3747,-0.497,-0.475,-0.5982,-0.7365,-0.8831,-0.8205,-0.78,-0.7777,-0.7777,-0.7777,-0.7777,-0.7777,-0.7777,-0.783,-0.8506,-0.8337,-0.7495,-0.8251,-0.8404,-0.7996,-0.7167,-0.6785,0.0,-0.5752,-0.5428,-0.5428,-0.5428,-0.5428,-0.5428,-0.5428,-0.5457,-0.5589,-0.5589,-0.5783,-0.603,-0.603,-0.6135,-0.6338,-0.6338,-0.6338,-0.6338,-0.6338,-0.6338,-0.6338,-0.6338,-0.6338,-0.6291,-0.6424,-0.6394,-0.6413,-0.6691,-0.6774,-0.6127,-0.4261,-0.3922,-0.3929,-0.3929,-0.3929,-0.4654,-0.6767,-0.7135,-0.553,-0.1197,-0.0657,-0.0479,-0.0,-0.0,-0.0,-0.0,-0.0,0.2116,0.6995,0.7302,0.6165,0.3717,0.3615,0.3615,0.3615,0.3615,0.4924,0.7666,0.7872,0.8143,0.8275,0.8418,0.8564,1.0049,0.8926,0.7833,0.6473,0.5872,0.5668,0.5747,0.5782,0.5832,0.6095,0.6145,0.6253,0.6534,0.754,0.8256,0.8033,0.8667,0.9269,0.9413,0.8348,0.721,0.6392,0.3632,0.168,0.1257,-0.1233,-0.3278,-0.4395,-0.5003,-0.5941,-0.7396,-0.7182,-0.702,-0.702,-0.702,-0.702,-0.702,-0.702,-0.702,-0.702,-0.7343,-0.728,-0.6905,-0.738,-0.7328,-0.6768,-0.6569,-0.6298,0.0,-0.5557,-0.5428,-0.5428,-0.5428,-0.5428,-0.5439,-0.5464,-0.5593,-0.5732,-0.5823,-0.5993,-0.6169,-0.6169,-0.621,-0.6338,-0.6338,-0.6338,-0.6338,-0.6338,-0.6338,-0.6338,-0.6338,-0.6268,-0.6332,-0.6491,-0.6558,-0.6222,-0.5075,-0.594,-0.6694,-0.5833,-0.3406,-0.1433,-0.1433,-0.1433,-0.1792,-0.2694,-0.2785,-0.2171,-0.0277,-0.0,-0.0,-0.0,-0.0,-0.0,-0.0,-0.0,0.2322,0.7613,0.8026,0.7497,0.6453,0.645,0.645,0.645,0.645,0.6956,0.7972,0.7972,0.8187,0.8397,0.8455,0.8615,1.1967,1.0694,0.9536,0.862,0.7739,0.7056,0.6913,0.674,0.6691,0.7111,0.7219,0.7374,0.7741,0.8822,0.9592,0.9592,1.034,1.1206,1.1993,1.1624,1.0877,0.988,0.741,0.5241,0.3855,0.0862,-0.1715,-0.3671,-0.4265,-0.4916,-0.5941,-0.5991,-0.6095,-0.6258,-0.6258,-0.6258,-0.6258,-0.6258,-0.6258,-0.6258,-0.648,-0.6439,-0.6117,-0.6544,-0.6401,-0.5852,-0.6038,-0.5841,0.0,-0.5428,-0.5428,-0.5428,-0.5428,-0.5428,-0.5449,-0.5535,-0.5681,-0.5823,-0.5976,-0.6132,-0.6338,-0.6338,-0.6338,-0.6338,-0.6338,-0.6338,-0.6338,-0.6338,-0.6264,-0.6268,-0.6268,-0.6308,-0.6172,-0.5661,-0.6095,-0.6196,-0.4889,-0.4848,-0.5041,-0.5041,-0.2336,-0.0,-0.0,-0.0,-0.0,-0.0,-0.0,-0.0,-0.0,-0.0,-0.0,-0.0,-0.0,-0.0,-0.0,0.1414,0.3635,0.6676,0.7598,0.7999,0.7975,0.7975,0.7975,0.7975,0.7975,0.7972,0.7962,0.8109,0.8252,0.8482,0.8526,0.8689,1.4643,1.3621,1.2445,1.1038,0.9658,0.8462,0.7764,0.7101,0.7009,0.837,0.8678,0.9096,1.0501,1.1282,1.1653,1.1653,1.2921,1.4145,1.5002,1.5009,1.4804,1.4622,1.1682,0.8518,0.5678,0.2374,-0.0351,-0.2107,-0.3642,-0.448,-0.4532,-0.4522,-0.4842,-0.5487,-0.5487,-0.5487,-0.5487,-0.5487,-0.5487,-0.5542,-0.6253,-0.6032,-0.4914,-0.5691,-0.5817,-0.5422,-0.5425,-0.5425,0.0,-0.5428,-0.5428,-0.5428,-0.5428,-0.5428,-0.5449,-0.5535,-0.5681,-0.5823,-0.5976,-0.6132,-0.6338,-0.6338,-0.6338,-0.6338,-0.6338,-0.6338,-0.6338,-0.6338,-0.6271,-0.6278,-0.6278,-0.6317,-0.5728,-0.3667,-0.4789,-0.6415,-0.6923,-0.3414,-0.009,-0.009,-0.0,-0.0,-0.0,-0.0,-0.0,-0.0,-0.0,-0.0,-0.0,-0.0,-0.0,-0.0,-0.0,-0.0,-0.0,0.4855,0.6779,0.4218,0.6545,0.7962,0.8041,0.8038,0.8038,0.8038,0.8038,0.8038,0.8038,0.8194,0.8343,0.8486,0.8635,0.8791,1.6393,1.5189,1.3832,1.3408,1.2011,1.0689,1.0471,0.9944,0.9614,1.0033,1.0136,1.0383,1.1273,1.1966,1.2832,1.3983,1.4972,1.6225,1.8109,1.798,1.7708,1.7767,1.2893,0.844,0.5665,0.2225,-0.0,-0.041,-0.2965,-0.4501,-0.449,-0.448,-0.4581,-0.4787,-0.4842,-0.4842,-0.4842,-0.4842,-0.4842,-0.4842,-0.5062,-0.5016,-0.4762,-0.4994,-0.5165,-0.5203,-0.5203,-0.5267,-0.5372,-0.5372,-0.5379,-0.5386,-0.5386,-0.5386,-0.5416,-0.5457,-0.5578,-0.5871,-0.6122,-0.6244,-0.6285,-0.6285,-0.6285,-0.6285,-0.6285,-0.6274,-0.6264,-0.6271,-0.6274,-0.5983,-0.4468,-0.5178,-0.6106,-0.5469,-0.3633,-0.2013,-0.2236,-0.1078,-0.0,-0.0,-0.0,-0.0,-0.0,-0.0,-0.0,-0.0,-0.0,-0.0,-0.0,-0.0,-0.0,-0.0,-0.0,-0.0,-0.0,0.4956,0.7601,0.6759,0.7566,0.7962,0.8041,0.8038,0.8038,0.8038,0.8038,0.8038,0.8038,0.8089,0.8238,0.8489,0.8747,0.8893,1.7799,1.6687,1.5528,1.5528,1.4122,1.2762,1.2762,1.1929,1.124,1.1499,1.1358,1.1358,1.2052,1.2918,1.392,1.5191,1.6478,1.8133,2.0248,2.0827,2.0657,1.9784,1.4928,1.0263,0.6604,0.3703,0.1519,0.0358,-0.1663,-0.3312,-0.4445,-0.3922,-0.3913,-0.4477,-0.4522,-0.4519,-0.4519,-0.4577,-0.4577,-0.4519,-0.4579,-0.4684,-0.4779,-0.483,-0.4989,-0.5216,-0.5223,-0.5284,0.0,-0.4631,-0.4364,-0.437,-0.437,-0.437,-0.4397,-0.4359,-0.4517,-0.47,-0.5013,-0.5096,-0.5096,-0.5096,-0.5096,-0.5096,-0.5096,-0.5646,-0.6274,-0.6285,-0.6291,-0.6012,-0.4686,-0.4095,-0.3918,-0.3886,-0.1926,-0.0,-0.0,-0.0,-0.0,-0.0,-0.0,-0.0,-0.0,0.1527,0.2695,0.2695,0.2007,0.1487,0.1518,0.1549,0.148,0.1508,0.1511,0.1511,0.1511,0.4537,0.6874,0.7982,0.7969,0.7955,0.8038,0.8038,0.8038,0.8038,0.8038,0.8038,0.8038,0.815,0.833,0.8574,0.8821,0.894,0.0,1.8051,1.7261,1.7301,1.5985,1.4676,1.4631,1.3273,0.0,1.2812,1.2434,1.2236,1.2988,1.4005,1.4944,1.5598,1.7603,1.9699,2.1665,2.3412,2.3568,2.0954,1.7645,1.3501,0.8356,0.6366,0.3969,0.0429,0.0058,-0.123,-0.4054,-0.291,-0.2907,-0.4442,-0.4418,-0.4405,-0.4519,-0.4606,-0.4606,-0.4522,-0.4762,-0.4908,-0.4925,-0.5067,-0.5216,-0.5432,-0.5376,-0.5379,-0.5246,-0.3551,-0.2744,-0.2477,-0.2477,-0.2477,-0.2495,-0.2493,-0.254,-0.256,-0.2766,-0.289,-0.289,-0.289,-0.2968,-0.3125,-0.3125,-0.4465,-0.6132,-0.6295,-0.6322,-0.6218,-0.5953,-0.2907,-0.0,-0.0,-0.0,-0.0,-0.0,-0.0,-0.0,-0.0,-0.0,0.009,0.0449,0.4137,0.7141,0.7148,0.5491,0.428,0.4273,0.4261,0.4241,0.431,0.4318,0.4318,0.4318,0.4318,0.5327,0.7869,0.7952,0.8038,0.8038,0.8038,0.8038,0.8038,0.8038,0.8038,0.8038,0.8336,0.8557,0.8699,0.8862,0.894,1.8263,0.0,1.7999,1.8391,1.7518,1.646,0.0,1.526,1.454,1.4297,0.0,1.4253,1.5092,1.5224,1.5686,1.7366,1.8663,2.0308,2.2709,2.5109,2.5457,2.2286,1.9018,1.5126,1.0053,0.7053,0.4486,0.2256,0.0802,-0.0336,-0.1009,-0.179,-0.2914,-0.4452,-0.3357,-0.3292,-0.4477,-0.4511,-0.4507,-0.4519,-0.4653,-0.475,-0.4813,-0.5014,-0.5233,-0.5386,-0.5389,-0.5396,-0.5336,-0.4928,-0.3163,-0.0605,-0.0605,-0.0605,-0.0609,-0.0643,-0.0655,-0.066,-0.0694,-0.0706,-0.0706,-0.0706,-0.1804,-0.3064,-0.3064,-0.3448,-0.4226,-0.5833,-0.6327,-0.5546,-0.2326,-0.0765,-0.0,-0.0,-0.0,-0.0,-0.0,-0.0,-0.0,-0.0,-0.0,0.1168,0.477,0.6314,0.7171,0.7458,0.7028,0.6875,0.7015,0.7045,0.7033,0.7062,0.7065,0.7062,0.7054,0.7054,0.7359,0.7972,0.7952,0.8038,0.8038,0.8038,0.8038,0.8038,0.8038,0.8038,0.8038,0.8336,0.8503,0.854,0.8811,0.894,1.7666,1.8313,1.8987,1.9315,1.892,1.8357,1.8071,1.6914,1.5835,0.0,0.0,1.4933,1.5646,1.5686,1.6001,1.7121,1.8063,1.976,2.3044,2.5127,2.5329,2.2647,1.99,1.6084,1.0659,0.786,0.5065,0.1815,-0.0683,-0.1737,-0.1062,-0.1118,-0.1566,-0.241,-0.2294,-0.2627,-0.3463,-0.4151,-0.4495,-0.448,-0.471,-0.4796,-0.4826,-0.4246,-0.4032,-0.4231,-0.5055,-0.5406,-0.5276,-0.3574,-0.1751,-0.0,-0.0,-0.0,-0.0,-0.0,-0.0,-0.0,-0.0,-0.0,-0.0,-0.0,-0.0786,-0.165,-0.165,-0.1647,-0.1884,-0.3105,-0.3388,-0.2873,-0.0594,-0.0,-0.0,-0.0,-0.0,-0.0,-0.0,-0.0,0.0721,0.3185,0.3438,0.3796,0.5435,0.6518,0.7356,0.7588,0.7634,0.7753,0.7938,0.7977,0.7965,0.7965,0.7965,0.7965,0.7959,0.7959,0.7959,0.7959,0.8045,0.8038,0.8038,0.8038,0.8038,0.8038,0.8038,0.8038,0.8038,0.8336,0.8482,0.8489,0.8798,0.894,1.718,1.8591,1.9893,1.9785,1.9966,2.0121,1.994,0.0,0.0,0.0,0.0,0.0,1.5916,1.5875,0.0,1.5355,1.5444,1.6809,2.0471,2.1888,2.2007,2.0512,1.836,1.4964,0.9682,0.7661,0.4883,0.0579,-0.2891,-0.4154,-0.2625,-0.1393,-0.0557,-0.0335,-0.1568,-0.2073,-0.184,-0.3166,-0.3932,-0.4132,-0.4375,-0.4631,-0.481,-0.3673,-0.2815,-0.2345,-0.3907,0.0,-0.4319,-0.128,-0.0,-0.0,-0.0,-0.0,-0.0,-0.0,-0.0,-0.0,-0.0,-0.0,-0.0,-0.0,-0.0,-0.0,-0.0,-0.0,-0.0,-0.0,-0.0,-0.0,-0.0,-0.0,-0.0,-0.0,-0.0,0.018,0.0898,0.1078,0.2351,0.6578,0.7346,0.6687,0.4913,0.6191,0.7485,0.7722,0.7743,0.7821,0.7841,0.796,0.8038,0.8038,0.8038,0.8038,0.8038,0.8038,0.8038,0.8038,0.8038,0.8038,0.8038,0.8038,0.8038,0.8038,0.8062,0.8075,0.8075,0.837,0.8516,0.8523,0.8808,0.894,1.7245,1.8719,1.9908,1.9233,2.024,2.1144,2.0121,0.0,0.0,0.0,0.0,0.0,0.0,1.6231,1.3923,1.1522,0.8554,0.7173,0.8817,1.0448,1.132,1.0919,0.9508,0.7539,0.4873,0.3585,0.2112,0.0168,-0.3883,-0.5635,-0.4206,-0.3956,-0.3224,-0.1896,-0.2065,-0.1619,-0.0335,-0.0561,-0.1309,-0.2563,-0.2609,-0.3326,-0.4577,-0.486,-0.3301,-0.0404,0.0,-0.0808,-0.0808,-0.0202,-0.0,-0.0,-0.0,-0.0,-0.0,-0.0,-0.0,-0.0,-0.0,-0.0,-0.0,-0.0,-0.0,-0.0,-0.0,-0.0,-0.0,-0.0,-0.0,-0.0,-0.0,-0.0,-0.0,-0.0,-0.0,0.1078,0.5133,0.6039,0.5705,0.4785,0.6374,0.7728,0.7208,0.7409,0.7725,0.7763,0.7797,0.7858,0.7987,0.8024,0.8038,0.8038,0.8038,0.8038,0.8038,0.8038,0.8038,0.8038,0.8038,0.8038,0.8038,0.8038,0.8038,0.8038,0.8167,0.8235,0.8235,0.853,0.8676,0.8679,0.8855,0.894,1.6848,1.8186,1.9475,1.9091,2.0633,2.2006,2.1092,0.0,0.0,0.0,0.0,0.0,0.0,1.4474,0.8718,0.2147,-0.0803,-0.1592,0.0318,0.2307,0.3811,0.4333,0.3981,0.2966,0.1089,0.0665,-0.0334,-0.2252,-0.5245,-0.6455,-0.5132,-0.4721,-0.4168,-0.3463,-0.3466,-0.3132,-0.246,-0.0837,-0.0338,-0.103,-0.1023,-0.1365,-0.2085,-0.2377,-0.1549,-0.0,0.0,-0.0,-0.0,-0.0,-0.0,-0.0,-0.0,0.1391,0.3405,0.3383,0.2699,0.167,0.1708,0.1643,0.1643,0.1643,0.1643,0.1643,0.1643,0.1831,0.1955,0.1918,0.1017,-0.0,-0.0,0.1873,0.3866,0.3866,0.2869,0.2506,0.4752,0.6204,0.6879,0.5982,0.6847,0.767,0.7784,0.7723,0.777,0.7913,0.7933,0.796,0.8031,0.8038,0.8038,0.8038,0.8038,0.8038,0.8038,0.8038,0.8038,0.8038,0.8038,0.8038,0.8038,0.8038,0.8038,0.8038,0.8194,0.8272,0.8272,0.9399,0.9452,0.8713,0.9621,0.9699,1.6845,1.7967,1.9155,1.9432,0.0,2.2337,2.2004,0.0,0.0,0.0,0.0,0.0,0.0,1.1251,0.2211,-0.7411,-1.0115,-1.0429,-0.8652,-0.6307,-0.4299,-0.3068,-0.2341,-0.228,-0.3069,-0.3018,-0.3436,-0.4551,-0.6406,-0.6825,-0.5328,-0.4929,-0.4666,-0.4529,-0.4484,-0.449,-0.4494,-0.2235,-0.0676,-0.0,-0.0,-0.0,-0.0,-0.0,-0.0,0.0067,0.0876,0.128,0.1212,0.0808,0.0684,0.0701,0.0701,0.2722,0.5644,0.6132,0.524,0.383,0.383,0.383,0.383,0.383,0.3925,0.3942,0.3942,0.4107,0.4303,0.4378,0.3095,0.1494,0.0982,0.359,0.6394,0.6946,0.5744,0.4378,0.4376,0.5822,0.7151,0.7417,0.7451,0.7539,0.7818,0.7865,0.7906,0.8021,0.8038,0.8038,0.8038,0.8038,0.8038,0.8038,0.8038,0.8038,0.8038,0.8038,0.8038,0.8038,0.8038,0.8038,0.8038,0.8038,0.8058,0.8092,0.8241,0.8543,0.8884,1.0314,1.0357,0.9298,1.0933,1.0781,1.7796,1.8571,1.9349,2.0342,2.1193,0.0,2.232,2.1792,0.0,2.05,0.0,0.0,0.0,0.6445,-0.4963,-1.4185,-1.8007,-1.9864,-2.0151,-1.7736,-1.5361,-1.3838,-1.2124,-1.0319,-0.846,-0.8672,-0.7988,-0.5579,-0.6848,-0.6745,-0.468,-0.5109,-0.5164,-0.4519,-0.4519,-0.4525,-0.448,-0.4262,-0.277,-0.0,-0.0,-0.0,-0.0,-0.0,-0.0,0.0202,0.3574,0.5001,0.4864,0.3222,0.2656,0.2863,0.2863,0.3027,0.3543,0.5541,0.6173,0.6054,0.6054,0.6054,0.6054,0.6054,0.6228,0.6425,0.6425,0.6459,0.6509,0.6784,0.6711,0.6091,0.3929,0.3571,0.438,0.6554,0.7012,0.6824,0.6815,0.6996,0.7168,0.7533,0.7587,0.7678,0.7974,0.8024,0.8028,0.8038,0.8038,0.8038,0.8038,0.8038,0.8038,0.8038,0.8038,0.8038,0.8038,0.8038,0.8038,0.8038,0.8038,0.8038,0.8038,0.8038,0.8106,0.8252,0.8394,0.9264,1.0682,1.0987,1.0979,1.0979,1.2502,1.2403,1.7033,1.8118,1.9183,1.9613,0.0,0.0,0.0,2.0452,1.9548,1.7566,1.6486,0.0,0.0,-0.272,-1.1113,-2.1212,-2.4563,-2.5614,-2.4905,-2.2279,-1.9684,-1.7683,-1.5846,-1.3823,-1.1451,-1.063,-0.9321,-0.7058,-0.7257,-0.682,-0.5218,-0.5504,-0.5348,-0.4529,-0.4473,-0.4477,-0.449,-0.4501,-0.3912,-0.2759,-0.0917,-0.0,-0.0,-0.0,0.1212,0.3437,0.4797,0.541,0.5333,0.4643,0.4557,0.483,0.4984,0.5101,0.518,0.5966,0.6311,0.6274,0.6274,0.6274,0.6288,0.6376,0.6524,0.6592,0.6688,0.678,0.686,0.6949,0.7051,0.6894,0.6002,0.5819,0.5997,0.6907,0.7081,0.7071,0.7064,0.7227,0.7329,0.7438,0.7604,0.7767,0.7879,0.7977,0.8038,0.8038,0.8038,0.8038,0.8038,0.8038,0.8038,0.8038,0.8726,0.9217,0.9217,0.9998,1.0386,1.0386,0.892,0.8038,0.8038,0.8133,0.8211,0.8269,0.9433,1.0331,1.0928,1.2832,1.3372,1.2512,1.3911,1.3804,1.6982,1.7935,1.8905,0.0,0.0,0.0,1.9032,1.8598,1.7815,1.5168,1.2999,0.8575,-0.1208,0.0,-1.4299,-2.4143,-2.6953,-2.7554,-2.6549,-2.3861,-2.1317,-1.9558,-1.7457,-1.5326,-1.324,-1.1786,-1.0109,-0.7853,-0.7484,-0.6732,-0.5281,-0.5356,-0.5148,-0.4539,-0.4027,-0.3747,-0.3755,-0.4278,-0.4475,-0.4445,-0.146,-0.0,0.0063,0.1186,0.3032,0.5413,0.5406,0.5396,0.5393,0.5437,0.5633,0.5862,0.6186,0.6281,0.6274,0.6274,0.6268,0.6338,0.6338,0.6338,0.6285,0.6427,0.6505,0.6573,0.6725,0.6875,0.6997,0.6997,0.7065,0.7058,0.7081,0.7081,0.7074,0.7074,0.7064,0.7153,0.7204,0.7295,0.74,0.7492,0.7675,0.7828,0.7875,0.797,0.8038,0.8038,0.8038,0.8137,0.8531,0.8627,0.8825,0.9217,1.0096,1.0583,1.0583,1.1361,1.1945,1.1945,1.019,0.9213,0.9213,0.9485,0.9603,0.9654,1.0871,1.1801,1.2292,1.4366,1.4877,1.4019,1.5417,1.531,1.8008,1.8209,1.8485,0.0,0.0,0.0,1.692,1.6559,1.6074,1.3986,0.973,0.5085,0.0749,-0.6369,-1.4147,-2.2083,-2.462,-2.5504,-2.529,-2.2876,-2.0798,-1.9967,-1.7356,-1.5106,-1.3835,-1.2474,-1.0572,-0.7811,-0.7467,-0.6519,-0.4588,-0.4432,-0.4438,-0.4497,-0.3019,-0.2174,-0.2119,-0.3652,-0.4415,-0.4383,-0.1399,-0.0,0.0129,0.373,0.5413,0.541,0.5389,0.5379,0.5389,0.5535,0.5766,0.6044,0.62,0.6338,0.6338,0.6338,0.6338,0.6338,0.6338,0.6264,0.6285,0.6427,0.6576,0.6729,0.6885,0.7031,0.7139,0.7139,0.7139,0.7139,0.7139,0.7139,0.7139,0.7139,0.7139,0.7183,0.7336,0.7373,0.7461,0.7753,0.7814,0.7862,0.8014,0.8038,0.8038,0.8038,0.8038,0.8528,0.9805,0.9998,1.0485,1.1755,1.195,1.1945,1.1945,1.1945,1.1945,1.1945,1.1945,1.1945,1.1945,1.2261,1.2481,1.2587,1.2914,1.3778,1.5417,1.5417,1.5417,1.5417,1.6929,1.6823,1.762,1.8204,0.0,1.8725,0.0,0.0,0.0,1.6187,0.0,0.0,0.5687,0.1111,-0.2365,-0.9646,-1.6545,-2.0826,-2.2769,-2.3652,-2.3322,-2.1532,-1.986,-1.8764,-1.7193,-1.5576,-1.3882,-1.2445,-1.0731,-0.8533,-0.6475,-0.4615,-0.2956,-0.089,-0.1226,-0.4392,-0.2006,0.0389,0.2517,0.1199,0.058,0.0586,0.1483,0.1212,0.0129,0.3739,0.5423,0.5399,0.5393,0.5382,0.5386,0.5637,0.5854,0.6044,0.62,0.6338,0.6338,0.6338,0.6338,0.6338,0.6338,0.6325,0.6434,0.6583,0.6736,0.6888,0.7034,0.7105,0.7139,0.7139,0.7139,0.7139,0.7139,0.7139,0.7139,0.7139,0.7139,0.7183,0.7336,0.7455,0.7587,0.7773,0.7899,0.7987,0.8031,0.8038,0.8038,0.8038,0.8825,0.9899,1.1165,1.1365,1.1458,1.1848,1.2721,1.3295,1.3295,1.4172,1.4663,1.4663,1.4663,1.3788,1.1945,1.2304,1.2531,1.2592,1.4019,1.491,1.5417,1.6393,1.6935,1.6935,1.7364,1.7364,1.8045,1.8481,0.0,1.9082,1.9606,1.94,1.6587,0.0,0.0,0.0,0.331,-0.0907,-0.4541,-1.0282,-1.5462,-1.8432,-2.0393,-2.1454,-2.1181,-2.0174,-1.8944,-1.7585,-1.6431,-1.5131,-1.3476,-1.2091,-1.0582,-0.8854,-0.6049,-0.3553,-0.1447,0.1505,0.1899,-0.0837,0.0222,0.2062,0.4452,0.3883,0.3669,0.3781,0.3773,0.317,0.223,0.4428,0.5413,0.5396,0.5386,0.541,0.5471,0.5705,0.5891,0.6044,0.62,0.6338,0.6338,0.6338,0.6338,0.6338,0.6338,0.6624,0.7047,0.7275,0.742,0.7462,0.777,0.7492,0.7139,0.7139,0.7401,0.7841,0.7841,0.8185,0.8269,0.7312,0.7187,0.7275,0.7428,0.758,0.7726,0.7875,0.7977,0.8038,0.8038,0.8038,0.8134,0.8726,1.0382,1.1843,1.2624,1.3108,1.3499,1.3499,1.4172,1.4657,1.4657,1.5343,1.5832,1.5832,1.5832,1.5198,1.3739,1.4025,1.4282,1.4384,1.5632,1.628,1.628,1.7147,1.7582,1.7582,1.7582,1.7582,1.9077,0.0,0.0,2.0239,1.9739,0.0,1.5926,1.2166,0.8377,0.5632,0.0,-0.1287,-0.5592,-0.8914,-1.2035,-1.5334,-1.7582,-1.8918,-1.8936,-1.8718,-1.8014,-1.6503,-1.5286,-1.4116,-1.2902,-1.1511,-1.018,-0.8975,-0.5931,-0.2824,0.0223,0.3026,0.4507,0.4497,0.3183,0.3183,0.4605,0.4876,0.5162,0.5456,0.542,0.5377,0.5393,0.5393,0.5393,0.5389,0.5369,0.5514,0.5738,0.588,0.6033,0.6264,0.6503,0.6567,0.6567,0.6567,0.6567,0.6567,0.6567,0.7184,0.8018,0.8447,0.8496,0.8504,0.8953,0.8277,0.7401,0.7401,0.8189,0.9061,0.9061,0.9836,1.0096,0.794,0.7624,0.7777,0.775,0.79,0.8049,0.8107,0.8134,0.8233,0.8333,0.8333,0.8821,1.019,1.242,1.3974,1.407,1.5045,1.5832,1.5832,1.5832,1.5832,1.5832,1.5832,1.5832,1.5832,1.5832,1.5972,1.6299,1.6567,1.6847,1.7141,1.7435,1.7582,1.7582,1.7582,1.7582,1.7582,1.7582,1.7582,2.0671,2.0748,0.0,0.0,2.0323,1.8952,1.6333,1.3084,0.9769,0.6848,0.2936,-0.1029,-0.436,-0.7269,-1.0044,-1.286,-1.4842,-1.6236,-1.6815,-1.6792,-1.6461,-1.5796,-1.4658,-1.3616,-1.2859,-1.1023,-0.9992,-1.0306,-0.5165,-0.0439,0.3317,0.4163,0.4497,0.4497,0.4677,0.5054,0.5584,0.5588,0.5705,0.5892,0.538,0.522,0.5369,0.5386,0.5386,0.5369,0.5428,0.5843,0.6615,0.6855,0.7461,0.8235,0.8529,0.8694,0.8694,0.8694,0.8694,0.8694,0.8694,0.887,0.9198,0.9451,0.9654,0.9843,1.0105,1.0091,0.9831,0.9831,1.0005,1.0269,1.0269,1.0438,1.0569,1.0298,1.0286,1.0021,0.9124,0.921,0.9388,0.9571,0.9608,0.9899,1.0877,1.1072,1.1551,1.2904,1.3584,1.4262,1.5242,1.5635,1.5832,1.5832,1.5832,1.5832,1.5832,1.5832,1.5832,1.5832,1.5832,1.6066,1.6587,1.6673,1.6847,1.7141,1.7435,1.7582,1.7582,1.7582,1.7582,1.7582,1.7582,1.7582,2.1655,0.0,0.0,2.1773,0.0,2.0004,1.7222,1.4536,1.1256,0.6474,0.2587,-0.1056,-0.4522,-0.6519,-0.8281,-1.0289,-1.2195,-1.3511,-1.3987,-1.4489,-1.4424,-1.3342,-1.3193,-1.257,-1.0987,-1.0412,-0.9186,-0.6881,-0.3632,0.0055,0.4268,0.4934,0.5089,0.4959,0.566,0.61,0.6223,0.6397,0.6538,0.6644,0.6509,0.6573,0.6618,0.5771,0.5631,0.6001,0.6001,0.6577,0.7426,0.7794,0.8264,0.8749,0.9165,0.9296,0.9296,0.9296,0.9296,0.9296,0.9296,0.9672,1.0203,1.0641,1.0762,1.093,1.1277,1.1037,1.0611,1.0611,1.095,1.1381,1.1381,1.1821,1.2324,1.2668,1.1925,1.1076,1.0552,1.0663,1.0844,1.0854,1.0877,1.1072,1.175,1.2431,1.3102,1.3776,1.4459,1.5045,1.573,1.5832,1.5832,1.5832,1.5832,1.5832,1.5832,1.5832,1.5832,1.5832,1.5832,1.6092,1.668,1.6707,1.6914,1.7348,1.7508,1.7582,1.7582,1.7582,1.7582,1.7582,1.7582,1.7582,2.2507,0.0,2.2939,2.2741,2.23,0.0,1.8357,1.5874,1.2355,0.6242,0.2216,-0.1381,-0.4974,-0.6133,-0.6903,-0.8193,-0.9302,-1.0175,-1.0515,-1.1323,-1.126,-0.9585,-1.0262,-0.9925,-0.7599,-0.8215,-0.6839,-0.2193,-0.1327,0.0719,0.4787,0.5677,0.5932,0.5679,0.6406,0.6804,0.6804,0.7167,0.7369,0.7415,0.7751,0.7936,0.7937,0.6478,0.6264,0.6954,0.6954,0.7418,0.8257,0.8607,0.8873,0.9157,0.9595,0.9788,0.9825,0.9825,0.9825,0.9825,0.9825,1.034,1.1178,1.1727,1.1902,1.1912,1.2428,1.1986,1.1214,1.1214,1.1901,1.2589,1.2589,1.3417,1.4235,1.4529,1.3273,1.2037,1.2041,1.2167,1.2237,1.2237,1.2431,1.2528,1.2528,1.3494,1.4262,1.4262,1.5146,1.5832,1.5832,1.5832,1.5832,1.5832,1.5832,1.5832,1.5832,1.5832,1.5832,1.5832,1.5832,1.6092,1.668,1.6707,1.6981,1.7569,1.7582,1.7582,1.7582,1.7582,1.7582,1.7582,1.7582,1.7582,0.0,0.0,2.4469,0.0,2.3506,2.2104,0.0,0.0,1.1974,0.849,0.2956,-0.1991,-0.4291,-0.5381,-0.6303,-0.7335,-0.5559,-0.4646,-0.6263,-0.591,-0.5094,-0.4212,-0.374,-0.3138,-0.2142,-0.1104,-0.0423,-0.0319,0.208,0.4549,0.689,0.6686,0.6494,0.6431,0.7165,0.7563,0.7563,0.7626,0.7709,0.7802,0.7638,0.7711,0.7967,0.7767,0.7687,0.7847,0.7847,0.8323,0.9163,0.9446,1.0171,1.1037,1.1436,1.1708,1.1922,1.1922,1.1922,1.1922,1.1922,1.2003,1.2175,1.2772,1.2962,1.3067,1.3651,1.3737,1.3652,1.3652,1.3737,1.3822,1.3822,1.4183,1.4536,1.4836,1.4845,1.4494,1.3391,1.3406,1.3584,1.3584,1.4561,1.5248,1.5248,1.5439,1.554,1.554,1.573,1.5832,1.5832,1.5832,1.5832,1.5832,1.5832,1.5832,1.5832,1.5832,1.5832,1.5832,1.5832,1.6092,1.668,1.6707,1.6981,1.7569,1.7582,1.7582,1.7582,1.7582,1.7582,1.7582,1.7582,1.7582,2.4312,2.5001,2.5242,0.0,2.4366,2.3115,2.0558,1.8198,1.5129,1.0342,0.6396,0.244,-0.1978,-0.3169,-0.3574,-0.3984,-0.2044,-0.0218,0.0484,0.0053,0.021,0.1633,0.2368,0.2973,0.3415,0.5354,0.6455,0.6334,0.7131,0.7758,0.8105,0.8236,0.832,0.832,0.9047,0.9422,0.9422,0.9602,0.9721,0.9686,0.9395,0.934,0.9454,0.9454,0.9186,0.872,0.872,0.925,1.0066,1.0339,1.0821,1.1456,1.1757,1.2044,1.2305,1.2305,1.2305,1.2305,1.2305,1.2305,1.2405,1.3013,1.3213,1.332,1.3908,1.4088,1.4088,1.4088,1.4088,1.4088,1.4088,1.4302,1.4596,1.4897,1.5184,1.5246,1.4829,1.4861,1.4949,1.4949,1.5439,1.5832,1.5832,1.5832,1.5832,1.5832,1.5832,1.5832,1.5832,1.5832,1.5832,1.5832,1.5832,1.5832,1.5832,1.5832,1.5832,1.5832,1.5985,1.6266,1.6687,1.6867,1.7154,1.7575,1.7582,1.7582,1.7582,1.7582,1.7582,1.7582,1.7582,1.7582,0.0,0.0,2.5596,2.533,2.4917,2.3982,0.0,0.0,1.8086,1.3334,1.0747,0.7886,0.3227,0.087,-0.0443,-0.0724,0.1478,0.4094,0.6556,0.5709,0.5564,0.751,0.8262,0.8735,0.912,1.0779,1.189,1.2024,1.1363,1.0496,0.9522,0.9961,1.0126,0.9984,1.0529,1.0813,1.0813,1.1176,1.1399,1.1464,1.1243,1.1037,1.0926,1.1115,1.0604,0.9658,0.9658,0.9977,1.0645,1.0795,1.1096,1.145,1.167,1.1977,1.2305,1.2305,1.2305,1.2305,1.2592,1.2573,1.2573,1.3338,1.3412,1.342,1.3928,1.4088,1.4088,1.4088,1.4088,1.4088,1.4088,1.4355,1.4689,1.491,1.5244,1.5565,1.5785,1.5832,1.5832,1.5832,1.5832,1.5832,1.5832,1.5832,1.5832,1.5832,1.5832,1.5832,1.5832,1.5832,1.5832,1.5832,1.5832,1.5832,1.5832,1.6109,1.6326,1.6402,1.6992,1.7483,1.7875,1.8117,1.8387,1.8596,1.8603,1.8297,1.7582,1.7582,1.7582,1.7582,1.7582,1.7582,0.0,2.4576,0.0,2.5485,2.5123,2.4485,0.0,2.1072,1.9005,1.8287,1.5385,1.2904,1.2815,0.7269,0.2351,0.1426,0.5214,0.8866,1.0503,1.0625,1.1251,1.3162,1.3791,1.4336,1.5,1.4824,1.4484,1.4,1.3538,1.2818,1.1608,1.1585,1.1306,1.0746,1.0754,1.0813,1.0813,1.1281,1.1847,1.253,1.2497,1.2202,1.1772,1.2512,1.2035,1.0561,1.0561,1.0561,1.0624,1.0645,1.0915,1.1423,1.1443,1.1797,1.2305,1.2305,1.2305,1.2445,1.331,1.3216,1.3002,1.4156,1.4085,1.3681,1.3988,1.4088,1.4088,1.4088,1.4088,1.4088,1.4088,1.4509,1.4943,1.4963,1.5398,1.5812,1.5825,1.5832,1.5832,1.5832,1.5832,1.5832,1.5832,1.5832,1.5832,1.5832,1.5832,1.5832,1.5832,1.5832,1.5832,1.5832,1.5832,1.5832,1.5832,1.6943,1.7725,1.8125,1.9272,2.0243,2.0942,2.0991,2.1172,2.144,2.1448,2.0223,1.7582,1.7582,1.7582,1.7582,1.7582,1.7582,0.0,0.0,0.0,2.5488,2.531,2.4895,2.3974,2.2792,2.1525,2.0152,1.8215,1.6456,1.5575,1.0608,0.6514,0.6119,0.8561,1.1455,1.4086,1.4461,1.5301,1.7524,1.8501,1.8936,1.8843,1.79,1.7051,1.6505,1.541,1.4603,1.4165,1.3825,1.3527,1.329,1.2918,1.2685,1.2526,1.2458,1.27,1.3234,1.3,1.2764,1.2573,1.2879,1.2704,1.2151,1.2151,1.1849,1.1344,1.1344,1.2104,1.3153,1.3153,1.3569,1.4163,1.4163,1.4163,1.4235,1.4522,1.467,1.4793,1.5431,1.5631,1.5743,1.6098,1.6124,1.6124,1.6124,1.6124,1.6252,1.656,1.6869,1.7148,1.6788,1.6879,1.7037,1.7037,1.6386,1.5832,1.5832,1.5832,1.5832,1.5832,1.5832,1.5832,1.5832,1.5832,1.5832,1.5832,1.5832,1.6109,1.6943,1.7037,1.7311,1.8118,1.858,1.9007,1.9445,2.0058,2.0691,2.118,2.1429,2.1619,2.1744,2.1752,2.1245,2.0231,2.0231,1.9723,1.8916,1.9826,1.9723,2.168,0.0,0.0,0.0,2.5274,2.5227,2.5057,2.4468,2.3636,2.2433,2.1148,1.9765,1.8218,1.4801,1.1772,1.0523,1.1548,1.341,1.5982,1.6867,1.8098,2.0245,2.1438,2.1881,2.1412,2.041,1.9448,1.8651,1.7511,1.6574,1.5855,1.5452,1.5084,1.4698,1.4326,1.4095,1.412,1.3805,1.3836,1.4308,1.3956,1.3666,1.3425,1.3666,1.3485,1.3009,1.3312,1.294,1.2205,1.2205,1.2925,1.4082,1.4082,1.4527,1.5234,1.5234,1.5234,1.5234,1.5587,1.5757,1.5989,1.6539,1.6876,1.7083,1.726,1.7342,1.7342,1.7342,1.7342,1.7425,1.7871,1.8327,1.8578,1.8362,1.8319,1.8319,1.8319,1.7677,1.7023,1.7023,1.7023,1.7023,1.7023,1.7023,1.6936,1.648,1.6749,1.6936,1.648,1.6749,1.739,1.8234,1.8319,1.8596,1.9397,1.9978,2.0482,2.0942,2.17,2.2285,2.2672,2.2936,2.3076,2.3076,2.3076,2.3076,2.3076,2.2156,2.1245,2.0333,2.1245,2.1245,0.0,0.0,0.0,0.0,2.4968,2.5446,2.6495,2.5888,2.5133,2.5279,2.4239,2.2865,2.1345,2.0051,1.7987,1.4272,1.4158,1.491,1.6073,1.7833,1.9623,2.1311,2.2495,2.3088,2.2743,2.2332,2.1562,2.0329,1.9848,1.8664,1.6549,1.6439,1.5879,1.4755,1.4729,1.4898,1.5336,1.5193,1.5321,1.5779,1.5548,1.505,1.4264,1.505,1.4569,1.313,1.3906,1.3786,1.307,1.307,1.3492,1.4148,1.4148,1.4595,1.5305,1.5305,1.5305,1.5376,1.6367,1.6506,1.6455,1.7411,1.7622,1.7415,1.7415,1.7415,1.7415,1.7415,1.7432,1.7523,1.7987,1.8621,1.9246,1.9505,1.9579,1.9579,1.9579,1.9579,1.9588,1.9488,1.9497,1.9497,1.9497,1.9497,1.9131,1.7963,1.8772,1.9039,1.787,1.8772,1.9488,1.9588,1.9579,1.9588,1.9579,2.1133,2.2188,2.2586,2.4146,2.5273,2.5723,2.5742,2.5742,2.5742,2.5742,2.5742,2.5732,2.3076,2.1752,2.1752,2.1752,2.1752,1.7992,0.0,0.0,0.0,0.0,0.0,2.5207,2.5251,2.5172,2.5158,2.4463,2.3639,2.2807,2.1888,2.0591,1.8542,1.6535,1.5738,1.7276,1.8381,1.9692,2.1566,2.2615,2.3171,2.3077,2.2485,2.1724,2.0843,2.0039,1.9008,1.772,1.687,1.6107,1.538,1.5351,1.5517,1.5949,1.5892,1.6291,1.7049,1.6476,1.6083,1.5843,1.5517,1.5167,1.4756,1.4991,1.4932,1.4688,1.4094,1.4682,1.6,1.6,1.6506,1.7226,1.7226,1.7226,1.7263,1.7843,1.8228,1.8563,1.9098,1.9478,1.9678,1.9678,1.9678,1.9678,1.9678,1.9902,2.0304,2.11,2.0953,2.0713,2.0819,2.0845,2.0845,2.0845,2.1489,2.1587,1.9861,1.9497,1.9497,1.9497,1.9497,1.9405,1.9039,1.9314,1.9405,1.9039,1.9314,1.9852,2.0666,2.0845,2.1123,2.2041,2.2801,2.3501,2.3913,2.4636,2.5273,2.5723,2.5742,2.5742,2.5742,2.5742,2.5742,2.5742,2.4922,2.4097,2.3176,2.3176,2.3176,1.6061,1.813,1.9949,2.1285,0.0,0.0,2.4338,2.4759,2.5073,2.5551,2.5021,2.4351,2.3932,2.3159,2.2194,2.0947,1.8666,1.7344,1.8257,1.9144,2.0257,2.172,2.28,2.3346,2.3212,2.2813,2.2135,2.1086,2.0501,1.9656,1.8514,1.7431,1.6672,1.6303,1.6089,1.6215,1.6715,1.6627,1.6968,1.7695,1.7214,1.681,1.6492,1.6036,1.569,1.541,1.541,1.541,1.5362,1.5122,1.5657,1.6748,1.6934,1.7412,1.8008,1.8008,1.8008,1.8076,1.8486,1.8926,1.9355,1.9775,2.0215,2.0566,2.0566,2.0566,2.0566,2.0566,2.1016,2.166,2.2334,2.2274,2.2031,2.2031,2.2031,2.2031,2.2031,2.2589,2.2687,2.1311,2.1042,2.1042,2.1042,2.1042,2.0854,2.0305,2.0674,2.0854,2.0305,2.0674,2.1311,2.1943,2.2031,2.2306,2.3047,2.3701,2.415,2.4404,2.5,2.5469,2.5723,2.5742,2.5742,2.5742,2.5742,2.5742,2.5742,2.5742,2.5323,2.4501,2.4501,2.4501,1.3829,1.5973,1.8106,1.8906,2.0451,0.0,2.3371,2.3979,2.4584,2.5721,2.5324,2.4733,2.4557,2.3824,2.2927,2.1966,2.04,1.9191,1.8939,1.9836,2.0828,2.1652,2.2807,2.3414,2.3165,2.3141,2.2539,2.1118,2.0862,2.0227,1.897,1.795,1.7359,1.7282,1.6837,1.6861,1.7489,1.7291,1.7504,1.8139,1.7852,1.7357,1.6765,1.6652,1.6255,1.5633,1.5584,1.5526,1.5566,1.5998,1.6367,1.6777,1.7217,1.7637,1.8008,1.8008,1.8008,1.8076,1.8545,1.8965,1.9365,1.9834,2.0254,2.0566,2.0566,2.0566,2.0586,2.0684,2.1279,2.1992,2.2461,2.2861,2.3135,2.3135,2.3135,2.3135,2.3135,2.3135,2.3135,2.3135,2.3135,2.3135,2.3135,2.3135,2.2765,2.1658,2.2403,2.2677,2.1658,2.2403,2.3135,2.3135,2.3135,2.3135,2.3135,2.3926,2.4414,2.4414,2.5254,2.5742,2.5742,2.5742,2.5742,2.5742,2.5742,2.5742,2.5742,2.5742,2.5742,2.5742,2.5742,2.5742,1.3067,1.4485,1.5751,1.7492,1.8789,0.0,2.0148,2.1198,2.2319,2.3027,2.3275,2.3537,2.4025,2.3386,2.2625,2.1976,2.0698,1.9553,1.8997,1.9067,1.9617,2.0781,2.1821,2.2513,2.2754,2.2797,2.2289,2.1086,1.9939,1.9177,1.8921,1.831,1.7747,1.7312,1.7212,1.7424,1.8065,1.7991,1.8474,1.943,1.8773,1.8394,1.8232,1.7688,1.7302,1.7135,1.6539,1.6265,1.6327,1.6515,1.665,1.6777,1.7217,1.7637,1.8008,1.8008,1.8008,1.8115,1.8887,1.9219,1.9414,2.0185,2.0498,2.0566,2.0566,2.0566,2.0713,2.1426,2.1758,2.206,2.2822,2.3076,2.3135,2.3135,2.3135,2.3135,2.3135,2.3135,2.3135,2.3135,2.3135,2.3135,2.3135,2.3135,2.3047,2.2775,2.296,2.3047,2.2775,2.295,2.3135,2.3135,2.3135,2.3135,2.3135,2.3926,2.4414,2.4414,2.5254,2.5742,2.5742,2.5742,2.5742,2.5742,2.5742,2.5742,2.5742,2.5742,2.5742,2.5742,2.5742,2.5742,1.1145,1.251,1.3848,1.4842,1.5939,0.0,0.0,1.7714,1.8195,2.1456,2.0429,1.9556,2.1718,2.1378,2.0531,1.9909,1.8918,1.7995,1.7302,1.8545,1.9941,2.0976,2.2309,2.334,2.3801,2.3829,2.3345,2.2147,2.1178,2.0527,2.0303,1.9771,1.9373,1.9084,1.8836,1.8825,1.9105,1.9111,1.9338,1.9798,1.9423,1.9044,1.8715,1.834,1.7961,1.7578,1.7191,1.7034,1.7088,1.7353,1.7653,1.7874,1.775,1.7822,1.8008,1.8008,1.8008,1.8135,1.8994,1.9287,1.9424,2.0283,2.0566,2.0566,2.0566,2.0723,2.1035,2.1699,2.2031,2.2344,2.2969,2.3135,2.3135,2.3135,2.3135,2.3135,2.3135,2.3135,2.3135,2.3135,2.3135,2.3135,2.3135,2.3135,2.3135,2.3135,2.3135,2.3135,2.3135,2.3135,2.3135,2.3135,2.3135,2.3135,2.3135,2.3926,2.4414,2.4414,2.5254,2.5742,2.5742,2.5742,2.5742,2.5742,2.5742,2.5742,2.5742,2.5742,2.5742,2.5742,2.5742,2.5742,0.922,1.0585,1.1942,1.1957,1.2626,1.3547,0.0,0.0,0.0,1.7813,1.6095,1.4674,1.7928,1.8219,1.7827,1.7325,1.6678,1.6103,1.5688,1.7957,2.0046,2.1016,2.271,2.4072,2.4815,2.4832,2.4346,2.3312,2.2728,2.2224,2.1877,2.1329,2.1003,2.0905,2.0472,2.0246,2.0161,2.0174,2.0132,2.0003,2.0003,1.9619,1.8927,1.8927,1.8608,1.8015,1.7841,1.7797,1.7831,1.8171,1.8617,1.9021,1.8338,1.8133,1.8202,1.8076,1.8144,1.832,1.9066,1.9423,1.9644,2.036,2.0712,2.0867,2.0634,2.0968,2.1441,2.182,2.2129,2.251,2.3008,2.3135,2.3135,2.3135,2.3135,2.3135,2.3135,2.3135,2.3135,2.3135,2.3135,2.3135,2.3135,2.3135,2.3135,2.3135,2.3135,2.3135,2.3135,2.3135,2.3135,2.3135,2.3135,2.3135,2.3135,2.3848,2.4336,2.4414,2.5166,2.5644,2.5732,2.5742,2.5742,2.5742,2.5742,2.5742,2.5742,2.5742,2.5742,2.5742,2.5742,2.5742,0.844,0.9061,0.9472,0.9612,0.9134,0.836,0.7331,0.0,0.6243,0.7468,0.0,1.0279,1.221,0.0,0.0,1.5529,1.5238,1.5234,1.5939,1.6869,1.8061,1.9648,2.1294,2.2911,2.4411,2.424,2.3967,2.3836,2.2945,2.2359,2.2322,2.1886,2.1385,2.0905,2.0822,2.0812,2.0795,2.0809,2.0785,2.0696,2.0696,2.0346,1.9695,1.9695,1.9631,1.9527,1.8874,1.8555,1.8536,1.8396,1.8617,1.9048,1.8617,1.8757,1.9044,1.8269,1.8462,1.9178,1.9261,1.9847,2.0473,2.0579,2.1155,2.1659,2.0857,2.1185,2.1927,2.1876,2.1924,2.2139,2.293,2.3135,2.3135,2.3135,2.3135,2.3135,2.3135,2.3135,2.3135,2.3135,2.3135,2.3135,2.3135,2.3135,2.3135,2.3135,2.3135,2.3135,2.3135,2.3135,2.3135,2.3135,2.3135,2.3135,2.3135,2.3584,2.4014,2.4394,2.4873,2.5322,2.5723,2.5742,2.5742,2.5742,2.5742,2.5742,2.5742,2.5742,2.5742,2.5742,2.5742,2.5742,0.72,0.817,0.8295,0.6548,0.468,0.2793,0.1014,0.0221,-0.049,-0.1633,0.0,0.0,0.0,0.0,0.0,0.0,1.2568,1.2997,1.4548,1.5561,1.7029,1.9336,2.1509,2.3638,2.5596,2.563,2.5597,2.5768,2.5354,2.4834,2.4206,2.3994,2.3455,2.2492,2.2477,2.228,2.1971,2.1925,2.1722,2.1308,2.1326,2.1184,2.089,2.0534,2.0396,2.0346,1.9631,1.9319,1.9356,1.957,2.0001,2.0471,2.0076,2.0017,2.0009,1.9617,1.9759,2.0151,2.0685,2.1075,2.1517,2.2104,2.2188,2.2038,2.2264,2.2379,2.2418,2.2614,2.2529,2.2383,2.2988,2.3135,2.3135,2.3135,2.3135,2.3135,2.3135,2.3135,2.3135,2.3135,2.3135,2.3135,2.3135,2.3135,2.3135,2.3135,2.3135,2.3135,2.3135,2.3135,2.3135,2.3135,2.3135,2.3135,2.3135,2.3545,2.3867,2.4043,2.4697,2.5273,2.5723,2.5742,2.5742,2.5742,2.5742,2.5742,2.5742,2.5742,2.5742,2.5742,2.5742,2.5742,0.5944,0.6443,0.6134,0.3414,0.0875,-0.1398,-0.314,-0.4263,-0.5425,-0.7231,-0.2952,0.0,0.0,0.0,0.858,1.0015,0.0,1.1742,1.3747,1.4907,1.6566,1.9343,2.2294,2.4786,2.6522,2.6691,2.6859,2.7274,2.7177,2.6863,2.6265,2.59,2.5237,2.4167,2.3927,2.3523,2.2946,2.2946,2.2622,2.1962,2.1965,2.1894,2.1675,2.1232,2.0944,2.0746,2.0295,1.9952,1.9849,2.0426,2.0991,2.1487,2.1409,2.1329,2.1227,2.0782,2.0719,2.1058,2.1767,2.2146,2.2562,2.3279,2.322,2.2925,2.3368,2.3552,2.3579,2.3741,2.3361,2.3088,2.3861,2.38,2.3551,2.3551,2.38,2.3973,2.3637,2.38,2.4059,2.4059,2.38,2.3551,2.3551,2.3299,2.3135,2.3135,2.3135,2.3135,2.3135,2.3135,2.3135,2.3135,2.3135,2.3135,2.3135,2.3428,2.3711,2.3945,2.4658,2.5273,2.5723,2.5742,2.5742,2.5742,2.5742,2.5742,2.5742,2.5742,2.5742,2.5742,2.5742,2.5742,0.4608,0.3504,0.2035,0.0505,-0.1506,-0.3411,-0.4512,-0.6138,-0.7474,-0.784,-0.4431,-0.0794,0.1226,0.4361,0.7154,0.8515,1.0412,0.0,0.0,1.5209,1.6642,1.9558,2.346,2.6123,2.6657,2.6691,2.7012,2.7722,2.7378,2.7415,2.8092,2.6927,2.6036,2.5481,2.4746,2.4116,2.3551,2.3551,2.3258,2.2643,2.2658,2.2351,2.1699,2.1661,2.1342,2.0795,2.0795,2.0396,1.9849,2.0426,2.0991,2.1543,2.2038,2.2589,2.2811,2.1227,2.1101,2.1895,2.1969,2.2663,2.3481,2.3514,2.412,2.4707,2.3818,2.4526,2.5627,2.509,2.4556,2.4469,2.6019,2.5546,2.4787,2.4787,2.5546,2.6058,2.4957,2.563,2.6389,2.6389,2.5462,2.4787,2.4787,2.379,2.3135,2.3135,2.3135,2.3135,2.3135,2.3135,2.3135,2.3135,2.3135,2.3135,2.3135,2.3154,2.3516,2.4346,2.4814,2.5273,2.5723,2.5742,2.5742,2.5742,2.5742,2.5742,2.5742,2.5742,2.5742,2.5742,2.5742,2.5742,0.4002,0.4141,0.3126,0.0615,-0.2049,-0.4484,-0.619,-0.8624,-1.0278,-0.9408,-0.4465,0.0348,0.2464,0.4633,0.689,0.93,1.0074,1.137,0.0,1.6548,1.8494,2.0089,2.2588,2.482,2.6522,2.6691,2.708,2.8005,2.8253,2.89,3.0129,2.8982,2.7583,2.6068,2.543,2.481,2.4141,2.3786,2.3492,2.3301,2.3301,2.3171,2.2922,2.2546,2.2267,2.2035,2.1582,2.1064,2.0498,2.1082,2.1399,2.1543,2.2096,2.2648,2.3005,2.2433,2.2433,2.2788,2.3612,2.4124,2.4636,2.5288,2.5288,2.5075,2.5358,2.5636,2.586,2.5955,2.5678,2.544,2.6266,2.6224,2.5975,2.5975,2.6224,2.6389,2.5975,2.6224,2.6483,2.6483,2.6224,2.5724,2.4957,2.5136,2.4808,2.3309,2.3135,2.3135,2.3135,2.3135,2.3135,2.3135,2.3135,2.3135,2.3135,2.3135,2.3506,2.4365,2.4551,2.4971,2.5713,2.5742,2.5742,2.5742,2.5742,2.5742,2.5742,2.5742,2.5742,2.5742,2.5742,2.5742,0.2238,0.2916,0.2577,0.1116,0.0056,-0.1243,-0.3677,-0.5684,-0.6949,-0.6467,-0.2106,0.2296,0.4461,0.5608,0.7028,0.9582,1.0229,1.1518,0.0,1.7025,1.8902,2.0138,2.2217,2.4286,2.6134,2.6539,2.7198,2.8393,2.8949,2.9839,3.1346,3.0527,2.9177,2.7262,2.6604,2.5782,2.4687,2.4137,2.3889,2.3889,2.3698,2.3595,2.3595,2.3201,2.292,2.2694,2.2253,2.1677,2.1166,2.1706,2.1904,2.1852,2.2413,2.287,2.3078,2.3078,2.3389,2.3841,2.4569,2.5123,2.5664,2.6314,2.6094,2.5664,2.6314,2.6532,2.6712,2.7015,2.683,2.6794,2.7463,2.7383,2.7046,2.7046,2.7383,2.7545,2.7128,2.7383,2.7637,2.7637,2.7383,2.6871,2.6108,2.6295,2.5724,2.3474,2.3474,2.3551,2.3135,2.3135,2.3135,2.3135,2.3135,2.3135,2.3135,2.3135,2.3506,2.4365,2.4414,2.4814,2.5703,2.611,2.639,2.639,2.6839,2.703,2.703,2.703,2.6839,2.639,2.639,2.61]},{"header":{"parameterUnit":"m.s-1","parameterCategory":1,"la1":30.6,"la2":29.2853,"lo1":-89.7004,"lo2":-87.6739,"dy":0.0162,"dx":0.0183,"nx":112,"ny":82,"refTime":"2024-08-05T18:00:00:Z","depth":0,"parameterNumber":3,"parameterNumberName":"V-component_of_WINDS"},"data":[0.0,0.0,0.0,0.0,0.0,0.0,0.0,0.0,0.0,0.0,0.0,0.0,0.0,0.0,0.0,0.0,0.0,0.0,0.0,0.0,0.0,0.0,0.0,0.0,0.0,0.0,0.0,0.0,0.0,0.0,0.0,0.0,0.0,0.0,0.0,0.0,0.0,0.0,0.0,0.0,0.0,0.0,0.0,0.0,0.0,0.0,0.0,0.0,0.0,0.0,0.0,0.0,0.0,0.0,0.0,0.0,0.0,0.0,0.0,0.0,0.0,0.0,0.0,0.0,0.0,0.0,0.0,0.0,0.0,0.0,0.0,0.0,0.0,0.0,0.0,0.0,0.0,0.0,0.0,0.0,0.0,0.0,0.0,0.0,0.0,0.0,0.0,0.0,0.0,0.0,-2.5724,-2.3792,-2.2494,-2.29,-2.5722,-2.6155,-2.6604,-2.7314,0.0,0.0,0.0,0.0,0.0,0.0,0.0,0.0,0.0,0.0,0.0,0.0,0.0,0.0,0.0,0.0,0.0,0.0,0.0,0.0,0.0,0.0,0.0,0.0,0.0,0.0,0.0,0.0,0.0,0.0,0.0,0.0,0.0,0.0,0.0,0.0,0.0,0.0,0.0,0.0,0.0,0.0,0.0,0.0,0.0,0.0,0.0,0.0,0.0,0.0,0.0,0.0,0.0,0.0,0.0,0.0,0.0,0.0,0.0,0.0,0.0,0.0,0.0,0.0,0.0,0.0,0.0,0.0,0.0,0.0,0.0,0.0,0.0,0.0,0.0,0.0,0.0,0.0,0.0,0.0,0.0,0.0,0.0,0.0,0.0,0.0,0.0,0.0,0.0,0.0,0.0,0.0,0.0,0.0,0.0,0.0,0.0,0.0,0.0,0.0,0.0,0.0,0.0,0.0,-2.4887,-2.2739,-2.3284,-2.3753,-2.3678,-2.4598,-2.589,-2.7546,0.0,0.0,0.0,0.0,0.0,0.0,0.0,0.0,0.0,0.0,0.0,0.0,0.0,0.0,0.0,0.0,0.0,0.0,0.0,0.0,0.0,0.0,0.0,0.0,0.0,0.0,0.0,0.0,0.0,0.0,0.0,0.0,0.0,0.0,0.0,0.0,0.0,0.0,0.0,0.0,0.0,0.0,0.0,0.0,0.0,0.0,0.0,0.0,0.0,0.0,0.0,0.0,0.0,0.0,0.0,0.0,0.0,0.0,0.0,0.0,0.0,0.0,0.0,0.0,0.0,0.0,0.0,0.0,0.0,0.0,0.0,0.0,0.0,0.0,0.0,0.0,0.0,0.0,0.0,0.0,0.0,0.0,0.0,0.0,0.0,0.0,0.0,0.0,0.0,0.0,0.0,0.0,0.0,0.0,0.0,0.0,0.0,0.0,0.0,0.0,0.0,0.0,0.0,-2.6166,-2.5222,-2.4264,-2.4411,-2.4631,-2.4825,-2.5867,-2.689,-2.7779,-2.7593,0.0,0.0,0.0,0.0,0.0,0.0,0.0,0.0,0.0,0.0,0.0,0.0,0.0,0.0,0.0,0.0,0.0,0.0,0.0,0.0,0.0,0.0,0.0,0.0,0.0,0.0,0.0,0.0,0.0,0.0,0.0,0.0,0.0,0.0,0.0,0.0,0.0,0.0,0.0,0.0,0.0,0.0,0.0,0.0,0.0,0.0,0.0,0.0,0.0,0.0,0.0,0.0,0.0,0.0,0.0,0.0,0.0,0.0,0.0,0.0,0.0,0.0,0.0,0.0,0.0,0.0,0.0,0.0,0.0,0.0,0.0,0.0,0.0,0.0,0.0,0.0,0.0,0.0,0.0,0.0,0.0,0.0,0.0,0.0,0.0,0.0,0.0,0.0,0.0,0.0,0.0,0.0,0.0,0.0,0.0,0.0,0.0,0.0,0.0,0.0,0.0,0.0,-2.6736,-2.6056,-2.5856,-2.5338,-2.5454,-2.6469,-2.6897,-2.7359,-2.8033,-2.7051,0.0,0.0,0.0,0.0,0.0,0.0,0.0,0.0,0.0,0.0,0.0,0.0,0.0,0.0,0.0,0.0,0.0,0.0,0.0,0.0,0.0,0.0,0.0,0.0,0.0,0.0,0.0,0.0,0.0,0.0,0.0,0.0,0.0,0.0,0.0,0.0,0.0,0.0,0.0,0.0,0.0,0.0,0.0,0.0,0.0,0.0,0.0,0.0,0.0,0.0,0.0,0.0,0.0,0.0,0.0,0.0,0.0,0.0,0.0,0.0,0.0,0.0,0.0,0.0,0.0,0.0,0.0,0.0,0.0,0.0,0.0,0.0,0.0,0.0,0.0,0.0,0.0,0.0,0.0,0.0,0.0,0.0,0.0,0.0,0.0,0.0,0.0,0.0,0.0,0.0,0.0,0.0,0.0,0.0,0.0,0.0,0.0,0.0,0.0,0.0,0.0,0.0,-2.7022,-2.7409,-2.597,-2.5739,-2.6127,-2.7157,-2.6051,-2.6108,-2.804,-2.5783,0.0,0.0,0.0,0.0,0.0,0.0,0.0,0.0,0.0,0.0,0.0,0.0,0.0,0.0,0.0,0.0,0.0,0.0,0.0,0.0,0.0,0.0,0.0,0.0,0.0,0.0,0.0,0.0,0.0,0.0,0.0,0.0,0.0,0.0,0.0,0.0,0.0,0.0,0.0,0.0,0.0,0.0,0.0,0.0,0.0,0.0,0.0,0.0,0.0,0.0,0.0,0.0,0.0,0.0,0.0,0.0,0.0,0.0,0.0,0.0,0.0,0.0,0.0,0.0,0.0,0.0,0.0,0.0,0.0,0.0,0.0,0.0,0.0,0.0,0.0,0.0,0.0,0.0,0.0,0.0,0.0,0.0,0.0,0.0,0.0,0.0,0.0,0.0,0.0,0.0,0.0,0.0,0.0,0.0,0.0,0.0,0.0,0.0,0.0,0.0,0.0,0.0,-2.6151,-2.6355,-2.584,-2.644,-2.7141,-2.7754,-2.8336,-2.8711,-2.8765,0.0,0.0,0.0,0.0,0.0,0.0,0.0,0.0,0.0,0.0,0.0,0.0,0.0,0.0,0.0,0.0,0.0,0.0,0.0,0.0,0.0,0.0,0.0,0.0,0.0,0.0,0.0,0.0,0.0,0.0,0.0,0.0,0.0,0.0,0.0,0.0,0.0,0.0,0.0,0.0,0.0,0.0,0.0,0.0,0.0,0.0,0.0,0.0,0.0,0.0,0.0,0.0,0.0,0.0,0.0,0.0,0.0,0.0,0.0,0.0,0.0,0.0,0.0,0.0,0.0,0.0,0.0,0.0,0.0,0.0,0.0,0.0,0.0,0.0,0.0,0.0,0.0,0.0,0.0,0.0,0.0,0.0,0.0,0.0,0.0,0.0,0.0,0.0,0.0,0.0,0.0,0.0,0.0,0.0,0.0,0.0,0.0,0.0,0.0,0.0,0.0,0.0,-2.5109,-2.5649,-2.5927,-2.6091,-2.7,-2.798,-2.8895,-2.9866,-3.0196,-2.9723,0.0,0.0,0.0,0.0,0.0,0.0,0.0,0.0,0.0,0.0,0.0,0.0,0.0,0.0,0.0,0.0,0.0,0.0,0.0,0.0,0.0,0.0,0.0,0.0,0.0,0.0,0.0,0.0,0.0,0.0,0.0,0.0,0.0,0.0,0.0,0.0,0.0,0.0,0.0,0.0,0.0,0.0,0.0,0.0,0.0,0.0,0.0,0.0,0.0,0.0,0.0,0.0,0.0,0.0,0.0,0.0,0.0,0.0,0.0,0.0,0.0,0.0,0.0,0.0,0.0,0.0,0.0,0.0,0.0,0.0,0.0,0.0,0.0,0.0,0.0,0.0,0.0,0.0,0.0,0.0,0.0,0.0,0.0,0.0,0.0,0.0,0.0,0.0,0.0,0.0,0.0,0.0,0.0,0.0,0.0,0.0,0.0,0.0,0.0,0.0,0.0,0.0,-2.4669,-2.5762,-2.6553,-2.6712,-2.7247,-2.8512,-3.0718,-3.0145,-3.0022,0.0,0.0,0.0,0.0,0.0,0.0,0.0,0.0,0.0,0.0,0.0,0.0,0.0,0.0,0.0,0.0,0.0,0.0,0.0,0.0,0.0,0.0,0.0,0.0,0.0,0.0,0.0,0.0,0.0,0.0,0.0,0.0,0.0,0.0,0.0,0.0,0.0,0.0,0.0,0.0,0.0,0.0,0.0,0.0,0.0,0.0,0.0,0.0,0.0,0.0,0.0,0.0,0.0,0.0,0.0,0.0,0.0,0.0,0.0,0.0,0.0,0.0,0.0,0.0,0.0,0.0,0.0,0.0,0.0,0.0,0.0,0.0,0.0,0.0,0.0,0.0,0.0,0.0,0.0,0.0,0.0,0.0,0.0,0.0,0.0,0.0,0.0,0.0,0.0,0.0,0.0,0.0,0.0,0.0,0.0,0.0,0.0,0.0,0.0,0.0,0.0,0.0,0.0,-2.4142,-2.5666,-2.6804,-2.726,-2.8111,-2.9316,-3.1051,-3.1457,-3.1272,-3.0412,0.0,0.0,0.0,0.0,0.0,0.0,0.0,0.0,0.0,0.0,0.0,0.0,0.0,0.0,0.0,0.0,0.0,0.0,0.0,0.0,0.0,0.0,0.0,0.0,0.0,0.0,0.0,0.0,0.0,0.0,0.0,0.0,0.0,0.0,0.0,0.0,0.0,0.0,0.0,0.0,0.0,0.0,0.0,0.0,0.0,0.0,0.0,0.0,0.0,0.0,0.0,0.0,0.0,0.0,0.0,0.0,0.0,0.0,0.0,0.0,0.0,0.0,0.0,0.0,0.0,0.0,0.0,0.0,0.0,0.0,0.0,0.0,0.0,0.0,0.0,0.0,0.0,0.0,0.0,0.0,0.0,0.0,0.0,0.0,0.0,0.0,0.0,0.0,0.0,0.0,0.0,0.0,0.0,0.0,0.0,0.0,0.0,0.0,0.0,0.0,0.0,0.0,-2.438,-2.6215,-2.767,-2.8168,-2.9109,-3.019,-3.132,-3.2074,-3.2048,-3.0963,0.0,0.0,0.0,0.0,0.0,0.0,0.0,0.0,0.0,0.0,0.0,0.0,0.0,0.0,0.0,0.0,0.0,0.0,0.0,0.0,0.0,0.0,0.0,0.0,0.0,0.0,0.0,0.0,0.0,0.0,0.0,0.0,0.0,0.0,0.0,0.0,0.0,0.0,0.0,0.0,0.0,0.0,0.0,0.0,0.0,0.0,0.0,0.0,0.0,0.0,0.0,0.0,0.0,0.0,0.0,0.0,0.0,0.0,0.0,0.0,0.0,0.0,0.0,0.0,0.0,0.0,0.0,0.0,0.0,0.0,0.0,0.0,0.0,0.0,0.0,0.0,0.0,0.0,0.0,0.0,0.0,0.0,0.0,0.0,0.0,0.0,0.0,0.0,0.0,0.0,0.0,0.0,0.0,0.0,0.0,0.0,0.0,0.0,0.0,0.0,0.0,0.0,-2.5238,-2.7404,-2.8985,-2.9343,-3.0238,-3.1098,-3.1724,-3.2278,-3.2456,-3.2208,0.0,0.0,0.0,0.0,0.0,0.0,0.0,0.0,0.0,0.0,0.0,0.0,0.0,0.0,0.0,0.0,0.0,0.0,0.0,0.0,0.0,0.0,0.0,0.0,0.0,0.0,0.0,0.0,0.0,0.0,0.0,0.0,0.0,0.0,0.0,0.0,0.0,0.0,0.0,0.0,0.0,0.0,0.0,0.0,0.0,0.0,0.0,0.0,0.0,0.0,0.0,0.0,0.0,0.0,0.0,0.0,0.0,0.0,0.0,0.0,-2.3493,-2.3354,0.0,0.0,0.0,0.0,0.0,0.0,0.0,0.0,0.0,0.0,0.0,0.0,0.0,0.0,0.0,0.0,0.0,0.0,0.0,0.0,0.0,0.0,0.0,0.0,0.0,0.0,0.0,0.0,0.0,0.0,0.0,0.0,0.0,0.0,0.0,0.0,0.0,0.0,0.0,0.0,-2.6706,-2.917,-3.0955,-3.1417,-3.1716,-3.2239,-3.3103,-3.3105,-3.298,-3.2834,-3.2101,0.0,0.0,0.0,0.0,0.0,0.0,0.0,0.0,0.0,0.0,0.0,0.0,0.0,0.0,0.0,0.0,0.0,0.0,0.0,0.0,0.0,0.0,0.0,0.0,0.0,0.0,0.0,0.0,0.0,0.0,0.0,0.0,0.0,0.0,0.0,0.0,0.0,0.0,0.0,0.0,0.0,0.0,0.0,0.0,0.0,0.0,0.0,0.0,0.0,0.0,0.0,0.0,0.0,0.0,0.0,0.0,0.0,0.0,0.0,-2.6746,-2.6525,0.0,0.0,0.0,0.0,0.0,0.0,0.0,0.0,0.0,0.0,0.0,0.0,0.0,0.0,0.0,0.0,0.0,0.0,0.0,0.0,0.0,0.0,0.0,0.0,0.0,0.0,0.0,0.0,0.0,0.0,0.0,0.0,0.0,0.0,0.0,0.0,0.0,0.0,0.0,0.0,-2.7919,-3.0409,-3.2074,-3.2229,-3.2753,-3.3304,-3.3815,-3.3707,-3.3695,-3.3802,-3.3129,0.0,0.0,0.0,0.0,0.0,0.0,0.0,0.0,0.0,0.0,0.0,0.0,0.0,0.0,0.0,0.0,0.0,0.0,0.0,0.0,0.0,0.0,0.0,0.0,0.0,0.0,0.0,0.0,0.0,0.0,0.0,0.0,0.0,0.0,0.0,0.0,0.0,0.0,0.0,0.0,0.0,0.0,0.0,0.0,0.0,0.0,0.0,0.0,0.0,0.0,0.0,0.0,0.0,-3.0242,-3.0502,-3.0704,-3.0197,-3.0166,-3.0465,-2.9642,-2.9757,-3.0513,-3.0637,0.0,0.0,0.0,0.0,0.0,0.0,0.0,0.0,0.0,0.0,0.0,0.0,0.0,0.0,0.0,0.0,0.0,0.0,0.0,0.0,0.0,0.0,0.0,0.0,-3.6531,-3.6827,-3.2383,0.0,0.0,0.0,0.0,0.0,0.0,0.0,0.0,0.0,0.0,0.0,-2.9347,-3.1544,-3.2892,-3.2757,-3.3627,-3.4251,-3.4288,-3.4266,-3.4386,-3.4752,-3.4054,-3.3523,0.0,0.0,0.0,0.0,0.0,0.0,0.0,0.0,0.0,0.0,0.0,0.0,0.0,0.0,0.0,0.0,0.0,0.0,0.0,0.0,0.0,0.0,0.0,0.0,0.0,0.0,0.0,0.0,0.0,0.0,0.0,0.0,-2.2073,-2.397,0.0,0.0,0.0,0.0,0.0,0.0,0.0,0.0,0.0,0.0,0.0,0.0,0.0,-2.8088,-2.8282,-2.9848,-3.09,-3.1439,-3.2547,-3.3124,-3.3206,-3.2788,-3.2151,-3.1376,-3.1858,0.0,-3.3196,-3.2265,0.0,0.0,0.0,0.0,0.0,0.0,0.0,0.0,0.0,0.0,0.0,0.0,0.0,0.0,0.0,0.0,0.0,0.0,0.0,0.0,0.0,0.0,-3.7266,-3.8357,-3.9792,-4.0689,0.0,-3.7729,-3.5453,-3.323,-3.2757,-3.174,0.0,0.0,0.0,0.0,0.0,0.0,-3.1757,-3.3089,-3.3962,-3.4119,-3.453,-3.4871,-3.5046,-3.4846,-3.4832,-3.5115,-3.4756,-3.4623,-3.4808,-3.4527,0.0,0.0,0.0,0.0,0.0,0.0,0.0,0.0,0.0,0.0,0.0,0.0,0.0,0.0,0.0,0.0,0.0,0.0,0.0,0.0,0.0,0.0,0.0,0.0,0.0,0.0,0.0,0.0,0.0,-2.0972,-2.3427,-2.4689,-2.6818,-2.8015,0.0,0.0,0.0,0.0,0.0,0.0,0.0,0.0,0.0,-2.9398,-3.0313,-3.1006,-3.1448,-3.2415,-3.2947,-3.3005,-3.3607,-3.3665,-3.3233,-3.247,-3.1598,-3.0681,-3.0778,-3.1291,-3.2094,-3.309,-3.343,-3.3331,0.0,0.0,0.0,0.0,-3.4277,-3.4769,-3.4842,-3.5373,-3.5851,-3.4889,0.0,0.0,0.0,0.0,0.0,0.0,0.0,-3.4729,0.0,0.0,-3.9404,-4.0971,-4.1956,-4.2549,-4.2412,-4.1334,-3.9527,-3.6642,-3.6405,-3.5611,-3.2076,-3.1246,0.0,0.0,0.0,-3.1133,-3.2301,-3.3242,-3.3784,-3.3678,-3.451,-3.5112,-3.5188,-3.5275,-3.5346,-3.5426,-3.5297,-3.5264,-3.5377,-3.5507,-3.5438,0.0,0.0,0.0,0.0,0.0,0.0,0.0,0.0,0.0,0.0,0.0,0.0,0.0,0.0,0.0,0.0,0.0,0.0,0.0,0.0,0.0,0.0,0.0,0.0,0.0,0.0,0.0,0.0,-2.2654,-2.4759,-2.5769,-2.8459,-2.983,0.0,0.0,0.0,0.0,0.0,0.0,-3.0305,-3.0748,-3.1284,-3.1838,-3.2526,-3.3163,-3.3718,-3.3916,-3.3925,-3.3711,-3.3688,-3.3302,-3.2577,-3.1497,-3.0594,-2.9848,-2.9452,-2.9577,-3.0293,-3.2796,-3.3636,-3.3546,-3.5175,-3.5975,-3.6241,-3.6742,-3.744,-3.8208,-3.8306,-3.8828,-3.9282,-3.8218,-3.7508,-3.6815,-3.5377,0.0,0.0,0.0,0.0,-3.7046,-3.9013,-3.984,-4.0501,-4.2004,-4.2557,-4.2724,-4.2741,-4.2652,-4.1878,-3.9488,-3.9547,-3.8954,-3.5685,-3.461,0.0,-3.3621,-3.2567,-3.2039,-3.269,-3.3204,-3.3441,-3.3243,-3.4289,-3.5055,-3.5192,-3.5437,-3.5605,-3.5614,-3.5611,-3.5599,-3.5603,-3.6335,-3.6604,-3.6323,0.0,0.0,0.0,0.0,0.0,0.0,0.0,0.0,0.0,0.0,0.0,0.0,0.0,0.0,0.0,0.0,0.0,0.0,0.0,0.0,0.0,0.0,0.0,0.0,0.0,0.0,0.0,0.0,0.0,-2.8864,-3.0794,0.0,0.0,0.0,0.0,-3.0831,-3.0841,-3.1187,-3.1948,-3.2245,-3.2961,-3.4195,-3.4033,-3.3961,-3.4067,-3.3342,-3.299,-3.294,-3.2702,-3.235,-3.1826,-3.0633,-2.9858,-2.9393,-2.8859,-2.8674,-2.8839,-3.0844,-3.2656,-3.4159,-3.4219,-3.4903,-3.6009,-3.6877,-3.7497,-3.8072,-3.9146,-3.9336,-3.9182,-3.9558,-3.9106,-3.8429,-3.8586,-3.8408,0.0,0.0,-3.9033,-3.9914,-4.0104,-4.0407,-4.0703,-4.0875,-4.0923,-4.093,-4.0935,-4.0935,-4.1087,0.0,-4.1826,-4.1206,-3.9102,0.0,-3.7108,-3.6088,-3.4522,-3.35,-3.3536,-3.3348,-3.3306,-3.3551,-3.4071,-3.4656,-3.5163,-3.5262,-3.5431,-3.5684,-3.5638,-3.5599,-3.5603,-3.7089,-3.7402,-3.6323,-3.7907,0.0,0.0,0.0,0.0,0.0,0.0,0.0,0.0,0.0,0.0,0.0,0.0,0.0,0.0,0.0,0.0,0.0,0.0,0.0,0.0,0.0,0.0,0.0,0.0,0.0,0.0,0.0,0.0,-2.8689,-3.0267,0.0,-2.9994,-3.1071,-3.1921,-3.2233,-3.2778,-3.3312,-3.381,-3.394,-3.3955,-3.3904,-3.3789,-3.3522,-3.3068,-3.2805,-3.2509,-3.2193,-3.2109,-3.1608,-3.0794,-2.9982,-2.9297,-2.8795,-2.8202,-2.8414,-2.9265,-3.037,-3.1787,-3.3362,-3.5348,-3.636,-3.684,-3.7794,-3.8283,-3.8475,-3.8877,-3.8942,-3.8902,-3.9248,-3.945,-3.9603,-3.9714,-3.9835,-3.9945,-3.9945,-4.0241,-4.0555,-4.0582,-4.0664,-4.0625,-4.0041,-3.9893,-3.9734,-3.9138,-3.8988,-3.9066,-3.9383,-4.0393,-4.0643,-3.8805,-3.8256,-3.7487,-3.571,-3.458,-3.3832,-3.3629,-3.3375,-3.3225,-3.3317,-3.3887,-3.4423,-3.4831,-3.5133,-3.5417,-3.568,-3.5672,-3.566,-3.5655,-3.6642,-3.7247,-3.7383,-3.8012,-3.7735,0.0,0.0,0.0,0.0,0.0,0.0,0.0,0.0,0.0,0.0,0.0,0.0,0.0,0.0,0.0,0.0,0.0,0.0,0.0,0.0,0.0,0.0,0.0,0.0,0.0,-2.6002,-2.7556,-2.8368,-2.9747,-3.0312,-2.9428,-3.0979,-3.227,-3.2785,-3.3361,-3.3853,-3.4222,-3.4109,-3.386,-3.3478,-3.3169,-3.2764,-3.2264,-3.2127,-3.1914,-3.1603,-3.1603,-3.1128,-3.0293,-2.9673,-2.9058,-2.8463,-2.786,-2.8323,-2.9568,-3.0196,-3.1307,-3.2818,-3.5514,-3.6511,-3.6522,-3.7627,-3.8144,-3.8322,-3.8615,-3.8707,-3.8732,-3.9008,-3.9509,-4.0021,-4.0128,-4.0422,-4.0696,-4.0696,-4.0614,-4.0564,-4.0564,-4.0283,-3.9828,-3.9216,-3.887,-3.8503,-3.7977,-3.7878,-3.7894,-3.7973,-3.9027,-3.9552,-3.8403,-3.7985,-3.7278,-3.568,-3.479,-3.4179,-3.385,-3.3652,-3.3588,-3.3678,-3.4086,-3.4508,-3.4813,-3.5126,-3.5534,-3.6098,-3.614,-3.6279,-3.6559,-3.6949,-3.7546,-3.8411,-3.862,-3.8684,-3.8607,0.0,0.0,0.0,0.0,0.0,0.0,0.0,0.0,0.0,0.0,0.0,0.0,0.0,0.0,0.0,0.0,0.0,0.0,0.0,0.0,0.0,0.0,0.0,-2.6209,-2.6982,-2.7642,-2.812,-2.9405,-3.0096,-2.9812,-3.0945,-3.1933,-3.2451,-3.2484,-3.2713,-3.3166,-3.2777,-3.2745,-3.3154,-3.2298,-3.1825,-3.1789,-3.1372,-3.119,-3.119,-3.119,-3.0878,-3.0251,-2.9673,-2.9042,-2.8415,-2.786,-2.8308,-2.9537,-3.0211,-3.1232,-3.2557,-3.4545,-3.5084,-3.496,-3.6229,-3.6999,-3.7569,-3.8377,-3.8652,-3.8676,-3.898,-3.9296,-3.9649,-3.9963,-4.0267,-4.0489,-4.0489,-4.0304,-4.0101,-4.0043,-3.9214,-3.8395,-3.8339,-3.7737,-3.7217,-3.747,-3.7524,-3.7596,-3.7882,-3.8027,-3.8108,-3.8146,-3.7445,-3.6699,-3.6142,-3.5292,0.0,-3.4265,-3.42,-3.4334,-3.4674,-3.4694,-3.4812,-3.5088,-3.523,-3.578,-3.6934,-3.6997,-3.7395,-3.8253,-3.8123,-3.845,-3.9354,-3.9867,-4.0559,-4.1399,0.0,0.0,0.0,0.0,0.0,0.0,0.0,0.0,0.0,0.0,0.0,0.0,0.0,0.0,0.0,0.0,0.0,0.0,0.0,0.0,0.0,-2.428,-2.5366,-2.6386,-2.6959,-2.7394,-2.7664,-2.8367,-2.8828,-2.8795,-2.9889,-3.0962,-3.1916,-3.2316,-3.2713,-3.3166,-3.3361,-3.3225,-3.2713,-3.2451,-3.2004,-3.1389,-3.1269,-3.119,-3.119,-3.119,-3.0658,-2.9629,-2.9496,-2.881,-2.786,-2.766,-2.8281,-2.9419,-2.9649,-3.043,-3.1763,-3.4059,-3.487,-3.4924,-3.6009,-3.6509,-3.6725,-3.7533,-3.7441,-3.7177,-3.8405,-3.8771,-3.8848,-3.9542,-4.0101,-4.0457,-4.025,-4.0158,-3.9909,-3.9079,-3.8631,-3.8093,-3.6866,-3.6434,-3.6174,-3.587,-3.5791,-3.5859,-3.6138,-3.6219,-3.6416,-3.7026,-3.6911,-3.6439,-3.5512,-3.4983,0.0,-3.4572,-3.4357,-3.4334,-3.4674,-3.4694,-3.4812,-3.5088,-3.5171,-3.5722,-3.6922,-3.7007,-3.7397,-3.8262,-3.8766,-3.9685,-4.1085,-4.1072,-4.117,0.0,0.0,0.0,0.0,0.0,0.0,0.0,0.0,0.0,0.0,0.0,0.0,0.0,0.0,0.0,0.0,0.0,0.0,0.0,0.0,0.0,0.0,-2.5399,-2.5851,-2.7063,-2.6842,-2.6672,-2.6991,-2.7557,-2.7987,-2.8239,-2.911,-2.9898,-3.0568,-3.1307,-3.1815,-3.1923,-3.2451,-3.2457,-3.18,-3.1714,-3.1307,-3.0509,-3.0641,-3.0581,-3.0277,-3.0581,-3.0111,-2.8974,-2.9278,-2.8764,-2.7625,-2.7625,-2.8255,-2.9406,-2.9406,-3.0218,0.0,0.0,0.0,0.0,0.0,-3.5771,-3.5881,-3.6707,-3.6688,-3.645,-3.7386,-3.7761,-3.8018,-3.8848,-3.9411,-3.9749,-3.9623,-3.9409,-3.8946,-3.7957,-3.7323,-3.6721,-3.5749,-3.5264,-3.4982,-3.4769,-3.4716,-3.4813,-3.5105,-3.5155,0.0,-3.5766,-3.5962,-3.5723,-3.4851,-3.4695,-3.4694,-3.4694,-3.4634,-3.4696,-3.4999,-3.5053,-3.5238,-3.5733,-3.5854,0.0,0.0,0.0,-3.8478,-3.9335,-4.0473,0.0,0.0,0.0,0.0,0.0,0.0,0.0,0.0,-4.1293,-4.1238,0.0,0.0,0.0,0.0,0.0,0.0,0.0,0.0,0.0,0.0,0.0,0.0,0.0,0.0,0.0,0.0,-2.6548,-2.6471,-2.7624,-2.6416,-2.5667,-2.6282,-2.6889,-2.7429,-2.7941,-2.8528,-2.8926,-2.903,-3.0023,-3.0519,-3.0282,-3.0947,0.0,0.0,0.0,-3.0248,-2.9505,-2.9841,-2.9671,-2.8991,-2.9651,-2.9364,-2.8195,-2.8958,-2.8607,-2.7505,-2.7505,-2.8179,-2.939,-2.9326,-3.0294,-3.1985,-3.3193,-3.3253,-3.2834,-3.4324,-3.4844,-3.4972,-3.5862,0.0,0.0,-3.6287,-3.664,-3.713,-3.7999,-3.8455,-3.8652,-3.8652,-3.8222,-3.7571,-3.6726,-3.5761,-3.4972,-3.488,-3.4321,-3.3876,-3.4147,-3.42,-3.4311,-3.4614,-3.4694,-3.4674,-3.4653,-3.487,-3.487,-3.4292,-3.4486,-3.4694,-3.4694,-3.4944,-3.5207,-3.546,0.0,0.0,-3.6642,-3.6801,-3.7656,-3.9474,-3.9697,-4.0188,-4.1164,-4.2618,-4.3505,-4.3685,-4.4446,-4.5186,-4.5902,-4.5536,-4.5368,-4.5357,-4.4442,-4.416,0.0,0.0,0.0,0.0,0.0,0.0,0.0,0.0,0.0,0.0,0.0,0.0,0.0,0.0,0.0,-2.6423,-2.6412,-2.6268,-2.5826,-2.4964,-2.4847,-2.6091,-2.6687,-2.7054,-2.7278,-2.7741,-2.8405,-2.9334,-2.9959,-3.0389,-3.0668,-3.113,-3.1202,-3.0828,-3.0765,-3.0358,-2.9488,-2.9592,-2.9418,-2.9011,-2.9127,0.0,-2.7518,-2.8179,-2.7889,-2.6782,-2.6782,-2.7811,-2.9358,-2.881,-3.0062,-3.2435,-3.3033,-3.34,-3.3597,-3.3918,-3.4027,-3.4156,-3.4981,-3.4835,-3.454,-3.6118,-3.64,-3.6281,-3.7112,-3.7583,0.0,-3.7261,-3.7025,-3.6682,-3.5615,-3.5184,-3.4825,-3.4192,-3.3917,-3.3876,-3.4147,-3.42,-3.4311,-3.4614,-3.4694,-3.4593,-3.4357,-3.4572,-3.4634,-3.4246,-3.4486,-3.4694,-3.4694,-3.4944,-3.5207,-3.546,-3.5493,-3.5834,-3.6642,-3.6719,-3.756,-3.949,-4.0315,-4.1443,-4.3007,-4.3291,-4.4035,-4.5395,-4.558,-4.5735,-4.5899,-4.5822,-4.577,-4.5778,-4.5537,-4.5791,0.0,0.0,0.0,0.0,0.0,0.0,0.0,0.0,0.0,0.0,0.0,-2.6651,-2.6702,0.0,-2.7175,-2.7072,-2.6735,-2.6236,-2.5504,-2.4841,-2.4693,-2.5422,-2.5399,-2.5657,-2.6539,-2.6873,-2.7474,-2.8613,-2.9444,-2.9815,-2.9593,-3.0341,-3.054,-2.9937,-3.0098,-2.9719,-2.8714,-2.8876,-2.8561,-2.7841,-2.8213,-2.7948,-2.7122,-2.7586,-2.7303,-2.6488,-2.6488,-2.7208,-2.8421,-2.9454,-3.0473,-3.1501,-3.2947,-3.3606,-3.3807,-3.3807,-3.3807,-3.3889,-3.4415,-3.4345,-3.4191,-3.5324,-3.5616,-3.5609,-3.6304,-3.661,-3.6649,-3.6213,-3.598,-3.5631,-3.4669,-3.4412,-3.4302,-3.3899,-3.3807,-3.3876,-3.4147,-3.42,-3.4311,-3.4614,-3.4572,-3.4401,-3.4223,-3.4237,-3.4237,-3.4218,-3.4486,-3.4734,-3.4889,-3.5122,-3.5354,-3.5493,-3.5493,-3.6007,-3.7257,-3.82,-3.9185,-4.0134,-4.1148,-4.2285,-4.3594,-4.4008,-4.4805,-4.6089,-4.6108,-4.6108,-4.6108,-4.6033,-4.5999,-4.6007,-4.6334,-4.6935,0.0,0.0,0.0,0.0,0.0,0.0,0.0,-2.7957,-2.7738,-2.7566,-2.7631,-2.7793,-2.8058,-2.7911,-2.7817,-2.7984,-2.717,-2.636,-2.5883,-2.5174,-2.4696,-2.4696,-2.428,-2.4517,-2.5929,-2.6208,-2.6713,-2.7698,-2.8748,-2.9114,-2.8551,-2.9442,-2.9677,-2.9012,-2.9243,-2.89,-2.7897,-2.8097,-2.7702,-2.6708,-2.73,-2.7289,-2.6738,-2.7089,-2.692,-2.6352,-2.6623,-2.6963,-2.755,-3.0092,-3.0827,-3.054,-3.2721,-3.3568,-3.3587,-3.3733,-3.3842,-3.3902,-3.4123,-3.4246,-3.4357,-3.4655,-3.4926,-3.5167,-3.555,-3.5656,-3.559,-3.5254,-3.4984,-3.4633,-3.3972,-3.3807,-3.3807,-3.3807,-3.3842,-3.3954,-3.4152,-3.4246,-3.4379,-3.4653,-3.4467,-3.4311,-3.4311,-3.4117,-3.4037,-3.4195,-3.4486,-3.4812,-3.507,-3.532,-3.5493,-3.5493,-3.5641,-3.643,-3.8104,-3.9811,-4.0797,-4.0805,-4.1794,-4.2773,-4.3652,-4.4531,-4.541,-4.6289,-4.6308,-4.6308,-4.6308,-4.6197,-4.6144,-4.6162,-4.6931,-4.7711,-2.875,-2.709,-2.6181,-2.7675,-2.7536,-2.7582,0.0,-2.9436,-2.866,-2.8423,-2.8796,-2.8891,-2.8018,-2.8112,-2.8314,-2.835,-2.7405,-2.6669,-2.6599,-2.5296,-2.4349,-2.4349,-2.4663,-2.5051,-2.5543,-2.6231,-2.6819,-2.7238,-2.807,-2.8656,-2.8929,-2.9067,-2.9085,-2.8994,-2.8681,-2.8327,-2.7897,-2.7587,-2.7169,-2.6691,-2.6776,-2.657,-2.6109,-2.6705,-2.6685,-2.6309,-2.7421,-2.7783,-2.7702,-2.9575,-3.0487,-3.0872,-3.2218,-3.2742,-3.2834,-3.3532,-3.3961,-3.4171,-3.4176,-3.4401,-3.4694,-3.4963,-3.5088,-3.5072,-3.4887,-3.4826,-3.4722,-3.416,-3.3944,-3.3917,-3.3825,-3.3807,-3.3807,-3.3807,-3.3986,-3.4152,-3.42,-3.4423,-3.4653,-3.4694,-3.4674,-3.4653,-3.4653,-3.4612,-3.4508,-3.4223,-3.4486,-3.4812,-3.507,-3.532,-3.5493,-3.5493,-3.6142,-3.7276,-3.9008,-4.0119,-4.0739,-4.0805,-4.1755,-4.2734,-4.3652,-4.4531,-4.541,-4.6289,-4.6308,-4.6308,-4.6308,-4.6288,-4.6285,-4.63,-4.7171,-4.7883,-2.7764,-2.7297,-2.7322,-2.8022,-2.8272,-2.8571,-2.9421,-2.8739,-2.7843,-2.7619,-2.7679,-2.7643,-2.7184,-2.7331,-2.7405,-2.7055,-2.6682,-2.6188,-2.5419,-2.4731,-2.4253,-2.4144,-2.4748,-2.5211,-2.5321,-2.5524,-2.6213,-2.7622,-2.7492,-2.7812,-2.8938,-2.8576,-2.8521,-2.8975,-2.859,-2.8237,-2.7897,-2.75,-2.7083,-2.6691,-2.6691,-2.659,-2.6418,-2.6383,-2.6258,-2.6124,-2.6853,-2.7248,-2.753,-2.9184,-2.9673,-2.9611,-3.177,-3.241,-3.226,-3.339,-3.3961,-3.4242,-3.4423,-3.4675,-3.4981,-3.5258,-3.532,-3.5239,-3.4832,-3.4694,-3.4569,-3.3979,-3.3807,-3.3807,-3.3807,-3.3807,-3.3807,-3.3807,-3.3993,-3.4246,-3.4445,-3.4715,-3.4981,-3.5157,-3.5053,-3.4926,-3.4926,-3.4793,-3.4714,-3.4716,-3.4851,-3.5016,-3.5304,-3.5432,-3.568,-3.6161,-3.6949,-3.7969,-3.9181,-4.0158,-4.0718,-4.079,-4.1744,-4.2715,-4.3652,-4.4531,-4.5366,-4.6183,-4.6261,-4.6223,-4.6075,-4.6223,-4.6269,-4.6191,-4.6647,-4.753,-2.6961,-2.7128,-2.754,-2.7754,-2.8257,-2.8685,-2.8732,-2.7988,-2.7236,-2.7093,-2.6916,-2.678,-2.678,-2.6879,-2.6842,-2.6384,-2.6268,-2.588,-2.491,-2.4595,-2.4478,-2.4542,-2.506,-2.5523,-2.5838,-2.5666,-2.605,-2.7344,-2.7169,-2.7485,-2.8613,-2.8338,-2.8347,-2.8821,-2.8464,-2.8102,-2.7754,-2.7334,-2.7004,-2.6691,-2.6691,-2.6691,-2.6691,-2.6367,-2.6245,-2.6368,-2.6639,-2.7043,-2.7695,-2.8801,-2.9029,-2.8901,-3.117,-3.1825,-3.1699,-3.2906,-3.3822,-3.447,-3.4734,-3.4981,-3.5239,-3.5432,-3.5493,-3.5398,-3.4944,-3.4793,-3.4714,-3.4208,-3.3979,-3.3928,-3.4012,-3.3928,-3.3842,-3.4005,-3.4189,-3.4423,-3.4754,-3.5016,-3.5273,-3.546,-3.5335,-3.5207,-3.5207,-3.5053,-3.4981,-3.519,-3.5207,-3.5289,-3.5479,-3.5699,-3.6161,-3.6969,-3.7834,-3.87,-3.9546,-4.0254,-4.0793,-4.112,-4.2057,-4.3022,-4.3965,-4.4883,-4.5596,-4.6082,-4.6201,-4.6125,-4.5899,-4.6086,-4.6136,-4.6041,-4.6139,-4.7115,-2.6805,-2.6256,-2.5867,-2.6657,-2.6861,-2.707,-2.7856,-2.7757,-2.7489,-2.7475,-2.7335,-2.7196,-2.7196,-2.7196,-2.7177,-2.7161,-2.6519,-2.5992,-2.5938,-2.5273,-2.5077,-2.5846,-2.5789,-2.616,-2.7399,-2.7294,-2.6752,-2.5837,-2.7195,-2.7987,-2.7846,-2.8558,-2.8797,-2.842,-2.8102,-2.7707,-2.7334,-2.6939,-2.6725,-2.6691,-2.6691,-2.6691,-2.6691,-2.6691,-2.6906,-2.7255,-2.7255,-2.7689,-2.8368,-2.8412,-2.8808,-2.9446,-3.0323,-3.0766,-3.1035,-3.1864,-3.3393,-3.5069,-3.5088,-3.5254,-3.5493,-3.5493,-3.5493,-3.5446,-3.5174,-3.5088,-3.5016,-3.4754,-3.4423,-3.4246,-3.4591,-3.4232,-3.3954,-3.4548,-3.4674,-3.4754,-3.5016,-3.5304,-3.5493,-3.5493,-3.5493,-3.5493,-3.5493,-3.5493,-3.5479,-3.5493,-3.5493,-3.5493,-3.5493,-3.618,-3.7007,-3.7873,-3.8738,-3.9585,-4.0392,-4.0489,-4.0912,-4.1893,-4.2837,-4.3797,-4.4726,-4.5723,-4.6201,-4.6102,-4.61,-4.6051,-4.5899,-4.5902,-4.5896,-4.5907,-4.5907,-4.6852,-2.5566,-2.5896,-2.6281,-2.6693,-2.6834,-2.6936,-2.7149,-2.6532,-2.5888,-2.585,-2.5716,-2.5611,-2.5611,-2.5747,-2.5827,-2.5695,-2.5519,-2.5373,-2.5219,-2.4979,-2.5091,-2.5906,-2.6408,-2.6857,-2.7286,-2.6655,-2.6573,-2.743,-2.6877,-2.7116,-2.8521,-2.8075,-2.7767,-2.7676,-2.7073,-2.6708,-2.6558,-2.6173,-2.6218,-2.6691,-2.6691,-2.6691,-2.6725,-2.6971,-2.7178,-2.7317,-2.7833,-2.8166,-2.8428,-2.8883,-2.9188,-2.9487,-3.0432,-3.0958,-3.1257,-3.2077,-3.2909,-3.3705,-3.4105,-3.4791,-3.5493,-3.5493,-3.5493,-3.5446,-3.519,-3.5105,-3.5034,-3.4793,-3.4632,-3.4508,-3.4401,-3.4218,-3.4117,-3.4311,-3.4529,-3.4774,-3.5034,-3.5304,-3.5493,-3.5493,-3.5493,-3.5493,-3.5493,-3.5493,-3.568,-3.6219,-3.6315,-3.6315,-3.6315,-3.7046,-3.7892,-3.8757,-3.9123,-3.9623,-4.0431,-4.0489,-4.0931,-4.1931,-4.2879,-4.3821,-4.4765,-4.5762,-4.6199,-4.5972,-4.6059,-4.596,-4.5713,-4.5825,-4.5883,-4.5849,-4.6472,-4.7384,-2.4974,-2.5546,-2.6139,-2.6298,-2.6364,-2.6399,-2.6359,-2.5772,-2.5225,-2.516,-2.5082,-2.505,-2.5018,-2.5149,-2.5236,-2.5109,-2.5146,-2.5153,-2.5031,-2.4949,-2.531,-2.6412,-2.6855,-2.737,-2.8022,-2.7156,-2.6916,-2.7806,-2.7046,-2.7076,-2.8286,-2.7755,-2.7254,-2.6907,-2.6419,-2.6002,-2.5779,-2.5785,-2.6141,-2.6906,-2.6906,-2.7004,-2.7147,-2.7396,-2.7589,-2.7718,-2.8192,-2.8471,-2.8658,-2.9166,-2.9434,-2.9589,-3.0297,-3.0741,-3.1049,-3.1551,-3.2056,-3.2571,-3.3236,-3.416,-3.5045,-3.5045,-3.5257,-3.5479,-3.5289,-3.5239,-3.5207,-3.5034,-3.4926,-3.4813,-3.4696,-3.4513,-3.4423,-3.4617,-3.4755,-3.4926,-3.519,-3.5383,-3.5493,-3.5493,-3.5493,-3.5493,-3.5493,-3.5738,-3.6219,-3.7046,-3.743,-3.7526,-3.7199,-3.793,-3.8681,-3.9238,-3.9546,-3.9931,-4.045,-4.0831,-4.1428,-4.2371,-4.3368,-4.4337,-4.5235,-4.5926,-4.6173,-4.5907,-4.5984,-4.5892,-4.5586,-4.5738,-4.5776,-4.5757,-4.6664,-4.7548,-2.4998,-2.5179,-2.5398,-2.5485,-2.55,-2.5505,-2.5504,-2.5503,-2.5486,-2.5418,-2.5457,-2.5476,-2.5424,-2.5449,-2.5469,-2.5486,-2.5509,-2.5532,-2.5542,-2.5317,-2.5754,-2.7361,-2.7163,-2.7643,-2.9473,-2.8746,-2.7827,-2.7065,-2.7698,-2.7864,-2.7314,-2.7611,-2.7296,-2.6243,-2.6027,-2.56,-2.4964,-2.5715,-2.6476,-2.7265,-2.7265,-2.7495,-2.7897,-2.7926,-2.8102,-2.8394,-2.842,-2.8658,-2.904,-2.931,-2.9514,-2.9748,-2.9939,-3.0182,-3.0398,-3.0398,-3.0929,-3.1756,-3.2564,-3.343,-3.4199,-3.4199,-3.4795,-3.5493,-3.5493,-3.5493,-3.5493,-3.5493,-3.5304,-3.519,-3.5417,-3.5105,-3.4851,-3.5369,-3.5289,-3.5155,-3.5446,-3.5493,-3.5493,-3.5493,-3.5532,-3.5584,-3.5622,-3.6315,-3.7123,-3.795,-3.8815,-3.9046,-3.818,-3.8834,-3.9373,-3.9373,-4.0046,-4.0508,-4.0508,-4.1424,-4.236,-4.315,-4.4276,-4.5263,-4.6065,-4.6222,-4.6175,-4.5924,-4.5902,-4.5796,-4.5605,-4.5586,-4.5586,-4.5605,-4.6547,-4.7375,-2.4814,-2.5006,-2.5229,-2.5456,-2.5531,-2.5566,-2.5561,-2.5568,-2.5562,-2.5486,-2.5496,-2.5492,-2.5488,-2.6018,-2.6471,-2.6508,-2.6988,-2.7355,-2.7395,-2.6582,-2.6534,-2.8001,-2.7434,-2.751,-2.9037,-2.8931,-2.8684,-2.8482,-2.8248,-2.8225,-2.8516,-2.7785,-2.6983,-2.6144,-2.5234,-2.4633,-2.4497,-2.5261,-2.6051,-2.6852,-2.6852,-2.7236,-2.7897,-2.8156,-2.8316,-2.842,-2.8725,-2.9026,-2.931,-2.9533,-2.9729,-2.9954,-3.0196,-3.0343,-3.0398,-3.0398,-3.0533,-3.0852,-3.1718,-3.2968,-3.4199,-3.4199,-3.4795,-3.5493,-3.5493,-3.5493,-3.5493,-3.5493,-3.5446,-3.5369,-3.5223,-3.5105,-3.5016,-3.5174,-3.5138,-3.5155,-3.5446,-3.5493,-3.5493,-3.5493,-3.5988,-3.6603,-3.7257,-3.8065,-3.87,-3.8931,-3.9662,-3.9927,-3.9138,-3.9792,-4.0369,-4.0408,-4.06,-4.0716,-4.0716,-4.154,-4.2439,-4.3306,-4.4324,-4.5263,-4.6065,-4.6222,-4.6229,-4.6044,-4.5944,-4.5853,-4.5757,-4.5643,-4.5586,-4.5624,-4.7105,-4.7894,-2.4836,-2.5019,-2.5244,-2.5437,-2.5537,-2.5554,-2.5585,-2.5612,-2.562,-2.5528,-2.5522,-2.5531,-2.5472,-2.6165,-2.6773,-2.6802,-2.7513,-2.8044,-2.8056,-2.7421,-2.7357,-2.8442,-2.79,-2.7881,-2.9071,-2.8754,-2.8484,-2.8484,-2.8489,-2.8574,-2.8731,-2.7591,-2.6597,-2.587,-2.48,-2.4324,-2.4521,-2.496,-2.5608,-2.6391,-2.6738,-2.7253,-2.7882,-2.842,-2.8658,-2.8682,-2.9026,-2.9267,-2.9414,-2.9713,-2.9908,-3.0028,-3.0299,-3.0398,-3.0398,-3.0398,-3.0398,-3.0456,-3.0968,-3.2237,-3.368,-3.4083,-3.4795,-3.5493,-3.5493,-3.5493,-3.5493,-3.5493,-3.5493,-3.5479,-3.5304,-3.5273,-3.5273,-3.5273,-3.5273,-3.5304,-3.5479,-3.5493,-3.5603,-3.5968,-3.6699,-3.7546,-3.8411,-3.8969,-3.9431,-3.985,-4.0312,-4.0466,-4.0138,-4.0446,-4.0718,-4.0803,-4.0796,-4.0951,-4.135,-4.2218,-4.312,-4.4009,-4.4978,-4.5715,-4.6173,-4.6261,-4.623,-4.6094,-4.604,-4.5925,-4.5796,-4.5719,-4.5643,-4.5624,-4.7317,-4.8105,-2.4937,-2.513,-2.5322,-2.5466,-2.5503,-2.5516,-2.5572,-2.5637,-2.5658,-2.5525,-2.554,-2.5543,-2.5428,-2.6081,-2.6713,-2.6845,-2.7621,-2.822,-2.8325,-2.8102,-2.8195,-2.8891,-2.8506,-2.8446,-2.9191,-2.8431,-2.7822,-2.7705,-2.8327,-2.8557,-2.8189,-2.7064,-2.6099,-2.5358,-2.4584,-2.4363,-2.4721,-2.4739,-2.5118,-2.5935,-2.6627,-2.7263,-2.7824,-2.8521,-2.8883,-2.8998,-2.9289,-2.9433,-2.9474,-2.9845,-3.0013,-3.0075,-3.0311,-3.0398,-3.0398,-3.0398,-3.0398,-3.0417,-3.0533,-3.1602,-3.3026,-3.3776,-3.4699,-3.5493,-3.5493,-3.5493,-3.5493,-3.5493,-3.5493,-3.5493,-3.5493,-3.5493,-3.5493,-3.5493,-3.5493,-3.5493,-3.5493,-3.557,-3.593,-3.6873,-3.7661,-3.845,-3.9296,-3.945,-3.9738,-4.0581,-4.0696,-4.0773,-4.0966,-4.085,-4.0816,-4.0991,-4.1013,-4.1363,-4.2247,-4.3225,-4.4098,-4.4866,-4.5782,-4.6308,-4.6308,-4.6308,-4.625,-4.6133,-4.6113,-4.6006,-4.5803,-4.5794,-4.5738,-4.5624,-4.7317,-4.8105,-2.4828,-2.5049,-2.5322,-2.5466,-2.5503,-2.5526,-2.5584,-2.5611,-2.5599,-2.5522,-2.5478,-2.5428,-2.5409,-2.5929,-2.6687,-2.7624,-2.8278,-2.9016,-3.0019,-2.9265,-2.8965,-2.9836,-2.9049,-2.8472,-2.8553,-2.8405,-2.7941,-2.712,-2.7193,-2.7149,-2.6933,-2.6078,-2.5232,-2.4454,-2.4278,-2.4244,-2.4295,-2.4295,-2.4716,-2.5523,-2.5651,-2.6442,-2.7787,-2.7934,-2.8374,-2.8998,-2.9289,0.0,-2.9661,-2.9908,-3.0136,-3.0343,-3.0379,-3.0398,-3.0398,-3.0398,-3.0398,-3.0494,-3.1218,-3.2102,-3.291,-3.3083,-3.4199,-3.5493,-3.5493,-3.5493,-3.5493,-3.5493,-3.5493,-3.5493,-3.5493,-3.5493,-3.5493,-3.5493,-3.5493,-3.5493,-3.5493,-3.6026,-3.6969,-3.8546,-3.8969,-3.9335,-4.0142,-4.0277,-4.0389,-4.0658,-4.0696,-4.0773,-4.0966,-4.0966,-4.1246,-4.2036,-4.2124,-4.2475,-4.3354,-4.4247,-4.4826,-4.4962,-4.5817,-4.6308,-4.6308,-4.6308,-4.6289,-4.6269,-4.6152,-4.603,-4.5871,-4.5823,-4.5738,-4.5624,-4.7317,-4.8105,-2.4312,-2.4407,-2.4568,-2.4773,-2.4826,-2.4948,-2.5446,-2.5539,-2.5524,-2.5461,-2.5415,-2.539,-2.5341,-2.5868,-2.6473,-2.7024,-2.7747,-2.8717,-3.0137,-2.9628,-2.9581,-3.0884,-3.0067,-2.9188,-2.8698,-2.8123,-2.7403,-2.6497,-2.5963,-2.5931,-2.6557,-2.5841,-2.5035,-2.4226,-2.419,-2.419,-2.419,-2.419,-2.4392,-2.4777,-2.5201,-2.5807,-2.6576,-2.742,-2.8077,-2.8577,-2.9249,-2.9661,-2.9877,-3.0109,-3.0279,-3.0398,-3.0398,-3.0398,-3.0398,-3.0398,-3.0698,-3.1141,-3.1545,-3.2526,-3.3583,-3.3583,-3.4449,-3.5493,-3.5493,-3.5493,-3.5493,-3.5493,-3.5493,-3.5493,-3.5493,-3.5493,-3.5493,-3.5493,-3.5834,-3.6257,-3.6699,-3.7488,-3.8349,-3.9196,-3.9754,-4.0196,-4.06,-4.0658,-4.0696,-4.0831,-4.085,-4.0908,-4.1078,-4.1463,-4.19,-4.234,-4.2812,-4.3437,-4.4297,-4.4766,-4.5195,-4.5644,-4.6074,-4.6308,-4.6308,-4.6308,-4.6308,-4.6308,-4.623,-4.6095,-4.5899,-4.5868,-4.6007,-4.6317,-4.7528,-4.8336,-2.3842,-2.3872,-2.3985,-2.4302,-2.4384,-2.4573,-2.5317,-2.5484,-2.5457,-2.533,-2.5311,-2.5301,-2.5212,-2.5602,-2.5975,-2.6205,-2.6956,-2.8114,-2.9804,-2.9893,-3.0271,-3.1562,-3.1022,-3.0057,-2.883,-2.7899,-2.6929,-2.5878,-2.5042,-2.5001,-2.6046,-2.5535,-2.4929,-2.4266,-2.4247,-2.4247,-2.4247,-2.4247,-2.4247,-2.4266,-2.4871,-2.537,-2.5818,-2.705,-2.7913,-2.8503,-2.9377,-2.9861,-3.0013,-3.0299,-3.0398,-3.0398,-3.0398,-3.0398,-3.0398,-3.0398,-3.0948,-3.1698,-3.1698,-3.2795,-3.4199,-3.4199,-3.4795,-3.5493,-3.5493,-3.5493,-3.5493,-3.5493,-3.5493,-3.5493,-3.5493,-3.5493,-3.5532,-3.5718,-3.6257,-3.7026,-3.8065,-3.8888,-3.949,-3.9675,-4.0307,-4.0795,-4.0795,-4.0795,-4.0844,-4.0981,-4.0985,-4.1118,-4.1422,-4.2175,-4.2751,-4.2947,-4.3574,-4.4336,-4.5195,-4.5273,-4.5564,-4.6222,-4.6257,-4.6248,-4.6221,-4.6204,-4.6204,-4.6204,-4.6204,-4.6099,-4.588,-4.5881,-4.622,-4.6932,-4.774,-4.8567,-2.3915,-2.4112,-2.4381,-2.4877,-2.5024,-2.5091,-2.5341,-2.5399,-2.533,-2.5096,-2.5053,-2.5005,-2.4869,-2.4742,-2.4944,-2.588,-2.6545,-2.7635,-2.9554,-3.0579,-3.12,-3.1418,-3.1561,-3.0704,-2.8318,-2.7992,-2.7146,-2.532,-2.4917,-2.4666,-2.4429,-2.4523,-2.4552,-2.4478,-2.4478,-2.4478,-2.4478,-2.4478,-2.4478,-2.4461,-2.4358,-2.5282,-2.7027,-2.6989,-2.7923,-2.9583,-2.9855,-2.9984,0.0,-3.0299,-3.0398,-3.0398,-3.0398,-3.0398,-3.0398,-3.0398,-3.0948,-3.1698,-3.1698,-3.2795,-3.4199,-3.4199,-3.4795,-3.5493,-3.5493,-3.5493,-3.5493,-3.5493,-3.5493,-3.5493,-3.5493,-3.5493,-3.568,-3.643,-3.6733,-3.7324,-3.8941,-3.9422,-3.9805,-4.0538,-4.0729,-4.0807,-4.0807,-4.0807,-4.0849,-4.0988,-4.0985,-4.1311,-4.219,-4.3042,-4.3884,-4.4687,-4.4824,-4.5234,-4.6113,-4.6172,-4.6162,-4.6113,-4.6105,-4.6054,-4.5944,-4.5932,-4.5932,-4.5932,-4.5932,-4.5889,-4.5808,-4.5813,-4.6182,-4.6932,-4.774,-4.8567,-2.2571,-2.2954,-2.3412,-2.3743,-2.3999,-2.4309,-2.4892,-2.5044,-2.5013,-2.491,-2.4877,-2.485,-2.4818,-2.447,-2.4321,-2.4724,-2.4819,-2.5642,-2.7929,-2.8876,-2.9744,-3.0729,-3.1274,-3.0774,-2.8781,-2.8235,-2.7186,-2.5245,-2.5152,-2.4987,-2.4575,-2.4639,-2.4685,-2.4685,-2.4685,-2.4685,-2.4685,-2.4685,-2.4685,-2.4685,-2.4591,-2.4976,-2.5771,-2.6167,-2.7113,-2.8464,-2.9032,-2.9631,0.0,-3.0355,-3.0398,-3.0398,-3.0398,-3.0398,-3.0456,-3.0987,-3.1718,-3.2506,-3.3026,-3.3987,-3.4988,-3.4988,-3.5218,-3.5493,-3.5493,-3.5493,-3.5493,-3.5493,-3.5493,-3.5493,-3.5493,-3.5545,-3.5911,-3.7291,-3.7676,-3.8207,-3.9893,-4.0346,-4.0545,-4.0855,-4.0991,-4.1049,-4.1049,-4.1049,-4.1055,-4.1103,-4.1117,-4.1427,-4.2284,-4.3164,-4.4023,-4.4902,-4.5469,-4.5918,-4.6269,-4.6308,-4.6231,-4.6114,-4.6103,-4.6034,-4.5916,-4.5896,-4.5896,-4.5896,-4.5896,-4.5862,-4.5796,-4.5796,-4.6432,-4.7625,-4.7952,-4.8856,-2.1369,-2.1926,-2.2602,-2.2904,-2.3299,-2.3821,-2.4512,-2.4723,-2.4756,-2.4598,-2.4567,-2.45,-2.4366,-2.3913,-2.3593,-2.3593,-2.3638,-2.4449,-2.6623,-2.772,-2.89,-3.0408,-3.1162,-3.0906,-2.9279,-2.8229,-2.7075,-2.5716,-2.5485,-2.5288,-2.4987,-2.4955,-2.491,-2.4869,-2.4869,-2.4869,-2.4869,-2.4869,-2.4869,-2.4869,-2.4832,-2.5125,-2.5728,-2.6247,-2.7186,-2.8447,-2.9027,-2.9704,0.0,-3.0398,-3.0398,-3.0398,-3.0398,-3.0398,-3.0513,-3.1391,-3.2218,-3.3026,-3.3891,-3.4776,-3.5493,-3.5493,-3.5493,-3.5493,-3.5493,-3.5493,-3.5493,-3.5493,-3.5526,-3.5545,-3.5545,-3.5776,-3.6394,-3.788,-3.8485,-3.9122,-4.0546,-4.0964,-4.1059,-4.1059,-4.1145,-4.1191,-4.1191,-4.1191,-4.1191,-4.1191,-4.1191,-4.1582,-4.2656,-4.332,-4.4121,-4.5254,-4.5937,-4.6308,-4.6308,-4.6267,-4.6185,-4.6042,-4.6018,-4.595,-4.5815,-4.5815,-4.5815,-4.5815,-4.5815,-4.5796,-4.5738,-4.599,-4.6797,-4.8105,-4.8355,-4.9279,-2.0623,-2.1381,-2.2221,-2.2757,-2.3461,-2.4063,-2.4256,-2.4561,-2.4648,-2.4137,-2.4007,-2.3852,-2.331,-2.2877,-2.2625,-2.2625,-2.3431,-2.4625,-2.6115,-2.7788,-2.9371,-3.0656,-3.1455,-3.1242,-2.9557,-2.7829,-2.6795,-2.6773,-2.5917,-2.5409,-2.538,-2.5322,-2.5203,-2.501,-2.501,-2.501,-2.501,-2.501,-2.501,-2.4998,-2.485,-2.5869,-2.7871,-2.7663,-2.8594,-3.0359,-3.0379,-3.0379,0.0,-3.0398,-3.0398,-3.0398,-3.0398,-3.0398,-3.0513,-3.1391,-3.2218,-3.3026,-3.3891,-3.4776,-3.5493,-3.5493,-3.5493,-3.5493,-3.5493,-3.5493,-3.5493,-3.5493,-3.5565,-3.5603,-3.5603,-3.629,-3.7218,-3.8085,-3.9004,-3.9937,-4.0823,-4.1089,-4.1191,-4.1191,-4.1191,-4.1191,-4.1191,-4.1191,-4.1191,-4.1191,-4.1191,-4.1797,-4.3476,-4.3691,-4.4355,-4.6094,-4.6289,-4.6308,-4.6308,-4.6191,-4.6047,-4.59,-4.5844,-4.5738,-4.5605,-4.5586,-4.5586,-4.5586,-4.5586,-4.5586,-4.5586,-4.6471,-4.7317,-4.8125,-4.8971,-4.9856,-1.9364,-2.0249,-2.1199,-2.1354,-2.2237,-2.3053,-2.311,-2.3426,-2.3648,-2.3494,-2.345,-2.332,-2.286,-2.2505,-2.2451,-2.3042,-2.3276,-2.3829,-2.5156,-2.6532,-2.7531,-2.7888,-2.9301,-2.9926,-2.9142,-2.8272,-2.748,-2.6852,-2.6023,-2.5524,-2.5466,-2.5409,-2.5331,-2.5214,-2.5203,-2.5203,-2.5203,-2.5203,-2.5203,-2.5203,-2.516,-2.5806,-2.7005,-2.6943,-2.7865,-2.9506,-2.9506,-2.9871,-3.0467,-3.0467,-3.0506,-3.0544,-3.0544,-3.0544,-3.0717,-3.2177,-3.289,-3.3295,-3.4718,-3.5411,-3.5641,-3.5641,-3.5641,-3.5641,-3.5641,-3.5584,-3.5526,-3.5565,-3.5584,-3.5753,-3.6387,-3.6845,-3.7494,-3.8914,-3.954,-4.0086,-4.0955,-4.1177,-4.1191,-4.1191,-4.1191,-4.1191,-4.1191,-4.1191,-4.1191,-4.1191,-4.168,-4.2422,-4.3555,-4.4219,-4.5039,-4.6172,-4.6308,-4.6308,-4.6308,-4.618,-4.6037,-4.5911,-4.5825,-4.5738,-4.5605,-4.5586,-4.5586,-4.5586,-4.5586,-4.5586,-4.5586,-4.5874,-4.6721,-4.8144,-4.9606,-5.0433,-1.8271,-1.9111,-1.9965,-1.9965,-2.0936,-2.1883,-2.1883,-2.2436,-2.2919,-2.2813,-2.2905,-2.2905,-2.2548,-2.204,-2.1955,-2.2735,-2.2889,-2.3209,-2.4237,-2.5153,-2.597,-2.6495,-2.8075,-2.9185,-2.9484,-2.8609,-2.783,-2.7361,-2.6256,-2.5587,-2.5534,-2.5481,-2.5423,-2.539,-2.5322,-2.5303,-2.5303,-2.563,-2.563,-2.5303,-2.5967,-2.6563,-2.7101,-2.739,-2.8294,-2.9583,-2.9621,-2.9967,0.0,-3.053,-3.0569,-3.0608,-3.0608,-3.0608,-3.0801,-3.2561,-3.319,-3.3441,-3.5113,-3.5693,-3.5693,-3.5693,-3.5693,-3.5693,-3.5693,-3.5649,-3.5584,-3.5641,-3.568,-3.5926,-3.6832,-3.7394,-3.808,-3.9457,-4.009,-4.0547,-4.1074,-4.1191,-4.1191,-4.1191,-4.1191,-4.1191,-4.1191,-4.1163,-4.1123,-4.1123,-4.1788,-4.2591,-4.3469,-4.4348,-4.521,-4.6069,-4.6147,-4.6147,-4.6147,-4.6066,-4.5993,-4.5853,-4.5776,-4.5699,-4.5586,-4.5586,-4.5586,-4.5586,-4.5586,-4.5586,-4.5586,-4.622,-4.724,-4.8625,-5.0029,-5.0702,0.0,-1.8051,-1.8754,-1.8717,-1.9652,-2.0575,-2.0607,-2.1553,0.0,-2.2079,-2.2317,-2.2537,-2.2383,-2.1669,-2.1343,-2.2173,-2.2632,-2.3065,-2.354,-2.3928,-2.462,-2.6108,-2.7432,-2.8788,-3.0132,-2.8717,-2.7804,-2.8083,-2.6543,-2.5615,-2.5599,-2.5538,-2.5518,-2.5515,-2.538,-2.5303,-2.5303,-2.612,-2.612,-2.5322,-2.7005,-2.7832,-2.7928,-2.8736,-2.9583,-3.0417,-3.0487,-3.0506,-3.0529,-3.0576,-3.06,-3.0623,-3.0623,-3.0623,-3.0837,-3.258,-3.3204,-3.3457,-3.5145,-3.5723,-3.5723,-3.5723,-3.5717,-3.5723,-3.5723,-3.5718,-3.5688,-3.5699,-3.5853,-3.6188,-3.7064,-3.7994,-3.8906,-3.9785,-4.0605,-4.1191,-4.1191,-4.1191,-4.1191,-4.1191,-4.1191,-4.1191,-4.1189,-4.1081,-4.1024,-4.1062,-4.171,-4.25,-4.3384,-4.4248,-4.5074,-4.5813,-4.5891,-4.5891,-4.5891,-4.5891,-4.5863,-4.5794,-4.568,-4.5586,-4.5586,-4.5586,-4.5586,-4.5586,-4.5586,-4.5586,-4.5586,-4.7278,-4.8529,-4.9336,-5.026,-5.0702,-1.7947,0.0,-1.8157,-1.776,-1.846,-1.9358,0.0,-2.0342,-2.0863,-2.1195,0.0,-2.174,-2.2802,-2.236,-2.2611,-2.4916,-2.4992,-2.4745,-2.4782,-2.3932,-2.3533,-2.4109,-2.5701,-2.701,-2.7809,-2.7771,-2.7547,-2.7152,-2.6238,-2.5681,-2.5683,-2.5601,-2.5577,-2.5572,-2.5503,-2.5432,-2.539,-2.5582,-2.5563,-2.5303,-2.639,-2.7285,-2.8007,-2.8805,-2.9679,-3.0544,-3.0564,-3.0602,-3.0652,-3.0681,-3.0736,-3.0834,-3.0834,-3.0834,-3.1029,-3.2728,-3.3353,-3.3607,-3.5325,-3.593,-3.593,-3.593,-3.5931,-3.5924,-3.5924,-3.5811,-3.5708,-3.5817,-3.6348,-3.7107,-3.8034,-3.8938,-3.9805,-4.0684,-4.1055,-4.1191,-4.1191,-4.1191,-4.1191,-4.1191,-4.1191,-4.1175,-4.1071,-4.1021,-4.1197,-4.1761,-4.2568,-4.3404,-4.4292,-4.5117,-4.5692,-4.5885,-4.5905,-4.5885,-4.5827,-4.5827,-4.5819,-4.5796,-4.568,-4.5586,-4.5586,-4.5586,-4.5586,-4.5586,-4.5586,-4.5586,-4.5586,-4.7278,-4.8221,-4.8432,-4.9971,-5.0702,-1.8535,-1.8313,-1.8097,-1.7776,-1.8112,-1.8599,-1.8877,-1.9457,-1.9997,0.0,0.0,-2.1327,-2.2449,-2.2611,-2.3391,-2.5745,-2.6405,-2.6342,-2.5481,-2.4054,-2.321,-2.3554,-2.4574,-2.574,-2.7058,-2.7411,-2.7328,-2.6794,-2.6065,-2.5644,-2.5603,-2.5601,-2.5597,-2.5609,-2.5581,-2.5529,-2.5449,-2.5841,-2.5823,-2.5409,-2.7054,-2.7911,-2.8084,-2.9284,-3.0122,-3.0588,-3.0621,-3.066,-3.0702,-3.077,-3.0829,-3.0898,-3.0898,-3.0898,-3.1094,-3.2773,-3.3398,-3.3652,-3.5391,-3.5996,-3.5996,-3.5996,-3.6007,-3.5997,-3.5997,-3.5919,-3.5947,-3.6411,-3.6876,-3.7546,-3.8863,-3.9551,-4.0117,-4.0996,-4.1191,-4.1191,-4.1191,-4.1191,-4.1302,-4.1636,-4.1381,-4.131,-4.1993,-4.174,-4.172,-4.2492,-4.3297,-4.397,-4.4453,-4.524,-4.5757,-4.5757,-4.5757,-4.5757,-4.5719,-4.5719,-4.5719,-4.5719,-4.5624,-4.5586,-4.5586,-4.5586,-4.5586,-4.5586,-4.5586,-4.5586,-4.5586,-4.7278,-4.8105,-4.8144,-4.9894,-5.0702,-1.9249,-1.8836,-1.8389,-1.813,-1.8135,-1.8197,-1.8192,0.0,0.0,0.0,0.0,0.0,-2.221,-2.3098,0.0,-2.6068,-2.7436,-2.7701,-2.5968,-2.4524,-2.3703,-2.3911,-2.4144,-2.5028,-2.6967,-2.7163,-2.7003,-2.6537,-2.5874,-2.5504,-2.551,-2.5509,-2.5541,-2.5584,-2.5636,-2.5619,-2.552,-2.6255,-2.6309,-2.5725,-2.802,-2.883,-2.8364,-2.9912,-3.0633,-3.0653,-3.0709,0.0,-3.0733,-3.0852,-3.0898,-3.0898,-3.0898,-3.0898,-3.1094,-3.2773,-3.3398,-3.3652,-3.5391,-3.5996,-3.5996,-3.5996,-3.5996,-3.5996,-3.5996,-3.6094,-3.6387,-3.7246,-3.75,-3.7871,-3.9473,-4.0,-4.0273,-4.1016,-4.1191,-4.1191,-4.1162,-4.1177,-4.1398,-4.2126,-4.1662,-4.1634,-4.3119,-4.2698,-4.245,-4.3242,-4.3912,-4.4355,-4.447,-4.5143,-4.5586,-4.5586,-4.5586,-4.5586,-4.5586,-4.5586,-4.5586,-4.5586,-4.5586,-4.5586,-4.5586,-4.5586,-4.5586,-4.5586,-4.572,-4.5797,-4.5797,-4.7471,-4.8298,-4.8336,-4.9952,-5.0702,-2.028,-1.9986,-1.9225,-1.7779,-1.7828,-1.8219,-1.8197,0.0,0.0,0.0,0.0,0.0,0.0,-2.5114,-2.6463,-2.8164,-2.8877,-2.8506,-2.6543,-2.586,-2.5426,-2.5112,-2.5095,-2.545,-2.629,-2.6339,-2.6106,-2.5624,-2.523,-2.5158,-2.5475,-2.5337,-2.5343,-2.5516,-2.5522,-2.5554,-2.5584,-2.5716,-2.6061,-2.6615,-2.7729,-2.8636,-2.9313,-3.0257,-3.0761,-3.0857,0.0,-3.0868,-3.0868,-3.0898,-3.0898,-3.0898,-3.0898,-3.0898,-3.1094,-3.2773,-3.3398,-3.3652,-3.5391,-3.5996,-3.5996,-3.5996,-3.5996,-3.5996,-3.5996,-3.6523,-3.7285,-3.8164,-3.8398,-3.8633,-3.9648,-4.0449,-4.1035,-4.1172,-4.1191,-4.1177,-4.1067,-4.1023,-4.1248,-4.1994,-4.2019,-4.2208,-4.3073,-4.3118,-4.3261,-4.4028,-4.422,-4.4566,-4.5297,-4.5509,-4.5586,-4.5586,-4.5586,-4.5586,-4.5586,-4.5586,-4.5586,-4.5586,-4.5586,-4.5586,-4.5586,-4.5586,-4.5586,-4.5586,-4.6317,-4.6701,-4.6701,-4.8375,-4.9202,-4.9221,-5.0221,-5.0702,-2.0079,-1.976,-1.9138,-1.8356,-1.8416,-1.8712,-1.9074,0.0,0.0,0.0,0.0,0.0,0.0,-2.4818,-2.6246,-2.7279,-2.6296,-2.5125,-2.4295,-2.3422,-2.3086,-2.3669,-2.379,-2.4154,-2.4937,-2.5401,-2.5506,-2.5114,-2.4943,-2.496,-2.5225,-2.5166,-2.5244,-2.5449,-2.5468,-2.5511,-2.5546,-2.5572,-2.5799,-2.621,-2.7579,-2.8424,-2.8909,-3.02,-3.084,-3.0898,0.0,-3.0898,-3.0898,-3.0898,-3.1172,-3.1601,-3.1601,-3.1864,-3.24,-3.36,-3.4288,-3.4765,-3.5564,-3.5841,-3.5841,-3.5841,-3.5841,-3.5841,-3.5841,-3.6458,-3.7312,-3.8194,-3.8854,-3.9492,-4.0371,-4.0855,-4.1088,-4.1088,-4.1033,-4.0978,-4.0916,-4.0899,-4.1108,-4.1899,-4.2044,-4.2417,-4.3588,-4.3797,-4.4066,-4.4874,-4.4989,-4.5143,-4.5547,-4.5586,-4.5586,-4.5586,-4.5586,-4.5586,-4.5586,-4.5586,-4.5586,-4.5586,-4.5586,-4.5586,-4.5586,-4.5586,-4.5586,-4.5586,-4.6471,-4.6913,-4.6913,-4.8353,-4.9198,-4.9413,-5.008,-5.0483,-1.9723,-1.9352,-1.8906,-1.893,0.0,-1.9077,-1.9987,0.0,0.0,0.0,0.0,0.0,0.0,-2.4406,-2.5274,-2.5426,-2.3544,-2.1988,-2.1824,-2.1292,-2.1369,-2.2546,-2.2751,-2.315,-2.4122,-2.4581,-2.4842,-2.486,-2.4771,-2.4821,-2.5065,-2.5067,-2.5177,-2.536,-2.5428,-2.5466,-2.5486,-2.5547,-2.5811,-2.6309,-2.7656,-2.8516,-2.8945,-3.0293,-3.0898,-3.0898,-3.0866,-3.0852,-3.0855,-3.0849,-3.134,-3.2121,-3.2121,-3.2758,-3.373,-3.4339,-3.506,-3.5693,-3.5693,-3.5693,-3.5693,-3.5693,-3.584,-3.5996,-3.5996,-3.6763,-3.7763,-3.8423,-3.9331,-4.0265,-4.0926,-4.1035,-4.0949,-4.0958,-4.0868,-4.0801,-4.0781,-4.0778,-4.1081,-4.2066,-4.2258,-4.2758,-4.4335,-4.4605,-4.4836,-4.549,-4.5586,-4.5586,-4.5586,-4.5586,-4.5586,-4.5586,-4.5586,-4.5586,-4.5586,-4.5586,-4.5586,-4.5586,-4.5586,-4.5586,-4.5586,-4.5586,-4.5701,-4.5893,-4.674,-4.7242,-4.7357,-4.8525,-4.9255,-4.9565,-4.983,-5.0183,-1.9851,-1.9399,-1.8932,-1.9052,-1.8668,0.0,-2.0452,-2.1322,0.0,-2.3896,0.0,0.0,0.0,-2.4922,-2.4124,-2.3376,-2.2638,-2.1773,-2.0506,-2.1903,-2.3209,-2.3493,-2.3414,-2.3732,-2.4746,-2.3988,-2.3875,-2.491,-2.4693,-2.4741,-2.5253,-2.5111,-2.5099,-2.5303,-2.5303,-2.5341,-2.5409,-2.5466,-2.6359,-2.8027,-2.8203,-2.9141,-3.0723,-3.084,-3.0898,-3.0898,-3.077,-3.0709,-3.0711,-3.0651,-3.1137,-3.1923,-3.1923,-3.2947,-3.4428,-3.4499,-3.5007,-3.5701,-3.5701,-3.5701,-3.5701,-3.5701,-3.6246,-3.6906,-3.6906,-3.8089,-3.9427,-3.948,-4.0106,-4.0758,-4.0807,-4.0821,-4.082,-4.0805,-4.0808,-4.0781,-4.0723,-4.0712,-4.1178,-4.272,-4.3028,-4.3547,-4.522,-4.5509,-4.5528,-4.5586,-4.5586,-4.5586,-4.5586,-4.5586,-4.5586,-4.5586,-4.5586,-4.5586,-4.5586,-4.5586,-4.5586,-4.5586,-4.5586,-4.5586,-4.5586,-4.5586,-4.597,-4.6797,-4.7605,-4.822,-4.8686,-4.9558,-5.004,-5.004,-4.9681,-4.9746,-1.9768,-1.9344,-1.8934,-1.894,0.0,0.0,0.0,-2.2028,-2.3193,-2.5086,-2.5878,0.0,0.0,-2.3417,-2.0791,-1.9608,-1.6882,-1.5239,-1.5942,-1.7484,-1.9092,-2.0522,-2.1513,-2.2338,-2.2968,-2.3058,-2.3513,-2.4613,-2.4698,-2.4802,-2.5088,-2.5087,-2.516,-2.536,-2.537,-2.539,-2.5466,-2.5524,-2.6174,-2.74,-2.8012,-2.8652,-2.9316,-3.041,-3.0855,-3.0766,-3.0721,-3.0679,-3.0633,-3.0607,-3.1429,-3.281,-3.3854,-3.4646,-3.5187,-3.5181,-3.5339,-3.5584,-3.5584,-3.5584,-3.5661,-3.6161,-3.6531,-3.6916,-3.7454,-3.845,-3.9407,-3.9411,-3.9988,-4.065,-4.0771,-4.0759,-4.0733,-4.0727,-4.0677,-4.062,-4.0581,-4.0989,-4.1566,-4.2181,-4.3124,-4.4047,-4.4682,-4.524,-4.5586,-4.5586,-4.5586,-4.5586,-4.5586,-4.5586,-4.5586,-4.5586,-4.5419,-4.5302,-4.5302,-4.5096,-4.4988,-4.4988,-4.5362,-4.5586,-4.5586,-4.6124,-4.6567,-4.6894,-4.7968,-4.8602,-4.8791,-4.9174,-4.9475,-4.9719,-4.9326,-4.9356,-1.9708,-1.9487,-1.9238,0.0,0.0,0.0,-2.1418,-2.2763,-2.4186,-2.6538,-2.7254,-2.7196,-2.6359,0.0,-1.9061,-1.6905,-1.3438,-1.1413,-1.2663,-1.4479,-1.6431,-1.8318,-1.9994,-2.1191,-2.1711,-2.2401,-2.3249,-2.4351,-2.4671,-2.4907,-2.5115,-2.5199,-2.5302,-2.5418,-2.5425,-2.5448,-2.5506,-2.5562,-2.6044,-2.6921,-2.7852,-2.8437,-2.8769,-3.0191,-3.0788,-3.0698,-3.066,-3.0602,-3.0583,-3.0833,-3.1948,-3.3673,-3.5084,-3.5622,-3.5584,-3.5584,-3.5545,-3.5493,-3.5493,-3.5493,-3.5641,-3.6449,-3.6892,-3.7276,-3.8142,-3.8988,-3.9681,-3.9681,-4.0065,-4.0543,-4.0677,-4.0677,-4.0639,-4.0639,-4.0581,-4.0566,-4.0854,-4.1373,-4.197,-4.2489,-4.3528,-4.4393,-4.4662,-4.5201,-4.5586,-4.5586,-4.5586,-4.5568,-4.5476,-4.5438,-4.54,-4.5302,-4.5074,-4.4943,-4.4943,-4.4732,-4.458,-4.458,-4.5033,-4.5283,-4.5283,-4.6105,-4.6679,-4.6927,-4.8043,-4.8688,-4.8848,-4.889,-4.9043,-4.9295,-4.8897,-4.893,-1.9738,-1.9872,-1.991,0.0,0.0,0.0,-2.1951,-2.3431,-2.5353,-2.836,-2.9079,-2.8475,-2.6415,-2.3164,-1.9561,-1.5825,-1.3229,-1.1623,-1.1526,-1.3881,-1.6176,-1.7666,-1.9275,-2.0602,-2.1406,-2.216,-2.3064,-2.4221,-2.4615,-2.4984,-2.537,-2.5457,-2.5495,-2.5505,-2.5506,-2.5493,-2.5498,-2.558,-2.6034,-2.6911,-2.7855,-2.8769,-2.9629,-3.0377,-3.0698,-3.0679,-3.0564,-3.0506,-3.0564,-3.1391,-3.2699,-3.4276,-3.5161,-3.5493,-3.5493,-3.5493,-3.5493,-3.5493,-3.5493,-3.5526,-3.5641,-3.6449,-3.7296,-3.8161,-3.9046,-3.9873,-4.0489,-4.0489,-4.0489,-4.0489,-4.0489,-4.0489,-4.0489,-4.0489,-4.0489,-4.0739,-4.1604,-4.1816,-4.2316,-4.397,-4.4316,-4.4586,-4.5451,-4.5586,-4.5586,-4.5586,-4.5586,-4.5457,-4.5159,-4.5096,-4.4966,-4.465,-4.4599,-4.458,-4.458,-4.458,-4.458,-4.458,-4.458,-4.458,-4.458,-4.5364,-4.6175,-4.6976,-4.7778,-4.845,-4.8897,-4.8897,-4.8897,-4.8897,-4.8477,-4.8513,-1.9061,-1.9183,0.0,-1.9819,0.0,0.0,0.0,-2.3333,0.0,0.0,-2.9257,-2.994,-2.924,-2.7622,-2.4414,-1.8345,-1.3412,-1.0162,-0.984,-1.1997,-1.4763,-1.7963,-1.9263,-2.0299,-2.1376,-2.1997,-2.2882,-2.4266,-2.4814,-2.5206,-2.5454,-2.5492,-2.5517,-2.5563,-2.5488,-2.5466,-2.556,-2.6144,-2.6576,-2.6849,-2.8301,-2.9213,-2.9629,-3.0455,-3.0756,-3.0621,-3.0583,-3.0525,-3.0544,-3.1968,-3.3199,-3.4276,-3.5161,-3.5493,-3.5493,-3.5493,-3.5493,-3.5493,-3.5493,-3.5872,-3.6488,-3.7334,-3.82,-3.9065,-3.9892,-4.0296,-4.0489,-4.0489,-4.0489,-4.0489,-4.0489,-4.0489,-4.0489,-4.0489,-4.0489,-4.0739,-4.1604,-4.2277,-4.3028,-4.4085,-4.4797,-4.5297,-4.5547,-4.5586,-4.5586,-4.5586,-4.54,-4.5118,-4.4781,-4.4751,-4.4707,-4.4606,-4.4364,-4.4175,-4.4175,-4.3943,-4.3823,-4.3823,-4.3823,-4.4065,-4.458,-4.5919,-4.6768,-4.6994,-4.8096,-4.8768,-4.8897,-4.864,-4.8495,-4.8495,-4.8364,-4.8364,-1.8767,-1.8971,0.0,-1.9503,-1.9864,-2.0444,-2.1714,0.0,0.0,0.0,-2.905,-2.9674,-2.9081,-2.8058,-2.548,-1.9852,-1.5159,-1.2015,-1.15,-1.2606,-1.4868,-1.8531,-1.9409,-2.017,-2.1358,-2.1926,-2.2693,-2.3839,-2.472,-2.5279,-2.5486,-2.5522,-2.5554,-2.5553,-2.5487,-2.5483,-2.5572,-2.6376,-2.6958,-2.7337,-2.8659,-2.9537,-3.0015,-3.054,-3.0698,-3.0602,-3.0544,-3.0679,-3.1025,-3.2352,-3.341,-3.4276,-3.5161,-3.5493,-3.5493,-3.5493,-3.5493,-3.5493,-3.5493,-3.5739,-3.6255,-3.7424,-3.8172,-3.884,-3.9974,-4.0425,-4.0489,-4.0489,-4.0422,-4.0339,-4.0339,-4.023,-4.0193,-4.0438,-4.0758,-4.1258,-4.2124,-4.2989,-4.3816,-4.4662,-4.524,-4.5586,-4.5586,-4.5586,-4.5549,-4.5419,-4.4969,-4.4587,-4.4392,-4.4252,-4.4154,-4.4154,-4.3943,-4.3804,-4.3804,-4.3631,-4.3497,-4.3497,-4.3497,-4.3826,-4.4591,-4.5873,-4.6713,-4.7049,-4.811,-4.8657,-4.8657,-4.8421,-4.8306,-4.8306,-4.8306,-4.8306,-1.8342,0.0,0.0,-1.8791,-1.8979,0.0,-2.1039,-2.4401,-2.74,-2.7994,0.0,-2.8076,-2.6885,-2.5705,-2.3877,-2.0628,-1.8128,-1.6373,-1.5749,-1.543,-1.6363,-1.9322,-1.9831,-2.0349,-2.1368,-2.1994,-2.2598,-2.3229,-2.4467,-2.5272,-2.5507,-2.5564,-2.5563,-2.5505,-2.5466,-2.5466,-2.5466,-2.631,-2.719,-2.8068,-2.889,-2.9733,-3.0583,-3.0583,-3.0583,-3.0564,-3.0448,-3.0879,-3.1731,-3.2519,-3.3365,-3.4216,-3.5086,-3.5432,-3.5432,-3.5432,-3.5432,-3.5432,-3.5432,-3.5312,-3.5432,-3.6957,-3.7547,-3.7965,-3.9566,-4.0232,-4.0422,-4.0422,-4.025,-4.0042,-4.0042,-3.9819,-3.9754,-4.0379,-4.1135,-4.1961,-4.2859,-4.3686,-4.4512,-4.5395,-4.5549,-4.5531,-4.5513,-4.5513,-4.5381,-4.5033,-4.4409,-4.3986,-4.3955,-4.3693,-4.3497,-4.3497,-4.3497,-4.3497,-4.3497,-4.3497,-4.3497,-4.3497,-4.3497,-4.3883,-4.4782,-4.5516,-4.6287,-4.7095,-4.7902,-4.8306,-4.8306,-4.8306,-4.8306,-4.8306,-4.8306,-4.8306,-1.4677,-1.426,0.0,0.0,-1.7823,-1.9711,-2.035,-2.2892,-2.512,-2.5118,-2.5771,-2.6191,-2.5707,-2.4939,-2.3808,-2.2051,-2.1295,-2.0875,-2.0764,-2.01,-1.9969,-2.0867,-2.1327,-2.1685,-2.1939,-2.2352,-2.298,-2.3845,-2.456,-2.5172,-2.5626,-2.5562,-2.5505,-2.5505,-2.5234,-2.5122,-2.5189,-2.6008,-2.6842,-2.772,-2.8679,-2.9602,-3.0448,-3.0544,-3.0544,-3.0448,-3.0398,-3.0778,-3.146,-3.2248,-3.2975,-3.3655,-3.4529,-3.487,-3.487,-3.487,-3.487,-3.487,-3.487,-3.5249,-3.5891,-3.6875,-3.7669,-3.8407,-3.9429,-3.9735,-3.98,-3.98,-3.9757,-3.9709,-3.9709,-3.9645,-3.9792,-4.0549,-4.0874,-4.1342,-4.2468,-4.3329,-4.4169,-4.5029,-4.5201,-4.5118,-4.4872,-4.4825,-4.4663,-4.4271,-4.4087,-4.3893,-4.3646,-4.3548,-4.3497,-4.3497,-4.3497,-4.3497,-4.3497,-4.3497,-4.3497,-4.3497,-4.3497,-4.414,-4.5571,-4.581,-4.6287,-4.7095,-4.7902,-4.8306,-4.8306,-4.8306,-4.8306,-4.8306,-4.8306,-4.8306,-1.3663,0.0,0.0,-1.3212,0.0,-1.6785,-1.8148,-2.115,-2.3866,-2.4592,-2.5141,-2.5466,-2.5322,-2.4984,-2.4394,-2.3383,-2.2936,-2.2597,-2.2167,-2.2099,-2.2212,-2.2538,-2.2852,-2.2911,-2.2652,-2.3115,-2.3775,-2.4603,-2.505,-2.5351,-2.5505,-2.5384,-2.5294,-2.522,-2.5012,-2.4929,-2.4959,-2.6143,-2.6973,-2.7409,-2.8765,-2.9651,-3.0161,-3.0394,-3.0381,-3.0171,-3.0171,-3.029,-3.0636,-3.1853,-3.2541,-3.294,-3.4204,-3.4694,-3.4694,-3.4694,-3.4694,-3.4694,-3.4694,-3.4875,-3.5293,-3.6508,-3.7225,-3.7807,-3.9008,-3.9462,-3.9599,-3.9599,-3.9486,-3.9364,-3.9364,-3.9275,-3.9386,-4.0179,-4.0915,-4.1699,-4.272,-4.3577,-4.4317,-4.4778,-4.4872,-4.4825,-4.4631,-4.4447,-4.4233,-4.4028,-4.3849,-4.3693,-4.3513,-4.3497,-4.3497,-4.3497,-4.3497,-4.3497,-4.3497,-4.3497,-4.3497,-4.3497,-4.3497,-4.4213,-4.5828,-4.5902,-4.6471,-4.7664,-4.8104,-4.8306,-4.8306,-4.8306,-4.8306,-4.8306,-4.8306,-4.8306,-1.3126,0.0,-1.0515,-1.0244,-1.1301,0.0,-1.5678,-1.9691,-2.336,-2.5034,-2.5333,-2.5294,-2.5297,-2.5302,-2.5103,-2.4486,-2.3919,-2.3263,-2.2422,-2.2835,-2.3344,-2.3723,-2.3885,-2.3815,-2.3386,-2.386,-2.4452,-2.506,-2.5317,-2.5361,-2.5214,-2.5088,-2.4949,-2.4847,-2.4771,-2.4746,-2.4746,-2.6064,-2.6798,-2.6968,-2.8678,-2.9619,-2.9882,-3.0152,-3.0117,-2.9825,-2.9825,-2.9753,-2.9775,-3.1299,-3.1995,-3.22,-3.374,-3.4417,-3.4548,-3.4548,-3.4548,-3.4548,-3.4548,-3.4357,-3.4401,-3.6092,-3.663,-3.6935,-3.8534,-3.9205,-3.9432,-3.9432,-3.9231,-3.9036,-3.9036,-3.8966,-3.9111,-3.9918,-4.1155,-4.2326,-4.3055,-4.3871,-4.4501,-4.4501,-4.4447,-4.4419,-4.4419,-4.4136,-4.3893,-4.3893,-4.3679,-4.3497,-4.3497,-4.3497,-4.3497,-4.3497,-4.3497,-4.3497,-4.3497,-4.3497,-4.3497,-4.3497,-4.3497,-4.4213,-4.5828,-4.5902,-4.6654,-4.8269,-4.8306,-4.8306,-4.8306,-4.8306,-4.8306,-4.8306,-4.8306,-4.8306,0.0,0.0,-0.3276,0.0,-0.7922,-1.1384,0.0,0.0,-2.4016,-2.5375,-2.5454,-2.5293,-2.5303,-2.5313,-2.5281,-2.5164,-2.5075,-2.4763,-2.4001,-2.3486,-2.3217,-2.3294,-2.3612,-2.3837,-2.3888,-2.4076,-2.4235,-2.4334,-2.4384,-2.4543,-2.4844,-2.4737,-2.4667,-2.4643,-2.4582,-2.4545,-2.4545,-2.475,-2.5215,-2.5922,-2.7778,-2.9032,-2.9732,-2.9765,-2.9725,-2.9542,-2.9542,-2.9513,-2.9509,-3.0423,-3.1073,-3.1605,-3.252,-3.3294,-3.3902,-3.3902,-3.3902,-3.3902,-3.3902,-3.3895,-3.4144,-3.5818,-3.6352,-3.6646,-3.8283,-3.8792,-3.8822,-3.8822,-3.8792,-3.8762,-3.8762,-3.9234,-3.9937,-4.0763,-4.1632,-4.2395,-4.2797,-4.3509,-4.4087,-4.4087,-4.3836,-4.3664,-4.3664,-4.3597,-4.3582,-4.3582,-4.3513,-4.3497,-4.3497,-4.3497,-4.3497,-4.3497,-4.3497,-4.3497,-4.3497,-4.3497,-4.3497,-4.3497,-4.3497,-4.4213,-4.5828,-4.5902,-4.6654,-4.8269,-4.8306,-4.8306,-4.8306,-4.8306,-4.8306,-4.8306,-4.8306,-4.8306,-0.6685,-0.1968,0.1268,0.0,-0.5681,-1.0171,-1.3097,-1.697,-2.0634,-2.2825,-2.3663,-2.4233,-2.5137,-2.535,-2.5434,-2.5511,-2.5269,-2.496,-2.4644,-2.4316,-2.4101,-2.4105,-2.4044,-2.4213,-2.4687,-2.492,-2.4516,-2.3234,-2.3145,-2.3355,-2.3877,-2.3749,-2.3658,-2.3658,-2.3724,-2.3767,-2.3767,-2.4221,-2.516,-2.6612,-2.8079,-2.8961,-2.9314,-2.9314,-2.9358,-2.9439,-2.9439,-2.9338,-2.9233,-3.0028,-3.077,-3.1476,-3.2302,-3.3091,-3.3807,-3.3807,-3.3807,-3.3807,-3.3807,-3.3807,-3.4082,-3.5752,-3.6303,-3.6597,-3.8212,-3.8707,-3.8707,-3.8707,-3.8707,-3.8707,-3.8707,-3.9294,-4.0102,-4.0928,-4.1717,-4.2463,-4.3065,-4.3467,-4.3726,-4.3726,-4.3597,-4.3497,-4.3497,-4.3497,-4.3497,-4.3497,-4.3497,-4.3497,-4.3497,-4.3497,-4.3497,-4.3497,-4.3497,-4.3497,-4.3497,-4.3497,-4.3497,-4.3497,-4.392,-4.469,-4.5847,-4.6342,-4.7131,-4.8288,-4.8306,-4.8306,-4.8306,-4.8306,-4.8306,-4.8306,-4.8306,-4.8306,0.0,0.0,0.2916,0.1051,-0.3004,-0.7332,0.0,0.0,-1.6718,-1.9583,-2.1092,-2.2423,-2.4101,-2.4926,-2.5387,-2.5537,-2.5054,-2.4464,-2.3842,-2.3114,-2.2526,-2.2284,-2.2246,-2.2463,-2.3004,-2.3248,-2.2963,-2.203,-2.1829,-2.2129,-2.2989,-2.2909,-2.2879,-2.2962,-2.3104,-2.3189,-2.3189,-2.3968,-2.5305,-2.7173,-2.8003,-2.8567,-2.8839,-2.8767,-2.8938,-2.9289,-2.9289,-2.9181,-2.9049,-2.9659,-3.0485,-3.1458,-3.2063,-3.2908,-3.3807,-3.3807,-3.3807,-3.3807,-3.368,-3.3854,-3.4312,-3.5674,-3.6355,-3.6872,-3.8267,-3.8707,-3.8707,-3.8707,-3.8707,-3.8707,-3.8707,-3.9441,-4.0359,-4.0965,-4.1882,-4.2763,-4.3369,-4.3497,-4.3497,-4.3497,-4.3497,-4.3497,-4.3497,-4.3497,-4.3497,-4.3497,-4.3497,-4.3497,-4.3497,-4.3497,-4.3497,-4.3497,-4.3497,-4.3497,-4.3497,-4.3375,-4.3377,-4.3578,-4.398,-4.4669,-4.5669,-4.6288,-4.6979,-4.782,-4.7838,-4.7977,-4.8306,-4.8306,-4.8306,-4.8306,-4.8306,-4.8306,0.0,-0.1611,0.0,0.1782,0.0822,-0.1498,0.0,-0.9714,-1.3682,-1.6322,-1.8093,-1.9776,-2.1647,-2.3593,-2.4987,-2.5116,-2.453,-2.3249,-2.0952,-1.8403,-1.637,-1.5343,-1.6218,-1.6934,-1.6954,-1.6978,-1.8127,-2.0854,-2.0551,-2.0916,-2.2538,-2.2615,-2.28,-2.3177,-2.3194,-2.3189,-2.3189,-2.3919,-2.512,-2.6719,-2.68,-2.7406,-2.842,-2.8102,-2.8352,-2.9017,-2.9017,-2.9017,-2.8994,-2.9049,-2.9989,-3.1384,-3.1439,-3.2412,-3.3807,-3.3807,-3.3807,-3.3734,-3.3361,-3.3985,-3.5007,-3.5483,-3.6455,-3.7588,-3.8432,-3.8707,-3.8707,-3.8707,-3.8707,-3.8707,-3.8707,-3.9863,-4.1056,-4.1111,-4.2304,-4.3442,-4.3479,-4.3497,-4.3497,-4.3497,-4.3497,-4.3497,-4.3497,-4.3497,-4.3497,-4.3497,-4.3497,-4.3497,-4.3497,-4.3497,-4.3497,-4.3497,-4.3497,-4.3497,-4.3497,-4.3014,-4.3057,-4.3758,-4.3286,-4.366,-4.5166,-4.5273,-4.5663,-4.6507,-4.6524,-4.707,-4.8306,-4.8306,-4.8306,-4.8306,-4.8306,-4.8306,0.0,0.0,0.0,-0.1726,-0.105,-0.0598,-0.2997,-0.6536,-1.0037,-1.2715,-1.5149,-1.7341,-1.8978,-2.1511,-2.3488,-2.3877,-2.4008,-2.3358,-2.1383,-1.7007,-1.3537,-1.2328,-1.338,-1.4205,-1.4199,-1.4887,-1.6251,-1.8411,-1.9287,-2.0099,-2.1001,-2.139,-2.1648,-2.1795,-2.204,-2.2535,-2.3313,-2.4319,-2.5335,-2.64,-2.7102,-2.7688,-2.8075,-2.7936,-2.8037,-2.8281,-2.8281,-2.843,-2.8615,-2.8615,-2.9403,-3.0614,-3.0614,-3.1583,-3.2965,-3.2965,-3.2965,-3.2934,-3.2809,-3.3341,-3.4225,-3.4863,-3.5735,-3.6644,-3.7469,-3.7756,-3.7756,-3.7756,-3.7756,-3.7828,-3.8313,-3.9264,-4.0398,-4.1814,-4.2577,-4.2976,-4.2976,-4.325,-4.3497,-4.3497,-4.3497,-4.3497,-4.3497,-4.3497,-4.3497,-4.3497,-4.3497,-4.3497,-4.3497,-4.3497,-4.3375,-4.3014,-4.2976,-4.2846,-4.2426,-4.2226,-4.2442,-4.3166,-4.3509,-4.412,-4.5163,-4.5693,-4.61,-4.6365,-4.6383,-4.6618,-4.7088,-4.7088,-4.7324,-4.7715,-4.7281,-4.7324,-0.8485,0.0,0.0,0.0,-0.2211,-0.1157,-0.2634,-0.5034,-0.7396,-0.9178,-1.1723,-1.4164,-1.6047,-1.8524,-2.0807,-2.2311,-2.2788,-2.2429,-2.0922,-1.672,-1.327,-1.1925,-1.1883,-1.2254,-1.2866,-1.3573,-1.4856,-1.6794,-1.7897,-1.8899,-1.9932,-2.032,-2.0667,-2.0991,-2.134,-2.1913,-2.2706,-2.4032,-2.509,-2.5811,-2.6953,-2.756,-2.7678,-2.756,-2.7648,-2.7897,-2.7754,-2.7908,-2.8237,-2.8237,-2.903,-3.0198,-3.0198,-3.1154,-3.2484,-3.2484,-3.2484,-3.2484,-3.2316,-3.3036,-3.4093,-3.4481,-3.5381,-3.6427,-3.7013,-3.719,-3.719,-3.719,-3.719,-3.7367,-3.8107,-3.908,-4.0299,-4.198,-4.2382,-4.2382,-4.2382,-4.2675,-4.294,-4.294,-4.294,-4.294,-4.294,-4.294,-4.2995,-4.3214,-4.3069,-4.2995,-4.3214,-4.3069,-4.2772,-4.244,-4.2382,-4.2262,-4.1835,-4.1886,-4.2228,-4.2938,-4.3523,-4.4213,-4.498,-4.5503,-4.5783,-4.5783,-4.5783,-4.5783,-4.5783,-4.6192,-4.6618,-4.7044,-4.6618,-4.6618,0.0,0.0,0.0,0.0,-0.2349,-0.2674,-0.4137,-0.5208,-0.5918,-0.5894,-0.7817,-1.03,-1.2826,-1.4702,-1.6995,-2.0383,-2.0794,-2.0334,-1.9326,-1.7297,-1.5331,-1.3839,-1.1648,-1.0889,-1.2672,-1.2764,-1.3737,-1.6171,-1.6362,-1.7329,-1.9462,-1.9504,-1.9963,-2.0975,-2.1231,-2.1375,-2.1401,-2.3063,-2.4282,-2.5008,-2.6135,-2.6873,-2.7255,-2.6873,-2.7115,-2.784,-2.7439,-2.75,-2.7869,-2.7869,-2.8771,-3.0168,-3.0168,-3.1122,-3.2451,-3.2451,-3.2451,-3.2417,-3.195,-3.3106,-3.4694,-3.4356,-3.5539,-3.7135,-3.7135,-3.7135,-3.7135,-3.7135,-3.717,-3.7365,-3.8139,-3.9481,-4.0806,-4.1591,-4.175,-4.175,-4.175,-4.175,-4.1768,-4.1793,-4.181,-4.181,-4.181,-4.181,-4.1979,-4.2577,-4.2162,-4.2021,-4.2616,-4.2162,-4.1793,-4.1768,-4.175,-4.1768,-4.175,-4.1928,-4.2396,-4.3158,-4.3337,-4.3775,-4.4553,-4.4587,-4.4587,-4.4587,-4.4587,-4.4587,-4.457,-4.5783,-4.6383,-4.6383,-4.6383,-4.6383,-1.4898,0.0,0.0,0.0,0.0,0.0,-0.4388,-0.5483,-0.6334,-0.5982,-0.7015,-0.8546,-1.0334,-1.2321,-1.4418,-1.6622,-1.8855,-1.9875,-1.8527,-1.6917,-1.5179,-1.3216,-1.1585,-1.0805,-1.1318,-1.2209,-1.3443,-1.5074,-1.594,-1.704,-1.843,-1.9236,-1.998,-2.0691,-2.0371,-2.0686,-2.1752,-2.2801,-2.3926,-2.5158,-2.5862,-2.6245,-2.6368,-2.6607,-2.6808,-2.7036,-2.6906,-2.6939,-2.7051,-2.7365,-2.8204,-2.9316,-2.9316,-3.0242,-3.1562,-3.1562,-3.1562,-3.1631,-3.2025,-3.2884,-3.3836,-3.4277,-3.5138,-3.6054,-3.6054,-3.6054,-3.6054,-3.6054,-3.6465,-3.7202,-3.8459,-3.9824,-4.0871,-4.108,-4.1133,-4.1133,-4.1133,-4.0844,-4.0814,-4.1639,-4.181,-4.181,-4.181,-4.181,-4.1853,-4.2021,-4.1895,-4.1853,-4.2021,-4.1895,-4.1621,-4.1223,-4.1133,-4.1013,-4.0594,-4.1134,-4.175,-4.2482,-4.3105,-4.3775,-4.4553,-4.4587,-4.4587,-4.4587,-4.4587,-4.4587,-4.4587,-4.4961,-4.532,-4.5732,-4.5732,-4.5732,-1.8153,-1.5969,-1.3904,-1.1798,0.0,0.0,-0.5451,-0.5887,-0.6484,-0.6016,-0.6296,-0.6982,-0.8124,-1.007,-1.205,-1.393,-1.666,-1.8356,-1.7785,-1.635,-1.465,-1.2922,-1.1306,-1.0517,-1.0762,-1.1499,-1.2715,-1.456,-1.5309,-1.6348,-1.7801,-1.9022,-1.9869,-2.0223,-1.9869,-2.0294,-2.1491,-2.2368,-2.3354,-2.4467,-2.5282,-2.5762,-2.6013,-2.6297,-2.6505,-2.6691,-2.6691,-2.6691,-2.6742,-2.7281,-2.8101,-2.9008,-2.933,-3.0159,-3.119,-3.119,-3.119,-3.1309,-3.2019,-3.278,-3.3525,-3.4252,-3.5013,-3.5622,-3.5622,-3.5622,-3.5622,-3.5622,-3.64,-3.7516,-3.8684,-3.9773,-4.0577,-4.0577,-4.0577,-4.0577,-4.0577,-4.0336,-4.0303,-4.0938,-4.1076,-4.1076,-4.1076,-4.1076,-4.115,-4.1402,-4.1241,-4.115,-4.1402,-4.1241,-4.0938,-4.0625,-4.0577,-4.0449,-4.0121,-4.1052,-4.183,-4.2269,-4.3301,-4.4113,-4.4553,-4.4587,-4.4587,-4.4587,-4.4587,-4.4587,-4.4587,-4.4587,-4.4759,-4.5125,-4.5125,-4.5125,-2.1294,-1.9206,-1.7182,-1.5724,-1.3794,0.0,-0.7707,-0.6932,-0.6876,-0.6473,-0.6373,-0.6396,-0.6753,-0.8495,-1.0448,-1.2301,-1.4686,-1.6536,-1.7203,-1.5849,-1.4315,-1.3074,-1.1247,-1.0364,-1.0864,-1.0914,-1.1984,-1.4514,-1.488,-1.5732,-1.7459,-1.875,-1.9534,-1.9706,-1.9627,-2.0094,-2.1121,-2.1934,-2.2709,-2.3427,-2.4571,-2.5373,-2.5815,-2.5888,-2.6139,-2.6539,-2.659,-2.6624,-2.6691,-2.757,-2.8349,-2.9059,-2.982,-3.0548,-3.119,-3.119,-3.119,-3.1309,-3.2121,-3.2848,-3.3541,-3.4353,-3.5081,-3.5622,-3.5622,-3.5622,-3.5656,-3.5825,-3.6857,-3.8091,-3.8903,-3.9597,-4.007,-4.007,-4.007,-4.007,-4.007,-4.007,-4.007,-4.007,-4.007,-4.007,-4.007,-4.007,-4.0237,-4.0733,-4.0417,-4.0286,-4.0733,-4.0417,-4.007,-4.007,-4.007,-4.007,-4.007,-4.1441,-4.2286,-4.2286,-4.3741,-4.4587,-4.4587,-4.4587,-4.4587,-4.4587,-4.4587,-4.4587,-4.4587,-4.4587,-4.4587,-4.4587,-4.4587,-4.4587,-2.3819,-2.2846,-2.1679,-1.9257,-1.7909,0.0,-1.3718,-1.1094,-0.9302,-0.9479,-1.0485,-1.0664,-0.8685,-0.9987,-1.1653,-1.256,-1.5107,-1.7072,-1.7256,-1.6944,-1.6028,-1.4349,-1.2982,-1.2033,-1.1657,-1.1616,-1.2483,-1.456,-1.6003,-1.6967,-1.7338,-1.7759,-1.8539,-1.9654,-1.9116,-1.9868,-2.2013,-2.1922,-2.241,-2.3571,-2.4246,-2.4632,-2.4752,-2.5144,-2.5411,-2.5524,-2.5961,-2.6156,-2.6256,-2.8037,-2.8839,-2.9059,-2.982,-3.0548,-3.119,-3.119,-3.119,-3.1376,-3.2713,-3.3288,-3.3626,-3.4962,-3.5504,-3.5622,-3.5622,-3.5622,-3.5876,-3.711,-3.7686,-3.821,-3.9529,-3.9969,-4.007,-4.007,-4.007,-4.007,-4.007,-4.007,-4.007,-4.007,-4.007,-4.007,-4.007,-4.007,-4.0121,-4.0254,-4.0171,-4.0121,-4.0254,-4.0154,-4.007,-4.007,-4.007,-4.007,-4.007,-4.1441,-4.2286,-4.2286,-4.3741,-4.4587,-4.4587,-4.4587,-4.4587,-4.4587,-4.4587,-4.4587,-4.4587,-4.4587,-4.4587,-4.4587,-4.4587,-4.4587,-2.5631,-2.4818,-2.3985,-2.2638,-2.1151,0.0,0.0,-1.5466,-1.3402,-1.3867,-1.3651,-1.3129,-1.2225,-1.2656,-1.3461,-1.4399,-1.6373,-1.7995,-1.8636,-1.8384,-1.7488,-1.5879,-1.4418,-1.3205,-1.2522,-1.2471,-1.3275,-1.5293,-1.6546,-1.7377,-1.7727,-1.8117,-1.8627,-1.9336,-1.9251,-2.01,-2.1978,-2.1792,-2.2344,-2.3595,-2.3879,-2.4158,-2.4389,-2.4672,-2.495,-2.5221,-2.5486,-2.5615,-2.5696,-2.7109,-2.7844,-2.8329,-2.9984,-3.0869,-3.119,-3.119,-3.119,-3.141,-3.2899,-3.3406,-3.3643,-3.5131,-3.5622,-3.5622,-3.5622,-3.5893,-3.6434,-3.7584,-3.8159,-3.87,-3.9783,-4.007,-4.007,-4.007,-4.007,-4.007,-4.007,-4.007,-4.007,-4.007,-4.007,-4.007,-4.007,-4.007,-4.007,-4.007,-4.007,-4.007,-4.007,-4.007,-4.007,-4.007,-4.007,-4.007,-4.007,-4.1441,-4.2286,-4.2286,-4.3741,-4.4587,-4.4587,-4.4587,-4.4587,-4.4587,-4.4587,-4.4587,-4.4587,-4.4587,-4.4587,-4.4587,-4.4587,-4.4587,-2.6777,-2.6036,-2.5464,-2.5068,-2.3746,-2.2325,0.0,0.0,0.0,-1.8285,-1.674,-1.5531,-1.5932,-1.5629,-1.5634,-1.6585,-1.7963,-1.9276,-2.0261,-1.9943,-1.894,-1.7248,-1.5681,-1.4393,-1.3403,-1.3413,-1.4198,-1.5873,-1.6665,-1.7364,-1.7954,-1.8541,-1.8911,-1.8989,-1.9427,-2.0246,-2.1525,-2.1539,-2.2163,-2.3421,-2.3421,-2.3694,-2.4225,-2.4225,-2.4471,-2.491,-2.5012,-2.5067,-2.5114,-2.595,-2.6711,-2.7547,-2.9926,-3.0937,-3.1055,-3.1151,-3.1112,-3.1257,-3.2857,-3.3305,-3.3515,-3.5087,-3.5515,-3.5424,-3.556,-3.5954,-3.6582,-3.7604,-3.8328,-3.8988,-3.9851,-4.007,-4.007,-4.007,-4.007,-4.007,-4.007,-4.007,-4.007,-4.007,-4.007,-4.007,-4.007,-4.007,-4.007,-4.007,-4.007,-4.007,-4.007,-4.007,-4.007,-4.007,-4.007,-4.007,-4.007,-4.1305,-4.2151,-4.2286,-4.3589,-4.4418,-4.457,-4.4587,-4.4587,-4.4587,-4.4587,-4.4587,-4.4587,-4.4587,-4.4587,-4.4587,-4.4587,-4.4587,-2.6972,-2.7079,-2.7124,-2.5369,-2.5794,-2.6116,-2.4166,0.0,-2.3097,-2.1535,0.0,-1.9641,-1.8103,0.0,0.0,-1.8022,-1.977,-2.1161,-2.1151,-2.1495,-2.0686,-1.7847,-1.7091,-1.6042,-1.4165,-1.4493,-1.4976,-1.5185,-1.6366,-1.7157,-1.7206,-1.7881,-1.8508,-1.8989,-1.908,-1.9664,-2.0886,-2.09,-2.1524,-2.2785,-2.2785,-2.3098,-2.3681,-2.3681,-2.3709,-2.3794,-2.4266,-2.4511,-2.4599,-2.5791,-2.6711,-2.7458,-2.8944,-2.9873,-3.0477,-3.1015,-3.0878,-3.0692,-3.2698,-3.3031,-3.2923,-3.4936,-3.5207,-3.483,-3.5407,-3.5258,-3.5262,-3.7323,-3.7973,-3.8345,-3.9715,-4.007,-4.007,-4.007,-4.007,-4.007,-4.007,-4.007,-4.007,-4.007,-4.007,-4.007,-4.007,-4.007,-4.007,-4.007,-4.007,-4.007,-4.007,-4.007,-4.007,-4.007,-4.007,-4.007,-4.007,-4.0849,-4.1593,-4.2252,-4.3081,-4.3859,-4.4553,-4.4587,-4.4587,-4.4587,-4.4587,-4.4587,-4.4587,-4.4587,-4.4587,-4.4587,-4.4587,-4.4587,-2.7349,-2.7361,-2.7344,-2.6508,-2.6544,-2.6572,-2.58,-2.5272,-2.4956,-2.4907,0.0,0.0,0.0,0.0,0.0,0.0,-2.1769,-2.2175,-2.1568,-2.1816,-2.1218,-1.9001,-1.7969,-1.6706,-1.5002,-1.5097,-1.5533,-1.6259,-1.6861,-1.7551,-1.8407,-1.8746,-1.9078,-1.9466,-1.9453,-1.9973,-2.0941,-2.0988,-2.1254,-2.1778,-2.2278,-2.252,-2.25,-2.2905,-2.3054,-2.3098,-2.3709,-2.3964,-2.4009,-2.4937,-2.5716,-2.6439,-2.7759,-2.8854,-2.9805,-3.0064,-2.9995,-3.0016,-3.17,-3.2145,-3.2203,-3.3875,-3.4496,-3.4592,-3.4447,-3.4791,-3.553,-3.6903,-3.7868,-3.8768,-3.9817,-4.007,-4.007,-4.007,-4.007,-4.007,-4.007,-4.007,-4.007,-4.007,-4.007,-4.007,-4.007,-4.007,-4.007,-4.007,-4.007,-4.007,-4.007,-4.007,-4.007,-4.007,-4.007,-4.007,-4.007,-4.0781,-4.1339,-4.1644,-4.2777,-4.3775,-4.4553,-4.4587,-4.4587,-4.4587,-4.4587,-4.4587,-4.4587,-4.4587,-4.4587,-4.4587,-4.4587,-4.4587,-2.709,-2.7096,-2.7108,-2.6834,-2.6743,-2.6682,-2.6533,-2.6178,-2.6082,-2.6755,-2.5907,0.0,0.0,0.0,-2.3897,-2.3311,0.0,-2.2556,-2.1579,-2.1488,-2.1013,-1.9684,-1.8215,-1.6797,-1.5545,-1.541,-1.5821,-1.6796,-1.7064,-1.7696,-1.8908,-1.9078,-1.9278,-1.9658,-1.955,-1.9914,-2.0751,-2.0751,-2.0729,-2.0751,-2.1397,-2.1609,-2.158,-2.2179,-2.2558,-2.274,-2.3143,-2.3465,-2.3655,-2.4343,-2.5016,-2.5721,-2.6794,-2.7922,-2.895,-2.9271,-2.9316,-2.9386,-3.0943,-3.1774,-3.2222,-3.3246,-3.3786,-3.3987,-3.3684,-3.4269,-3.5289,-3.6212,-3.7567,-3.8807,-3.9323,-3.961,-3.9782,-3.9782,-3.961,-3.9506,-3.9731,-3.961,-3.9454,-3.9454,-3.961,-3.9782,-3.9782,-3.9952,-4.007,-4.007,-4.007,-4.007,-4.007,-4.007,-4.007,-4.007,-4.007,-4.007,-4.007,-4.0578,-4.1068,-4.1474,-4.2709,-4.3775,-4.4553,-4.4587,-4.4587,-4.4587,-4.4587,-4.4587,-4.4587,-4.4587,-4.4587,-4.4587,-4.4587,-4.4587,-2.5803,-2.6173,-2.6602,-2.5698,-2.652,-2.7288,-2.6256,-2.6586,-2.6951,-2.6257,-2.6131,-2.6003,-2.5517,-2.5053,-2.4545,-2.3879,-2.3115,0.0,0.0,-2.0648,-2.0098,-1.9388,-1.7678,-1.6244,-1.5468,-1.541,-1.5596,-1.6086,-1.6777,-1.7381,-1.781,-1.8163,-1.8657,-1.9376,-1.8988,-1.9097,-1.985,-1.985,-1.9864,-1.9858,-1.987,-2.0302,-2.1138,-2.1566,-2.21,-2.2694,-2.2694,-2.3054,-2.3655,-2.4343,-2.5016,-2.5674,-2.6381,-2.704,-2.7795,-2.895,-2.9042,-2.8793,-3.08,-3.2366,-3.3534,-3.3582,-3.3198,-3.2788,-3.3391,-3.3603,-3.3855,-3.5338,-3.675,-3.7859,-3.7858,-3.8414,-3.8908,-3.8908,-3.8414,-3.8092,-3.8799,-3.8358,-3.7863,-3.7863,-3.8469,-3.8908,-3.8908,-3.9594,-4.007,-4.007,-4.007,-4.007,-4.007,-4.007,-4.007,-4.007,-4.007,-4.007,-4.007,-4.0104,-4.073,-4.2168,-4.298,-4.3775,-4.4553,-4.4587,-4.4587,-4.4587,-4.4587,-4.4587,-4.4587,-4.4587,-4.4587,-4.4587,-4.4587,-4.4587,-2.5627,-2.5783,-2.5925,-2.5618,-2.6033,-2.6439,-2.6032,-2.6154,-2.6431,-2.6753,-2.668,-2.6599,-2.6821,-2.6274,-2.5491,-2.4547,-2.3732,-2.2681,0.0,-2.0074,-1.8985,-1.7852,-1.679,-1.5965,-1.5467,-1.541,-1.5713,-1.6414,-1.6725,-1.7279,-1.8193,-1.8375,-1.8518,-1.868,-1.899,-1.9384,-1.9812,-1.9783,-1.9799,-1.9813,-1.9813,-1.9965,-2.028,-2.0841,-2.1224,-2.1465,-2.1866,-2.2392,-2.3068,-2.3725,-2.4616,-2.5674,-2.6333,-2.6991,-2.766,-2.8076,-2.8076,-2.8141,-2.9684,-3.144,-3.2841,-3.2367,-3.2367,-3.2532,-3.2312,-3.2813,-3.3702,-3.4757,-3.5999,-3.7189,-3.7687,-3.7978,-3.8149,-3.8149,-3.7978,-3.7863,-3.8149,-3.7978,-3.7822,-3.7822,-3.7978,-3.8318,-3.8799,-3.8707,-3.8941,-3.9969,-4.007,-4.007,-4.007,-4.007,-4.007,-4.007,-4.007,-4.007,-4.007,-4.007,-4.0713,-4.2202,-4.2523,-4.325,-4.4536,-4.4587,-4.4587,-4.4587,-4.4587,-4.4587,-4.4587,-4.4587,-4.4587,-4.4587,-4.4587,-4.4587,-2.5586,-2.5596,-2.5593,-2.5562,-2.5723,-2.5869,-2.5754,-2.5907,-2.6163,-2.6427,-2.6753,-2.6914,-2.666,-2.6383,-2.5778,-2.4481,-2.3665,-2.2606,0.0,-1.9671,-1.8495,-1.7352,-1.6666,-1.5998,-1.5241,-1.5322,-1.5782,-1.6641,-1.6379,-1.671,-1.7735,-1.7359,-1.7272,-1.762,-1.7944,-1.8475,-1.9287,-1.9633,-1.978,-1.978,-1.9797,-1.9798,-1.9798,-2.0258,-2.0547,-2.0795,-2.121,-2.1771,-2.2402,-2.3075,-2.4115,-2.5361,-2.6012,-2.6778,-2.7625,-2.7625,-2.7874,-2.8412,-2.928,-3.0749,-3.212,-3.164,-3.1796,-3.212,-3.164,-3.2473,-3.3582,-3.4115,-3.5443,-3.6711,-3.6946,-3.7175,-3.7397,-3.7397,-3.7175,-3.7055,-3.7338,-3.7175,-3.7011,-3.7011,-3.7175,-3.7499,-3.7987,-3.7905,-3.8318,-3.985,-3.985,-3.9782,-4.007,-4.007,-4.007,-4.007,-4.007,-4.007,-4.007,-4.007,-4.0713,-4.2202,-4.2286,-4.298,-4.4519,-4.4327,-4.4138,-4.4138,-4.3798,-4.368,-4.368,-4.368,-4.3798,-4.4138,-4.4138,-4.431]}]]